<?xml version="1.0" encoding="UTF-8" standalone="no" ?>
<gpx xmlns="http://www.topografix.com/GPX/1/1" xmlns:xsi="http://www.w3.org/2001/XMLSchema-instance" xsi:schemaLocation="http://www.topografix.com/GPX/1/1 http://www.topografix.com/GPX/1/1/gpx.xsd" version="1.1" creator="VisuGPX - https://www.visugpx.com">
  <metadata>
    <name>lundi 2015 09 14</name>
    <desc><![CDATA[rando du lundi]]></desc>
  </metadata>
  <trk>
    <name><![CDATA[lundi 2015 09 14]]></name>
    <trkseg>
      <trkpt lat="48.85738" lon="2.34691">
        <ele>42.799999237061</ele>
        <time>2015-09-14T18:21:20.000Z</time>
      </trkpt>
      <trkpt lat="48.85722" lon="2.34686">
        <ele>42.599998474121</ele>
        <time>2015-09-14T18:21:58.000Z</time>
      </trkpt>
      <trkpt lat="48.85707" lon="2.34688">
        <ele>40</ele>
        <time>2015-09-14T18:22:04.000Z</time>
      </trkpt>
      <trkpt lat="48.8569" lon="2.34677">
        <ele>38</ele>
        <time>2015-09-14T18:22:10.000Z</time>
      </trkpt>
      <trkpt lat="48.85672" lon="2.34664">
        <ele>36.200000762939</ele>
        <time>2015-09-14T18:22:16.000Z</time>
      </trkpt>
      <trkpt lat="48.85654" lon="2.3465">
        <ele>35</ele>
        <time>2015-09-14T18:22:22.000Z</time>
      </trkpt>
      <trkpt lat="48.85638" lon="2.3464">
        <ele>34.200000762939</ele>
        <time>2015-09-14T18:22:27.000Z</time>
      </trkpt>
      <trkpt lat="48.85618" lon="2.34637">
        <ele>34</ele>
        <time>2015-09-14T18:22:34.000Z</time>
      </trkpt>
      <trkpt lat="48.85598" lon="2.34631">
        <ele>34</ele>
        <time>2015-09-14T18:22:39.000Z</time>
      </trkpt>
      <trkpt lat="48.85578" lon="2.3462">
        <ele>34</ele>
        <time>2015-09-14T18:22:44.000Z</time>
      </trkpt>
      <trkpt lat="48.85558" lon="2.34609">
        <ele>35</ele>
        <time>2015-09-14T18:22:49.000Z</time>
      </trkpt>
      <trkpt lat="48.85543" lon="2.34593">
        <ele>35.400001525879</ele>
        <time>2015-09-14T18:22:53.000Z</time>
      </trkpt>
      <trkpt lat="48.85524" lon="2.34578">
        <ele>35.799999237061</ele>
        <time>2015-09-14T18:22:58.000Z</time>
      </trkpt>
      <trkpt lat="48.85507" lon="2.3456">
        <ele>36.799999237061</ele>
        <time>2015-09-14T18:23:03.000Z</time>
      </trkpt>
      <trkpt lat="48.85499" lon="2.34555">
        <ele>37.400001525879</ele>
        <time>2015-09-14T18:23:05.000Z</time>
      </trkpt>
      <trkpt lat="48.85482" lon="2.34542">
        <ele>37.799999237061</ele>
        <time>2015-09-14T18:23:09.000Z</time>
      </trkpt>
      <trkpt lat="48.85466" lon="2.3453">
        <ele>37.400001525879</ele>
        <time>2015-09-14T18:23:13.000Z</time>
      </trkpt>
      <trkpt lat="48.85453" lon="2.34515">
        <ele>36.400001525879</ele>
        <time>2015-09-14T18:23:17.000Z</time>
      </trkpt>
      <trkpt lat="48.8544" lon="2.34494">
        <ele>38.400001525879</ele>
        <time>2015-09-14T18:23:21.000Z</time>
      </trkpt>
      <trkpt lat="48.85433" lon="2.34484">
        <ele>37.200000762939</ele>
        <time>2015-09-14T18:23:23.000Z</time>
      </trkpt>
      <trkpt lat="48.8542" lon="2.34465">
        <ele>36.799999237061</ele>
        <time>2015-09-14T18:23:27.000Z</time>
      </trkpt>
      <trkpt lat="48.85404" lon="2.34446">
        <ele>37</ele>
        <time>2015-09-14T18:23:33.000Z</time>
      </trkpt>
      <trkpt lat="48.85394" lon="2.34434">
        <ele>35.200000762939</ele>
        <time>2015-09-14T18:23:39.000Z</time>
      </trkpt>
      <trkpt lat="48.85384" lon="2.34416">
        <ele>37.799999237061</ele>
        <time>2015-09-14T18:24:33.000Z</time>
      </trkpt>
      <trkpt lat="48.85369" lon="2.34396">
        <ele>37.400001525879</ele>
        <time>2015-09-14T18:24:38.000Z</time>
      </trkpt>
      <trkpt lat="48.85356" lon="2.34375">
        <ele>37</ele>
        <time>2015-09-14T18:24:42.000Z</time>
      </trkpt>
      <trkpt lat="48.85343" lon="2.34354">
        <ele>36</ele>
        <time>2015-09-14T18:24:46.000Z</time>
      </trkpt>
      <trkpt lat="48.85328" lon="2.3433">
        <ele>34</ele>
        <time>2015-09-14T18:24:51.000Z</time>
      </trkpt>
      <trkpt lat="48.85313" lon="2.34309">
        <ele>32.599998474121</ele>
        <time>2015-09-14T18:24:56.000Z</time>
      </trkpt>
      <trkpt lat="48.853" lon="2.34289">
        <ele>31.60000038147</ele>
        <time>2015-09-14T18:25:02.000Z</time>
      </trkpt>
      <trkpt lat="48.85283" lon="2.34274">
        <ele>31.39999961853</ele>
        <time>2015-09-14T18:25:07.000Z</time>
      </trkpt>
      <trkpt lat="48.85268" lon="2.34255">
        <ele>31.39999961853</ele>
        <time>2015-09-14T18:25:12.000Z</time>
      </trkpt>
      <trkpt lat="48.85253" lon="2.34231">
        <ele>32.400001525879</ele>
        <time>2015-09-14T18:25:17.000Z</time>
      </trkpt>
      <trkpt lat="48.85243" lon="2.34206">
        <ele>33.200000762939</ele>
        <time>2015-09-14T18:25:21.000Z</time>
      </trkpt>
      <trkpt lat="48.85236" lon="2.34181">
        <ele>34.200000762939</ele>
        <time>2015-09-14T18:25:25.000Z</time>
      </trkpt>
      <trkpt lat="48.85229" lon="2.34153">
        <ele>35.599998474121</ele>
        <time>2015-09-14T18:25:30.000Z</time>
      </trkpt>
      <trkpt lat="48.85226" lon="2.34142">
        <ele>36.799999237061</ele>
        <time>2015-09-14T18:25:34.000Z</time>
      </trkpt>
      <trkpt lat="48.85229" lon="2.34124">
        <ele>40.200000762939</ele>
        <time>2015-09-14T18:25:40.000Z</time>
      </trkpt>
      <trkpt lat="48.85229" lon="2.34096">
        <ele>43</ele>
        <time>2015-09-14T18:25:45.000Z</time>
      </trkpt>
      <trkpt lat="48.85223" lon="2.34069">
        <ele>44</ele>
        <time>2015-09-14T18:25:50.000Z</time>
      </trkpt>
      <trkpt lat="48.85216" lon="2.3404">
        <ele>43.200000762939</ele>
        <time>2015-09-14T18:25:55.000Z</time>
      </trkpt>
      <trkpt lat="48.85211" lon="2.3401">
        <ele>41.799999237061</ele>
        <time>2015-09-14T18:26:00.000Z</time>
      </trkpt>
      <trkpt lat="48.85195" lon="2.33988">
        <ele>40.200000762939</ele>
        <time>2015-09-14T18:26:06.000Z</time>
      </trkpt>
      <trkpt lat="48.85179" lon="2.33972">
        <ele>40.599998474121</ele>
        <time>2015-09-14T18:26:11.000Z</time>
      </trkpt>
      <trkpt lat="48.85166" lon="2.33949">
        <ele>40.400001525879</ele>
        <time>2015-09-14T18:26:16.000Z</time>
      </trkpt>
      <trkpt lat="48.85149" lon="2.3393">
        <ele>39.400001525879</ele>
        <time>2015-09-14T18:26:22.000Z</time>
      </trkpt>
      <trkpt lat="48.85128" lon="2.33937">
        <ele>37.599998474121</ele>
        <time>2015-09-14T18:26:27.000Z</time>
      </trkpt>
      <trkpt lat="48.8511" lon="2.33945">
        <ele>35.200000762939</ele>
        <time>2015-09-14T18:26:33.000Z</time>
      </trkpt>
      <trkpt lat="48.85091" lon="2.33954">
        <ele>33</ele>
        <time>2015-09-14T18:26:39.000Z</time>
      </trkpt>
      <trkpt lat="48.85073" lon="2.33963">
        <ele>32.799999237061</ele>
        <time>2015-09-14T18:26:44.000Z</time>
      </trkpt>
      <trkpt lat="48.85056" lon="2.33973">
        <ele>32.599998474121</ele>
        <time>2015-09-14T18:26:49.000Z</time>
      </trkpt>
      <trkpt lat="48.85038" lon="2.33981">
        <ele>32.799999237061</ele>
        <time>2015-09-14T18:26:54.000Z</time>
      </trkpt>
      <trkpt lat="48.8502" lon="2.3399">
        <ele>32.599998474121</ele>
        <time>2015-09-14T18:26:58.000Z</time>
      </trkpt>
      <trkpt lat="48.85006" lon="2.33997">
        <ele>33.599998474121</ele>
        <time>2015-09-14T18:27:02.000Z</time>
      </trkpt>
      <trkpt lat="48.84995" lon="2.33976">
        <ele>34</ele>
        <time>2015-09-14T18:27:07.000Z</time>
      </trkpt>
      <trkpt lat="48.84992" lon="2.33971">
        <ele>34</ele>
        <time>2015-09-14T18:27:08.000Z</time>
      </trkpt>
      <trkpt lat="48.84984" lon="2.33944">
        <ele>32.799999237061</ele>
        <time>2015-09-14T18:27:13.000Z</time>
      </trkpt>
      <trkpt lat="48.84982" lon="2.33915">
        <ele>33.400001525879</ele>
        <time>2015-09-14T18:27:18.000Z</time>
      </trkpt>
      <trkpt lat="48.84985" lon="2.3391">
        <ele>33.400001525879</ele>
        <time>2015-09-14T18:27:19.000Z</time>
      </trkpt>
      <trkpt lat="48.84996" lon="2.33882">
        <ele>33.599998474121</ele>
        <time>2015-09-14T18:27:24.000Z</time>
      </trkpt>
      <trkpt lat="48.84992" lon="2.33856">
        <ele>33.799999237061</ele>
        <time>2015-09-14T18:27:28.000Z</time>
      </trkpt>
      <trkpt lat="48.84975" lon="2.33841">
        <ele>36.200000762939</ele>
        <time>2015-09-14T18:27:33.000Z</time>
      </trkpt>
      <trkpt lat="48.84956" lon="2.33836">
        <ele>35.799999237061</ele>
        <time>2015-09-14T18:27:42.000Z</time>
      </trkpt>
      <trkpt lat="48.84938" lon="2.33843">
        <ele>36.400001525879</ele>
        <time>2015-09-14T18:27:50.000Z</time>
      </trkpt>
      <trkpt lat="48.84934" lon="2.33817">
        <ele>37.400001525879</ele>
        <time>2015-09-14T18:27:58.000Z</time>
      </trkpt>
      <trkpt lat="48.84935" lon="2.33788">
        <ele>38</ele>
        <time>2015-09-14T18:28:03.000Z</time>
      </trkpt>
      <trkpt lat="48.84937" lon="2.33756">
        <ele>38.400001525879</ele>
        <time>2015-09-14T18:28:08.000Z</time>
      </trkpt>
      <trkpt lat="48.84936" lon="2.33727">
        <ele>38.400001525879</ele>
        <time>2015-09-14T18:28:12.000Z</time>
      </trkpt>
      <trkpt lat="48.84932" lon="2.33693">
        <ele>38.599998474121</ele>
        <time>2015-09-14T18:28:17.000Z</time>
      </trkpt>
      <trkpt lat="48.84932" lon="2.33662">
        <ele>39</ele>
        <time>2015-09-14T18:28:22.000Z</time>
      </trkpt>
      <trkpt lat="48.8493" lon="2.33633">
        <ele>39.200000762939</ele>
        <time>2015-09-14T18:28:27.000Z</time>
      </trkpt>
      <trkpt lat="48.84928" lon="2.33605">
        <ele>39.599998474121</ele>
        <time>2015-09-14T18:28:32.000Z</time>
      </trkpt>
      <trkpt lat="48.84934" lon="2.33597">
        <ele>39.799999237061</ele>
        <time>2015-09-14T18:28:35.000Z</time>
      </trkpt>
      <trkpt lat="48.84947" lon="2.33594">
        <ele>39.599998474121</ele>
        <time>2015-09-14T18:28:39.000Z</time>
      </trkpt>
      <trkpt lat="48.84968" lon="2.33592">
        <ele>39</ele>
        <time>2015-09-14T18:28:44.000Z</time>
      </trkpt>
      <trkpt lat="48.84988" lon="2.3359">
        <ele>37.400001525879</ele>
        <time>2015-09-14T18:28:48.000Z</time>
      </trkpt>
      <trkpt lat="48.85008" lon="2.33586">
        <ele>36.400001525879</ele>
        <time>2015-09-14T18:28:52.000Z</time>
      </trkpt>
      <trkpt lat="48.85029" lon="2.33576">
        <ele>36.200000762939</ele>
        <time>2015-09-14T18:28:56.000Z</time>
      </trkpt>
      <trkpt lat="48.85047" lon="2.33567">
        <ele>36</ele>
        <time>2015-09-14T18:29:00.000Z</time>
      </trkpt>
      <trkpt lat="48.85055" lon="2.33565">
        <ele>36</ele>
        <time>2015-09-14T18:29:02.000Z</time>
      </trkpt>
      <trkpt lat="48.85076" lon="2.33574">
        <ele>40</ele>
        <time>2015-09-14T18:29:06.000Z</time>
      </trkpt>
      <trkpt lat="48.85096" lon="2.33568">
        <ele>41.799999237061</ele>
        <time>2015-09-14T18:29:09.000Z</time>
      </trkpt>
      <trkpt lat="48.85101" lon="2.33566">
        <ele>42</ele>
        <time>2015-09-14T18:29:10.000Z</time>
      </trkpt>
      <trkpt lat="48.85112" lon="2.33557">
        <ele>40.799999237061</ele>
        <time>2015-09-14T18:29:13.000Z</time>
      </trkpt>
      <trkpt lat="48.85115" lon="2.33534">
        <ele>39.799999237061</ele>
        <time>2015-09-14T18:29:17.000Z</time>
      </trkpt>
      <trkpt lat="48.85112" lon="2.33506">
        <ele>39</ele>
        <time>2015-09-14T18:29:21.000Z</time>
      </trkpt>
      <trkpt lat="48.8511" lon="2.33472">
        <ele>38.200000762939</ele>
        <time>2015-09-14T18:29:25.000Z</time>
      </trkpt>
      <trkpt lat="48.85112" lon="2.33441">
        <ele>37</ele>
        <time>2015-09-14T18:29:28.000Z</time>
      </trkpt>
      <trkpt lat="48.85112" lon="2.33408">
        <ele>36.200000762939</ele>
        <time>2015-09-14T18:29:32.000Z</time>
      </trkpt>
      <trkpt lat="48.85115" lon="2.33386">
        <ele>37.200000762939</ele>
        <time>2015-09-14T18:29:35.000Z</time>
      </trkpt>
      <trkpt lat="48.85115" lon="2.33373">
        <ele>37.200000762939</ele>
        <time>2015-09-14T18:29:37.000Z</time>
      </trkpt>
      <trkpt lat="48.85117" lon="2.33351">
        <ele>38</ele>
        <time>2015-09-14T18:29:40.000Z</time>
      </trkpt>
      <trkpt lat="48.85115" lon="2.33319">
        <ele>38.200000762939</ele>
        <time>2015-09-14T18:29:45.000Z</time>
      </trkpt>
      <trkpt lat="48.85111" lon="2.33297">
        <ele>38</ele>
        <time>2015-09-14T18:29:49.000Z</time>
      </trkpt>
      <trkpt lat="48.85099" lon="2.33285">
        <ele>38.400001525879</ele>
        <time>2015-09-14T18:29:53.000Z</time>
      </trkpt>
      <trkpt lat="48.85094" lon="2.33284">
        <ele>38.400001525879</ele>
        <time>2015-09-14T18:29:54.000Z</time>
      </trkpt>
      <trkpt lat="48.85076" lon="2.33281">
        <ele>39</ele>
        <time>2015-09-14T18:29:58.000Z</time>
      </trkpt>
      <trkpt lat="48.85072" lon="2.3328">
        <ele>38.400001525879</ele>
        <time>2015-09-14T18:29:59.000Z</time>
      </trkpt>
      <trkpt lat="48.85053" lon="2.33277">
        <ele>37.400001525879</ele>
        <time>2015-09-14T18:30:03.000Z</time>
      </trkpt>
      <trkpt lat="48.85033" lon="2.33273">
        <ele>35.599998474121</ele>
        <time>2015-09-14T18:30:07.000Z</time>
      </trkpt>
      <trkpt lat="48.85022" lon="2.33251">
        <ele>34.799999237061</ele>
        <time>2015-09-14T18:30:11.000Z</time>
      </trkpt>
      <trkpt lat="48.8502" lon="2.33234">
        <ele>34.200000762939</ele>
        <time>2015-09-14T18:30:14.000Z</time>
      </trkpt>
      <trkpt lat="48.85018" lon="2.33203">
        <ele>33</ele>
        <time>2015-09-14T18:30:19.000Z</time>
      </trkpt>
      <trkpt lat="48.85019" lon="2.33173">
        <ele>32.200000762939</ele>
        <time>2015-09-14T18:30:24.000Z</time>
      </trkpt>
      <trkpt lat="48.8502" lon="2.33161">
        <ele>31.799999237061</ele>
        <time>2015-09-14T18:30:26.000Z</time>
      </trkpt>
      <trkpt lat="48.85018" lon="2.3314">
        <ele>31.39999961853</ele>
        <time>2015-09-14T18:30:29.000Z</time>
      </trkpt>
      <trkpt lat="48.85016" lon="2.33107">
        <ele>32.200000762939</ele>
        <time>2015-09-14T18:30:34.000Z</time>
      </trkpt>
      <trkpt lat="48.85017" lon="2.3309">
        <ele>32.599998474121</ele>
        <time>2015-09-14T18:30:37.000Z</time>
      </trkpt>
      <trkpt lat="48.85017" lon="2.3306">
        <ele>33</ele>
        <time>2015-09-14T18:30:43.000Z</time>
      </trkpt>
      <trkpt lat="48.85019" lon="2.33029">
        <ele>33.200000762939</ele>
        <time>2015-09-14T18:30:49.000Z</time>
      </trkpt>
      <trkpt lat="48.85018" lon="2.33016">
        <ele>33.599998474121</ele>
        <time>2015-09-14T18:30:53.000Z</time>
      </trkpt>
      <trkpt lat="48.85016" lon="2.3301">
        <ele>34.200000762939</ele>
        <time>2015-09-14T18:30:55.000Z</time>
      </trkpt>
      <trkpt lat="48.85006" lon="2.32987">
        <ele>34.799999237061</ele>
        <time>2015-09-14T18:31:00.000Z</time>
      </trkpt>
      <trkpt lat="48.84988" lon="2.3297">
        <ele>35.400001525879</ele>
        <time>2015-09-14T18:31:05.000Z</time>
      </trkpt>
      <trkpt lat="48.84971" lon="2.3296">
        <ele>35</ele>
        <time>2015-09-14T18:31:09.000Z</time>
      </trkpt>
      <trkpt lat="48.84954" lon="2.32949">
        <ele>35.200000762939</ele>
        <time>2015-09-14T18:31:13.000Z</time>
      </trkpt>
      <trkpt lat="48.84936" lon="2.32937">
        <ele>34.599998474121</ele>
        <time>2015-09-14T18:31:17.000Z</time>
      </trkpt>
      <trkpt lat="48.84917" lon="2.3292">
        <ele>35</ele>
        <time>2015-09-14T18:31:22.000Z</time>
      </trkpt>
      <trkpt lat="48.84902" lon="2.32904">
        <ele>36</ele>
        <time>2015-09-14T18:31:27.000Z</time>
      </trkpt>
      <trkpt lat="48.84887" lon="2.32887">
        <ele>38.599998474121</ele>
        <time>2015-09-14T18:31:32.000Z</time>
      </trkpt>
      <trkpt lat="48.84881" lon="2.3288">
        <ele>39.200000762939</ele>
        <time>2015-09-14T18:31:34.000Z</time>
      </trkpt>
      <trkpt lat="48.84863" lon="2.32864">
        <ele>38.200000762939</ele>
        <time>2015-09-14T18:31:40.000Z</time>
      </trkpt>
      <trkpt lat="48.84845" lon="2.32853">
        <ele>37.599998474121</ele>
        <time>2015-09-14T18:31:45.000Z</time>
      </trkpt>
      <trkpt lat="48.8483" lon="2.32834">
        <ele>39</ele>
        <time>2015-09-14T18:31:51.000Z</time>
      </trkpt>
      <trkpt lat="48.84822" lon="2.32812">
        <ele>41.599998474121</ele>
        <time>2015-09-14T18:32:00.000Z</time>
      </trkpt>
      <trkpt lat="48.84807" lon="2.32792">
        <ele>43.599998474121</ele>
        <time>2015-09-14T18:32:14.000Z</time>
      </trkpt>
      <trkpt lat="48.84789" lon="2.32779">
        <ele>44.400001525879</ele>
        <time>2015-09-14T18:32:19.000Z</time>
      </trkpt>
      <trkpt lat="48.84771" lon="2.32765">
        <ele>45</ele>
        <time>2015-09-14T18:32:23.000Z</time>
      </trkpt>
      <trkpt lat="48.84752" lon="2.32752">
        <ele>44.799999237061</ele>
        <time>2015-09-14T18:32:27.000Z</time>
      </trkpt>
      <trkpt lat="48.84735" lon="2.32733">
        <ele>45.799999237061</ele>
        <time>2015-09-14T18:32:31.000Z</time>
      </trkpt>
      <trkpt lat="48.8472" lon="2.32721">
        <ele>46.400001525879</ele>
        <time>2015-09-14T18:32:34.000Z</time>
      </trkpt>
      <trkpt lat="48.84702" lon="2.32707">
        <ele>45.400001525879</ele>
        <time>2015-09-14T18:32:38.000Z</time>
      </trkpt>
      <trkpt lat="48.84694" lon="2.32698">
        <ele>46</ele>
        <time>2015-09-14T18:32:40.000Z</time>
      </trkpt>
      <trkpt lat="48.84678" lon="2.32684">
        <ele>46</ele>
        <time>2015-09-14T18:32:44.000Z</time>
      </trkpt>
      <trkpt lat="48.84661" lon="2.32668">
        <ele>47</ele>
        <time>2015-09-14T18:32:48.000Z</time>
      </trkpt>
      <trkpt lat="48.84643" lon="2.32654">
        <ele>47.599998474121</ele>
        <time>2015-09-14T18:32:52.000Z</time>
      </trkpt>
      <trkpt lat="48.84627" lon="2.32639">
        <ele>49.599998474121</ele>
        <time>2015-09-14T18:32:56.000Z</time>
      </trkpt>
      <trkpt lat="48.84607" lon="2.32623">
        <ele>50.599998474121</ele>
        <time>2015-09-14T18:33:01.000Z</time>
      </trkpt>
      <trkpt lat="48.84592" lon="2.32608">
        <ele>50.799999237061</ele>
        <time>2015-09-14T18:33:05.000Z</time>
      </trkpt>
      <trkpt lat="48.84577" lon="2.32595">
        <ele>51.400001525879</ele>
        <time>2015-09-14T18:33:09.000Z</time>
      </trkpt>
      <trkpt lat="48.84563" lon="2.32575">
        <ele>53</ele>
        <time>2015-09-14T18:33:14.000Z</time>
      </trkpt>
      <trkpt lat="48.84548" lon="2.32554">
        <ele>58</ele>
        <time>2015-09-14T18:33:19.000Z</time>
      </trkpt>
      <trkpt lat="48.8453" lon="2.32536">
        <ele>62</ele>
        <time>2015-09-14T18:33:24.000Z</time>
      </trkpt>
      <trkpt lat="48.84526" lon="2.32533">
        <ele>62.400001525879</ele>
        <time>2015-09-14T18:33:25.000Z</time>
      </trkpt>
      <trkpt lat="48.8452" lon="2.32524">
        <ele>64.199996948242</ele>
        <time>2015-09-14T18:33:27.000Z</time>
      </trkpt>
      <trkpt lat="48.84512" lon="2.32516">
        <ele>66</ele>
        <time>2015-09-14T18:33:29.000Z</time>
      </trkpt>
      <trkpt lat="48.84496" lon="2.32498">
        <ele>67.599998474121</ele>
        <time>2015-09-14T18:33:34.000Z</time>
      </trkpt>
      <trkpt lat="48.84481" lon="2.32479">
        <ele>67.800003051758</ele>
        <time>2015-09-14T18:33:39.000Z</time>
      </trkpt>
      <trkpt lat="48.84472" lon="2.32469">
        <ele>68.599998474121</ele>
        <time>2015-09-14T18:33:42.000Z</time>
      </trkpt>
      <trkpt lat="48.84469" lon="2.32464">
        <ele>70.800003051758</ele>
        <time>2015-09-14T18:33:50.000Z</time>
      </trkpt>
      <trkpt lat="48.84476" lon="2.32458">
        <ele>72.400001525879</ele>
        <time>2015-09-14T18:33:52.000Z</time>
      </trkpt>
      <trkpt lat="48.84492" lon="2.32444">
        <ele>74.199996948242</ele>
        <time>2015-09-14T18:33:59.000Z</time>
      </trkpt>
      <trkpt lat="48.84509" lon="2.32431">
        <ele>74.800003051758</ele>
        <time>2015-09-14T18:34:05.000Z</time>
      </trkpt>
      <trkpt lat="48.84529" lon="2.32414">
        <ele>74.599998474121</ele>
        <time>2015-09-14T18:34:10.000Z</time>
      </trkpt>
      <trkpt lat="48.84541" lon="2.32383">
        <ele>72.599998474121</ele>
        <time>2015-09-14T18:34:13.000Z</time>
      </trkpt>
      <trkpt lat="48.84563" lon="2.3237">
        <ele>71</ele>
        <time>2015-09-14T18:34:17.000Z</time>
      </trkpt>
      <trkpt lat="48.84582" lon="2.32359">
        <ele>69.800003051758</ele>
        <time>2015-09-14T18:34:21.000Z</time>
      </trkpt>
      <trkpt lat="48.84594" lon="2.32359">
        <ele>69</ele>
        <time>2015-09-14T18:34:29.000Z</time>
      </trkpt>
      <trkpt lat="48.84605" lon="2.32377">
        <ele>70.800003051758</ele>
        <time>2015-09-14T18:34:45.000Z</time>
      </trkpt>
      <trkpt lat="48.8461" lon="2.32407">
        <ele>70</ele>
        <time>2015-09-14T18:34:51.000Z</time>
      </trkpt>
      <trkpt lat="48.84619" lon="2.32437">
        <ele>68.199996948242</ele>
        <time>2015-09-14T18:34:56.000Z</time>
      </trkpt>
      <trkpt lat="48.84627" lon="2.32464">
        <ele>66.599998474121</ele>
        <time>2015-09-14T18:35:00.000Z</time>
      </trkpt>
      <trkpt lat="48.84634" lon="2.32493">
        <ele>65.199996948242</ele>
        <time>2015-09-14T18:35:04.000Z</time>
      </trkpt>
      <trkpt lat="48.84644" lon="2.32521">
        <ele>63.200000762939</ele>
        <time>2015-09-14T18:35:08.000Z</time>
      </trkpt>
      <trkpt lat="48.84657" lon="2.32548">
        <ele>62.599998474121</ele>
        <time>2015-09-14T18:35:12.000Z</time>
      </trkpt>
      <trkpt lat="48.8467" lon="2.32576">
        <ele>61.200000762939</ele>
        <time>2015-09-14T18:35:16.000Z</time>
      </trkpt>
      <trkpt lat="48.84677" lon="2.32594">
        <ele>60</ele>
        <time>2015-09-14T18:35:19.000Z</time>
      </trkpt>
      <trkpt lat="48.84689" lon="2.32604">
        <ele>57.200000762939</ele>
        <time>2015-09-14T18:35:26.000Z</time>
      </trkpt>
      <trkpt lat="48.84699" lon="2.32596">
        <ele>57</ele>
        <time>2015-09-14T18:35:28.000Z</time>
      </trkpt>
      <trkpt lat="48.84718" lon="2.32577">
        <ele>57.200000762939</ele>
        <time>2015-09-14T18:35:32.000Z</time>
      </trkpt>
      <trkpt lat="48.84735" lon="2.32558">
        <ele>57.599998474121</ele>
        <time>2015-09-14T18:35:36.000Z</time>
      </trkpt>
      <trkpt lat="48.84749" lon="2.32538">
        <ele>57</ele>
        <time>2015-09-14T18:35:40.000Z</time>
      </trkpt>
      <trkpt lat="48.84756" lon="2.32529">
        <ele>56.200000762939</ele>
        <time>2015-09-14T18:35:42.000Z</time>
      </trkpt>
      <trkpt lat="48.84762" lon="2.32521">
        <ele>55.799999237061</ele>
        <time>2015-09-14T18:35:44.000Z</time>
      </trkpt>
      <trkpt lat="48.84771" lon="2.32516">
        <ele>55.200000762939</ele>
        <time>2015-09-14T18:35:46.000Z</time>
      </trkpt>
      <trkpt lat="48.8479" lon="2.325">
        <ele>55.400001525879</ele>
        <time>2015-09-14T18:35:50.000Z</time>
      </trkpt>
      <trkpt lat="48.8481" lon="2.3249">
        <ele>54.400001525879</ele>
        <time>2015-09-14T18:35:54.000Z</time>
      </trkpt>
      <trkpt lat="48.84829" lon="2.32474">
        <ele>53.799999237061</ele>
        <time>2015-09-14T18:35:59.000Z</time>
      </trkpt>
      <trkpt lat="48.84834" lon="2.32466">
        <ele>53.599998474121</ele>
        <time>2015-09-14T18:36:01.000Z</time>
      </trkpt>
      <trkpt lat="48.84839" lon="2.32439">
        <ele>49.799999237061</ele>
        <time>2015-09-14T18:36:07.000Z</time>
      </trkpt>
      <trkpt lat="48.84827" lon="2.32416">
        <ele>49.599998474121</ele>
        <time>2015-09-14T18:36:11.000Z</time>
      </trkpt>
      <trkpt lat="48.84816" lon="2.32392">
        <ele>48.599998474121</ele>
        <time>2015-09-14T18:36:15.000Z</time>
      </trkpt>
      <trkpt lat="48.84811" lon="2.32382">
        <ele>45</ele>
        <time>2015-09-14T18:36:17.000Z</time>
      </trkpt>
      <trkpt lat="48.84798" lon="2.32358">
        <ele>44.799999237061</ele>
        <time>2015-09-14T18:36:21.000Z</time>
      </trkpt>
      <trkpt lat="48.84787" lon="2.32329">
        <ele>44.599998474121</ele>
        <time>2015-09-14T18:36:25.000Z</time>
      </trkpt>
      <trkpt lat="48.84784" lon="2.32322">
        <ele>44.599998474121</ele>
        <time>2015-09-14T18:36:26.000Z</time>
      </trkpt>
      <trkpt lat="48.84772" lon="2.32296">
        <ele>45</ele>
        <time>2015-09-14T18:36:30.000Z</time>
      </trkpt>
      <trkpt lat="48.84758" lon="2.32277">
        <ele>42</ele>
        <time>2015-09-14T18:36:34.000Z</time>
      </trkpt>
      <trkpt lat="48.84747" lon="2.32256">
        <ele>41.400001525879</ele>
        <time>2015-09-14T18:36:38.000Z</time>
      </trkpt>
      <trkpt lat="48.84736" lon="2.32232">
        <ele>40.799999237061</ele>
        <time>2015-09-14T18:36:42.000Z</time>
      </trkpt>
      <trkpt lat="48.84723" lon="2.32209">
        <ele>40.200000762939</ele>
        <time>2015-09-14T18:36:46.000Z</time>
      </trkpt>
      <trkpt lat="48.84717" lon="2.32198">
        <ele>39.799999237061</ele>
        <time>2015-09-14T18:36:48.000Z</time>
      </trkpt>
      <trkpt lat="48.84704" lon="2.32176">
        <ele>39.200000762939</ele>
        <time>2015-09-14T18:36:52.000Z</time>
      </trkpt>
      <trkpt lat="48.84697" lon="2.32165">
        <ele>38.599998474121</ele>
        <time>2015-09-14T18:36:54.000Z</time>
      </trkpt>
      <trkpt lat="48.84686" lon="2.32143">
        <ele>38</ele>
        <time>2015-09-14T18:36:58.000Z</time>
      </trkpt>
      <trkpt lat="48.84675" lon="2.32121">
        <ele>38</ele>
        <time>2015-09-14T18:37:02.000Z</time>
      </trkpt>
      <trkpt lat="48.84673" lon="2.32116">
        <ele>38.200000762939</ele>
        <time>2015-09-14T18:37:03.000Z</time>
      </trkpt>
      <trkpt lat="48.84661" lon="2.32094">
        <ele>38.799999237061</ele>
        <time>2015-09-14T18:37:09.000Z</time>
      </trkpt>
      <trkpt lat="48.84656" lon="2.3207">
        <ele>39.599998474121</ele>
        <time>2015-09-14T18:37:14.000Z</time>
      </trkpt>
      <trkpt lat="48.84657" lon="2.32067">
        <ele>39.400001525879</ele>
        <time>2015-09-14T18:37:15.000Z</time>
      </trkpt>
      <trkpt lat="48.84667" lon="2.32053">
        <ele>39.400001525879</ele>
        <time>2015-09-14T18:37:19.000Z</time>
      </trkpt>
      <trkpt lat="48.84684" lon="2.32036">
        <ele>38.400001525879</ele>
        <time>2015-09-14T18:37:24.000Z</time>
      </trkpt>
      <trkpt lat="48.84689" lon="2.32034">
        <ele>38.200000762939</ele>
        <time>2015-09-14T18:37:25.000Z</time>
      </trkpt>
      <trkpt lat="48.84704" lon="2.32019">
        <ele>38.200000762939</ele>
        <time>2015-09-14T18:37:29.000Z</time>
      </trkpt>
      <trkpt lat="48.84719" lon="2.31999">
        <ele>41.400001525879</ele>
        <time>2015-09-14T18:37:33.000Z</time>
      </trkpt>
      <trkpt lat="48.84735" lon="2.31981">
        <ele>43.799999237061</ele>
        <time>2015-09-14T18:37:37.000Z</time>
      </trkpt>
      <trkpt lat="48.84737" lon="2.31976">
        <ele>44</ele>
        <time>2015-09-14T18:37:38.000Z</time>
      </trkpt>
      <trkpt lat="48.84751" lon="2.31954">
        <ele>45.799999237061</ele>
        <time>2015-09-14T18:37:43.000Z</time>
      </trkpt>
      <trkpt lat="48.8476" lon="2.31939">
        <ele>48</ele>
        <time>2015-09-14T18:37:47.000Z</time>
      </trkpt>
      <trkpt lat="48.84769" lon="2.31936">
        <ele>48.200000762939</ele>
        <time>2015-09-14T18:37:51.000Z</time>
      </trkpt>
      <trkpt lat="48.84773" lon="2.31923">
        <ele>50.200000762939</ele>
        <time>2015-09-14T18:38:27.000Z</time>
      </trkpt>
      <trkpt lat="48.84771" lon="2.31905">
        <ele>49.599998474121</ele>
        <time>2015-09-14T18:38:31.000Z</time>
      </trkpt>
      <trkpt lat="48.84789" lon="2.31889">
        <ele>49</ele>
        <time>2015-09-14T18:38:41.000Z</time>
      </trkpt>
      <trkpt lat="48.84812" lon="2.31885">
        <ele>48.200000762939</ele>
        <time>2015-09-14T18:38:47.000Z</time>
      </trkpt>
      <trkpt lat="48.84829" lon="2.31873">
        <ele>48.200000762939</ele>
        <time>2015-09-14T18:38:50.000Z</time>
      </trkpt>
      <trkpt lat="48.84852" lon="2.3186">
        <ele>48</ele>
        <time>2015-09-14T18:38:53.000Z</time>
      </trkpt>
      <trkpt lat="48.84871" lon="2.31845">
        <ele>47.200000762939</ele>
        <time>2015-09-14T18:38:55.000Z</time>
      </trkpt>
      <trkpt lat="48.84891" lon="2.31834">
        <ele>46.799999237061</ele>
        <time>2015-09-14T18:38:58.000Z</time>
      </trkpt>
      <trkpt lat="48.84911" lon="2.31824">
        <ele>46.200000762939</ele>
        <time>2015-09-14T18:39:01.000Z</time>
      </trkpt>
      <trkpt lat="48.84931" lon="2.31815">
        <ele>45.400001525879</ele>
        <time>2015-09-14T18:39:04.000Z</time>
      </trkpt>
      <trkpt lat="48.84949" lon="2.31805">
        <ele>44.799999237061</ele>
        <time>2015-09-14T18:39:07.000Z</time>
      </trkpt>
      <trkpt lat="48.84971" lon="2.31794">
        <ele>44</ele>
        <time>2015-09-14T18:39:11.000Z</time>
      </trkpt>
      <trkpt lat="48.84986" lon="2.31783">
        <ele>43.200000762939</ele>
        <time>2015-09-14T18:39:14.000Z</time>
      </trkpt>
      <trkpt lat="48.85006" lon="2.31771">
        <ele>42.200000762939</ele>
        <time>2015-09-14T18:39:18.000Z</time>
      </trkpt>
      <trkpt lat="48.85025" lon="2.31785">
        <ele>41</ele>
        <time>2015-09-14T18:39:22.000Z</time>
      </trkpt>
      <trkpt lat="48.85027" lon="2.31795">
        <ele>40.799999237061</ele>
        <time>2015-09-14T18:39:24.000Z</time>
      </trkpt>
      <trkpt lat="48.85029" lon="2.318">
        <ele>41</ele>
        <time>2015-09-14T18:39:25.000Z</time>
      </trkpt>
      <trkpt lat="48.85032" lon="2.31809">
        <ele>41</ele>
        <time>2015-09-14T18:39:27.000Z</time>
      </trkpt>
      <trkpt lat="48.85038" lon="2.3184">
        <ele>41.799999237061</ele>
        <time>2015-09-14T18:39:33.000Z</time>
      </trkpt>
      <trkpt lat="48.85039" lon="2.31843">
        <ele>41.799999237061</ele>
        <time>2015-09-14T18:39:34.000Z</time>
      </trkpt>
      <trkpt lat="48.85038" lon="2.31847">
        <ele>42.200000762939</ele>
        <time>2015-09-14T18:39:37.000Z</time>
      </trkpt>
      <trkpt lat="48.85019" lon="2.31855">
        <ele>42.799999237061</ele>
        <time>2015-09-14T18:39:46.000Z</time>
      </trkpt>
      <trkpt lat="48.85016" lon="2.31858">
        <ele>42.799999237061</ele>
        <time>2015-09-14T18:39:47.000Z</time>
      </trkpt>
      <trkpt lat="48.84997" lon="2.31869">
        <ele>43</ele>
        <time>2015-09-14T18:39:50.000Z</time>
      </trkpt>
      <trkpt lat="48.8498" lon="2.31877">
        <ele>43.400001525879</ele>
        <time>2015-09-14T18:39:53.000Z</time>
      </trkpt>
      <trkpt lat="48.84963" lon="2.31888">
        <ele>42</ele>
        <time>2015-09-14T18:39:56.000Z</time>
      </trkpt>
      <trkpt lat="48.8495" lon="2.31895">
        <ele>41.799999237061</ele>
        <time>2015-09-14T18:40:00.000Z</time>
      </trkpt>
      <trkpt lat="48.84928" lon="2.31902">
        <ele>41.799999237061</ele>
        <time>2015-09-14T18:40:05.000Z</time>
      </trkpt>
      <trkpt lat="48.84923" lon="2.31905">
        <ele>41.599998474121</ele>
        <time>2015-09-14T18:40:06.000Z</time>
      </trkpt>
      <trkpt lat="48.84906" lon="2.31916">
        <ele>40.599998474121</ele>
        <time>2015-09-14T18:40:09.000Z</time>
      </trkpt>
      <trkpt lat="48.84886" lon="2.31929">
        <ele>40.200000762939</ele>
        <time>2015-09-14T18:40:13.000Z</time>
      </trkpt>
      <trkpt lat="48.84868" lon="2.31943">
        <ele>40.400001525879</ele>
        <time>2015-09-14T18:40:17.000Z</time>
      </trkpt>
      <trkpt lat="48.84853" lon="2.31952">
        <ele>41.200000762939</ele>
        <time>2015-09-14T18:40:21.000Z</time>
      </trkpt>
      <trkpt lat="48.84832" lon="2.31961">
        <ele>43.200000762939</ele>
        <time>2015-09-14T18:40:28.000Z</time>
      </trkpt>
      <trkpt lat="48.84832" lon="2.31961">
        <ele>43.200000762939</ele>
        <time>2015-09-14T18:40:29.000Z</time>
      </trkpt>
      <trkpt lat="48.84812" lon="2.31977">
        <ele>58.599998474121</ele>
        <time>2015-09-14T18:41:07.000Z</time>
      </trkpt>
      <trkpt lat="48.84821" lon="2.32001">
        <ele>58.599998474121</ele>
        <time>2015-09-14T18:41:12.000Z</time>
      </trkpt>
      <trkpt lat="48.84823" lon="2.32011">
        <ele>58</ele>
        <time>2015-09-14T18:41:14.000Z</time>
      </trkpt>
      <trkpt lat="48.84814" lon="2.32025">
        <ele>53.599998474121</ele>
        <time>2015-09-14T18:41:18.000Z</time>
      </trkpt>
      <trkpt lat="48.84798" lon="2.32042">
        <ele>49.799999237061</ele>
        <time>2015-09-14T18:41:23.000Z</time>
      </trkpt>
      <trkpt lat="48.8478" lon="2.32061">
        <ele>46.799999237061</ele>
        <time>2015-09-14T18:41:28.000Z</time>
      </trkpt>
      <trkpt lat="48.84763" lon="2.32078">
        <ele>44</ele>
        <time>2015-09-14T18:41:32.000Z</time>
      </trkpt>
      <trkpt lat="48.84749" lon="2.32095">
        <ele>41.599998474121</ele>
        <time>2015-09-14T18:41:36.000Z</time>
      </trkpt>
      <trkpt lat="48.84742" lon="2.32103">
        <ele>40.200000762939</ele>
        <time>2015-09-14T18:41:38.000Z</time>
      </trkpt>
      <trkpt lat="48.84724" lon="2.32118">
        <ele>37</ele>
        <time>2015-09-14T18:41:43.000Z</time>
      </trkpt>
      <trkpt lat="48.84721" lon="2.32121">
        <ele>36.400001525879</ele>
        <time>2015-09-14T18:41:44.000Z</time>
      </trkpt>
      <trkpt lat="48.84705" lon="2.32132">
        <ele>33.799999237061</ele>
        <time>2015-09-14T18:41:49.000Z</time>
      </trkpt>
      <trkpt lat="48.84701" lon="2.32137">
        <ele>31.200000762939</ele>
        <time>2015-09-14T18:41:53.000Z</time>
      </trkpt>
      <trkpt lat="48.84684" lon="2.32128">
        <ele>30.39999961853</ele>
        <time>2015-09-14T18:42:02.000Z</time>
      </trkpt>
      <trkpt lat="48.84679" lon="2.32118">
        <ele>30.39999961853</ele>
        <time>2015-09-14T18:42:04.000Z</time>
      </trkpt>
      <trkpt lat="48.84664" lon="2.32095">
        <ele>30.799999237061</ele>
        <time>2015-09-14T18:42:09.000Z</time>
      </trkpt>
      <trkpt lat="48.84651" lon="2.32075">
        <ele>29.799999237061</ele>
        <time>2015-09-14T18:42:13.000Z</time>
      </trkpt>
      <trkpt lat="48.84637" lon="2.32055">
        <ele>30.60000038147</ele>
        <time>2015-09-14T18:42:17.000Z</time>
      </trkpt>
      <trkpt lat="48.84624" lon="2.32034">
        <ele>31.39999961853</ele>
        <time>2015-09-14T18:42:21.000Z</time>
      </trkpt>
      <trkpt lat="48.8461" lon="2.32012">
        <ele>31.60000038147</ele>
        <time>2015-09-14T18:42:25.000Z</time>
      </trkpt>
      <trkpt lat="48.84596" lon="2.31988">
        <ele>31.200000762939</ele>
        <time>2015-09-14T18:42:29.000Z</time>
      </trkpt>
      <trkpt lat="48.84581" lon="2.31968">
        <ele>31</ele>
        <time>2015-09-14T18:42:33.000Z</time>
      </trkpt>
      <trkpt lat="48.84568" lon="2.31953">
        <ele>30.60000038147</ele>
        <time>2015-09-14T18:42:37.000Z</time>
      </trkpt>
      <trkpt lat="48.84564" lon="2.31943">
        <ele>30.799999237061</ele>
        <time>2015-09-14T18:42:40.000Z</time>
      </trkpt>
      <trkpt lat="48.84565" lon="2.31916">
        <ele>37.200000762939</ele>
        <time>2015-09-14T18:43:03.000Z</time>
      </trkpt>
      <trkpt lat="48.84575" lon="2.31891">
        <ele>38.599998474121</ele>
        <time>2015-09-14T18:43:08.000Z</time>
      </trkpt>
      <trkpt lat="48.84587" lon="2.31867">
        <ele>39.599998474121</ele>
        <time>2015-09-14T18:43:12.000Z</time>
      </trkpt>
      <trkpt lat="48.846" lon="2.31843">
        <ele>40.200000762939</ele>
        <time>2015-09-14T18:43:16.000Z</time>
      </trkpt>
      <trkpt lat="48.84613" lon="2.31816">
        <ele>41</ele>
        <time>2015-09-14T18:43:20.000Z</time>
      </trkpt>
      <trkpt lat="48.84624" lon="2.31788">
        <ele>42.599998474121</ele>
        <time>2015-09-14T18:43:24.000Z</time>
      </trkpt>
      <trkpt lat="48.84637" lon="2.31762">
        <ele>43.400001525879</ele>
        <time>2015-09-14T18:43:28.000Z</time>
      </trkpt>
      <trkpt lat="48.8465" lon="2.31735">
        <ele>44.799999237061</ele>
        <time>2015-09-14T18:43:32.000Z</time>
      </trkpt>
      <trkpt lat="48.84661" lon="2.31715">
        <ele>45.400001525879</ele>
        <time>2015-09-14T18:43:35.000Z</time>
      </trkpt>
      <trkpt lat="48.84669" lon="2.31703">
        <ele>46.400001525879</ele>
        <time>2015-09-14T18:43:37.000Z</time>
      </trkpt>
      <trkpt lat="48.8468" lon="2.3169">
        <ele>47.799999237061</ele>
        <time>2015-09-14T18:43:40.000Z</time>
      </trkpt>
      <trkpt lat="48.84686" lon="2.3166">
        <ele>49.200000762939</ele>
        <time>2015-09-14T18:43:45.000Z</time>
      </trkpt>
      <trkpt lat="48.84677" lon="2.31639">
        <ele>49.400001525879</ele>
        <time>2015-09-14T18:43:49.000Z</time>
      </trkpt>
      <trkpt lat="48.84676" lon="2.31634">
        <ele>49.400001525879</ele>
        <time>2015-09-14T18:43:50.000Z</time>
      </trkpt>
      <trkpt lat="48.84673" lon="2.31623">
        <ele>49.400001525879</ele>
        <time>2015-09-14T18:43:52.000Z</time>
      </trkpt>
      <trkpt lat="48.84666" lon="2.31604">
        <ele>47.799999237061</ele>
        <time>2015-09-14T18:43:55.000Z</time>
      </trkpt>
      <trkpt lat="48.84656" lon="2.31575">
        <ele>46.200000762939</ele>
        <time>2015-09-14T18:43:59.000Z</time>
      </trkpt>
      <trkpt lat="48.84648" lon="2.31554">
        <ele>46</ele>
        <time>2015-09-14T18:44:02.000Z</time>
      </trkpt>
      <trkpt lat="48.84643" lon="2.3154">
        <ele>45.599998474121</ele>
        <time>2015-09-14T18:44:04.000Z</time>
      </trkpt>
      <trkpt lat="48.84631" lon="2.31514">
        <ele>44.599998474121</ele>
        <time>2015-09-14T18:44:08.000Z</time>
      </trkpt>
      <trkpt lat="48.84624" lon="2.31492">
        <ele>44.799999237061</ele>
        <time>2015-09-14T18:44:11.000Z</time>
      </trkpt>
      <trkpt lat="48.84613" lon="2.3146">
        <ele>45</ele>
        <time>2015-09-14T18:44:15.000Z</time>
      </trkpt>
      <trkpt lat="48.84604" lon="2.31427">
        <ele>44.200000762939</ele>
        <time>2015-09-14T18:44:19.000Z</time>
      </trkpt>
      <trkpt lat="48.84596" lon="2.31396">
        <ele>41.799999237061</ele>
        <time>2015-09-14T18:44:23.000Z</time>
      </trkpt>
      <trkpt lat="48.84589" lon="2.31368">
        <ele>40.599998474121</ele>
        <time>2015-09-14T18:44:27.000Z</time>
      </trkpt>
      <trkpt lat="48.84583" lon="2.31339">
        <ele>40</ele>
        <time>2015-09-14T18:44:31.000Z</time>
      </trkpt>
      <trkpt lat="48.84579" lon="2.31324">
        <ele>39.200000762939</ele>
        <time>2015-09-14T18:44:33.000Z</time>
      </trkpt>
      <trkpt lat="48.84572" lon="2.31297">
        <ele>38.799999237061</ele>
        <time>2015-09-14T18:44:37.000Z</time>
      </trkpt>
      <trkpt lat="48.84564" lon="2.3127">
        <ele>38.599998474121</ele>
        <time>2015-09-14T18:44:41.000Z</time>
      </trkpt>
      <trkpt lat="48.84557" lon="2.31243">
        <ele>38.799999237061</ele>
        <time>2015-09-14T18:44:45.000Z</time>
      </trkpt>
      <trkpt lat="48.8455" lon="2.31234">
        <ele>39.200000762939</ele>
        <time>2015-09-14T18:44:47.000Z</time>
      </trkpt>
      <trkpt lat="48.84543" lon="2.31219">
        <ele>40.200000762939</ele>
        <time>2015-09-14T18:44:50.000Z</time>
      </trkpt>
      <trkpt lat="48.84532" lon="2.31205">
        <ele>40.799999237061</ele>
        <time>2015-09-14T18:44:54.000Z</time>
      </trkpt>
      <trkpt lat="48.84527" lon="2.3119">
        <ele>41.599998474121</ele>
        <time>2015-09-14T18:44:58.000Z</time>
      </trkpt>
      <trkpt lat="48.84526" lon="2.31181">
        <ele>42.599998474121</ele>
        <time>2015-09-14T18:45:00.000Z</time>
      </trkpt>
      <trkpt lat="48.84523" lon="2.31167">
        <ele>42.599998474121</ele>
        <time>2015-09-14T18:45:03.000Z</time>
      </trkpt>
      <trkpt lat="48.84522" lon="2.31157">
        <ele>43</ele>
        <time>2015-09-14T18:45:05.000Z</time>
      </trkpt>
      <trkpt lat="48.84522" lon="2.31146">
        <ele>43.200000762939</ele>
        <time>2015-09-14T18:45:07.000Z</time>
      </trkpt>
      <trkpt lat="48.84525" lon="2.31122">
        <ele>43.400001525879</ele>
        <time>2015-09-14T18:45:12.000Z</time>
      </trkpt>
      <trkpt lat="48.84526" lon="2.31114">
        <ele>43.400001525879</ele>
        <time>2015-09-14T18:45:14.000Z</time>
      </trkpt>
      <trkpt lat="48.84527" lon="2.3111">
        <ele>43.599998474121</ele>
        <time>2015-09-14T18:45:16.000Z</time>
      </trkpt>
      <trkpt lat="48.84521" lon="2.31088">
        <ele>45.200000762939</ele>
        <time>2015-09-14T18:45:41.000Z</time>
      </trkpt>
      <trkpt lat="48.8451" lon="2.31066">
        <ele>43.200000762939</ele>
        <time>2015-09-14T18:45:52.000Z</time>
      </trkpt>
      <trkpt lat="48.845" lon="2.31051">
        <ele>41.799999237061</ele>
        <time>2015-09-14T18:45:57.000Z</time>
      </trkpt>
      <trkpt lat="48.84489" lon="2.31024">
        <ele>41</ele>
        <time>2015-09-14T18:46:02.000Z</time>
      </trkpt>
      <trkpt lat="48.84477" lon="2.30997">
        <ele>40.400001525879</ele>
        <time>2015-09-14T18:46:07.000Z</time>
      </trkpt>
      <trkpt lat="48.84468" lon="2.30971">
        <ele>38.200000762939</ele>
        <time>2015-09-14T18:46:12.000Z</time>
      </trkpt>
      <trkpt lat="48.8446" lon="2.30941">
        <ele>37</ele>
        <time>2015-09-14T18:46:18.000Z</time>
      </trkpt>
      <trkpt lat="48.8445" lon="2.30913">
        <ele>34.200000762939</ele>
        <time>2015-09-14T18:46:24.000Z</time>
      </trkpt>
      <trkpt lat="48.84442" lon="2.30884">
        <ele>33.400001525879</ele>
        <time>2015-09-14T18:46:29.000Z</time>
      </trkpt>
      <trkpt lat="48.84426" lon="2.30872">
        <ele>36.200000762939</ele>
        <time>2015-09-14T18:46:35.000Z</time>
      </trkpt>
      <trkpt lat="48.84408" lon="2.30864">
        <ele>36.599998474121</ele>
        <time>2015-09-14T18:46:40.000Z</time>
      </trkpt>
      <trkpt lat="48.84393" lon="2.30846">
        <ele>36.799999237061</ele>
        <time>2015-09-14T18:46:44.000Z</time>
      </trkpt>
      <trkpt lat="48.84384" lon="2.30819">
        <ele>37.200000762939</ele>
        <time>2015-09-14T18:46:49.000Z</time>
      </trkpt>
      <trkpt lat="48.84376" lon="2.30794">
        <ele>36.599998474121</ele>
        <time>2015-09-14T18:46:54.000Z</time>
      </trkpt>
      <trkpt lat="48.84373" lon="2.30784">
        <ele>36.400001525879</ele>
        <time>2015-09-14T18:46:56.000Z</time>
      </trkpt>
      <trkpt lat="48.84368" lon="2.30755">
        <ele>33.599998474121</ele>
        <time>2015-09-14T18:47:01.000Z</time>
      </trkpt>
      <trkpt lat="48.84356" lon="2.30733">
        <ele>30.799999237061</ele>
        <time>2015-09-14T18:47:05.000Z</time>
      </trkpt>
      <trkpt lat="48.84343" lon="2.3071">
        <ele>29.39999961853</ele>
        <time>2015-09-14T18:47:09.000Z</time>
      </trkpt>
      <trkpt lat="48.84332" lon="2.30688">
        <ele>28.39999961853</ele>
        <time>2015-09-14T18:47:13.000Z</time>
      </trkpt>
      <trkpt lat="48.8433" lon="2.30683">
        <ele>28.200000762939</ele>
        <time>2015-09-14T18:47:14.000Z</time>
      </trkpt>
      <trkpt lat="48.84321" lon="2.30661">
        <ele>27.200000762939</ele>
        <time>2015-09-14T18:47:18.000Z</time>
      </trkpt>
      <trkpt lat="48.8431" lon="2.30639">
        <ele>28.799999237061</ele>
        <time>2015-09-14T18:47:22.000Z</time>
      </trkpt>
      <trkpt lat="48.84301" lon="2.30615">
        <ele>31.39999961853</ele>
        <time>2015-09-14T18:47:26.000Z</time>
      </trkpt>
      <trkpt lat="48.84286" lon="2.30589">
        <ele>34.400001525879</ele>
        <time>2015-09-14T18:47:31.000Z</time>
      </trkpt>
      <trkpt lat="48.84273" lon="2.30584">
        <ele>36</ele>
        <time>2015-09-14T18:47:33.000Z</time>
      </trkpt>
      <trkpt lat="48.84258" lon="2.30558">
        <ele>39.599998474121</ele>
        <time>2015-09-14T18:47:38.000Z</time>
      </trkpt>
      <trkpt lat="48.84251" lon="2.30533">
        <ele>41.799999237061</ele>
        <time>2015-09-14T18:47:42.000Z</time>
      </trkpt>
      <trkpt lat="48.84243" lon="2.30501">
        <ele>42</ele>
        <time>2015-09-14T18:47:47.000Z</time>
      </trkpt>
      <trkpt lat="48.84233" lon="2.30474">
        <ele>43</ele>
        <time>2015-09-14T18:47:51.000Z</time>
      </trkpt>
      <trkpt lat="48.84224" lon="2.30447">
        <ele>44.200000762939</ele>
        <time>2015-09-14T18:47:55.000Z</time>
      </trkpt>
      <trkpt lat="48.84213" lon="2.30419">
        <ele>45.200000762939</ele>
        <time>2015-09-14T18:47:59.000Z</time>
      </trkpt>
      <trkpt lat="48.84202" lon="2.3039">
        <ele>44.200000762939</ele>
        <time>2015-09-14T18:48:03.000Z</time>
      </trkpt>
      <trkpt lat="48.84191" lon="2.30363">
        <ele>44.799999237061</ele>
        <time>2015-09-14T18:48:07.000Z</time>
      </trkpt>
      <trkpt lat="48.84184" lon="2.30332">
        <ele>45.799999237061</ele>
        <time>2015-09-14T18:48:12.000Z</time>
      </trkpt>
      <trkpt lat="48.8418" lon="2.30315">
        <ele>46</ele>
        <time>2015-09-14T18:48:15.000Z</time>
      </trkpt>
      <trkpt lat="48.84177" lon="2.30304">
        <ele>45.799999237061</ele>
        <time>2015-09-14T18:48:17.000Z</time>
      </trkpt>
      <trkpt lat="48.84166" lon="2.30276">
        <ele>46</ele>
        <time>2015-09-14T18:48:22.000Z</time>
      </trkpt>
      <trkpt lat="48.84157" lon="2.30252">
        <ele>45</ele>
        <time>2015-09-14T18:48:26.000Z</time>
      </trkpt>
      <trkpt lat="48.84147" lon="2.30223">
        <ele>45.200000762939</ele>
        <time>2015-09-14T18:48:31.000Z</time>
      </trkpt>
      <trkpt lat="48.84138" lon="2.30198">
        <ele>43.799999237061</ele>
        <time>2015-09-14T18:48:35.000Z</time>
      </trkpt>
      <trkpt lat="48.84132" lon="2.3018">
        <ele>43.200000762939</ele>
        <time>2015-09-14T18:48:38.000Z</time>
      </trkpt>
      <trkpt lat="48.84119" lon="2.30158">
        <ele>42.200000762939</ele>
        <time>2015-09-14T18:48:42.000Z</time>
      </trkpt>
      <trkpt lat="48.84106" lon="2.30135">
        <ele>41</ele>
        <time>2015-09-14T18:48:46.000Z</time>
      </trkpt>
      <trkpt lat="48.84098" lon="2.30108">
        <ele>39.400001525879</ele>
        <time>2015-09-14T18:48:50.000Z</time>
      </trkpt>
      <trkpt lat="48.84088" lon="2.30083">
        <ele>38.799999237061</ele>
        <time>2015-09-14T18:48:54.000Z</time>
      </trkpt>
      <trkpt lat="48.84081" lon="2.30058">
        <ele>37.400001525879</ele>
        <time>2015-09-14T18:48:58.000Z</time>
      </trkpt>
      <trkpt lat="48.84073" lon="2.30031">
        <ele>36</ele>
        <time>2015-09-14T18:49:03.000Z</time>
      </trkpt>
      <trkpt lat="48.84067" lon="2.30009">
        <ele>37.200000762939</ele>
        <time>2015-09-14T18:49:07.000Z</time>
      </trkpt>
      <trkpt lat="48.84061" lon="2.29981">
        <ele>38.400001525879</ele>
        <time>2015-09-14T18:49:12.000Z</time>
      </trkpt>
      <trkpt lat="48.84056" lon="2.29966">
        <ele>38</ele>
        <time>2015-09-14T18:49:15.000Z</time>
      </trkpt>
      <trkpt lat="48.8405" lon="2.29957">
        <ele>36.200000762939</ele>
        <time>2015-09-14T18:49:20.000Z</time>
      </trkpt>
      <trkpt lat="48.84051" lon="2.29956">
        <ele>36.200000762939</ele>
        <time>2015-09-14T18:49:21.000Z</time>
      </trkpt>
      <trkpt lat="48.84046" lon="2.29943">
        <ele>39.200000762939</ele>
        <time>2015-09-14T18:49:28.000Z</time>
      </trkpt>
      <trkpt lat="48.8404" lon="2.29912">
        <ele>40</ele>
        <time>2015-09-14T18:49:35.000Z</time>
      </trkpt>
      <trkpt lat="48.84035" lon="2.29884">
        <ele>41.200000762939</ele>
        <time>2015-09-14T18:49:40.000Z</time>
      </trkpt>
      <trkpt lat="48.84032" lon="2.29851">
        <ele>40.200000762939</ele>
        <time>2015-09-14T18:49:45.000Z</time>
      </trkpt>
      <trkpt lat="48.84026" lon="2.29824">
        <ele>40.200000762939</ele>
        <time>2015-09-14T18:49:49.000Z</time>
      </trkpt>
      <trkpt lat="48.84015" lon="2.29797">
        <ele>39.799999237061</ele>
        <time>2015-09-14T18:49:53.000Z</time>
      </trkpt>
      <trkpt lat="48.84006" lon="2.29773">
        <ele>39.599998474121</ele>
        <time>2015-09-14T18:49:57.000Z</time>
      </trkpt>
      <trkpt lat="48.84001" lon="2.29763">
        <ele>42.599998474121</ele>
        <time>2015-09-14T18:50:01.000Z</time>
      </trkpt>
      <trkpt lat="48.83998" lon="2.29768">
        <ele>46.400001525879</ele>
        <time>2015-09-14T18:50:06.000Z</time>
      </trkpt>
      <trkpt lat="48.83983" lon="2.29786">
        <ele>48.799999237061</ele>
        <time>2015-09-14T18:50:12.000Z</time>
      </trkpt>
      <trkpt lat="48.83967" lon="2.29802">
        <ele>51.400001525879</ele>
        <time>2015-09-14T18:50:18.000Z</time>
      </trkpt>
      <trkpt lat="48.83951" lon="2.29821">
        <ele>52.799999237061</ele>
        <time>2015-09-14T18:50:25.000Z</time>
      </trkpt>
      <trkpt lat="48.83938" lon="2.29843">
        <ele>55.799999237061</ele>
        <time>2015-09-14T18:50:34.000Z</time>
      </trkpt>
      <trkpt lat="48.83923" lon="2.2986">
        <ele>55.400001525879</ele>
        <time>2015-09-14T18:50:39.000Z</time>
      </trkpt>
      <trkpt lat="48.83906" lon="2.29881">
        <ele>55.599998474121</ele>
        <time>2015-09-14T18:50:44.000Z</time>
      </trkpt>
      <trkpt lat="48.83893" lon="2.29905">
        <ele>56.200000762939</ele>
        <time>2015-09-14T18:50:51.000Z</time>
      </trkpt>
      <trkpt lat="48.83892" lon="2.2992">
        <ele>53.599998474121</ele>
        <time>2015-09-14T18:50:58.000Z</time>
      </trkpt>
      <trkpt lat="48.839" lon="2.29941">
        <ele>54</ele>
        <time>2015-09-14T18:51:03.000Z</time>
      </trkpt>
      <trkpt lat="48.8391" lon="2.29965">
        <ele>55</ele>
        <time>2015-09-14T18:51:08.000Z</time>
      </trkpt>
      <trkpt lat="48.83919" lon="2.29989">
        <ele>56.599998474121</ele>
        <time>2015-09-14T18:51:13.000Z</time>
      </trkpt>
      <trkpt lat="48.83924" lon="2.30019">
        <ele>57.799999237061</ele>
        <time>2015-09-14T18:51:18.000Z</time>
      </trkpt>
      <trkpt lat="48.83934" lon="2.30049">
        <ele>59.400001525879</ele>
        <time>2015-09-14T18:51:23.000Z</time>
      </trkpt>
      <trkpt lat="48.83944" lon="2.30077">
        <ele>61.400001525879</ele>
        <time>2015-09-14T18:51:28.000Z</time>
      </trkpt>
      <trkpt lat="48.83953" lon="2.30105">
        <ele>63.799999237061</ele>
        <time>2015-09-14T18:51:33.000Z</time>
      </trkpt>
      <trkpt lat="48.8396" lon="2.30133">
        <ele>65.800003051758</ele>
        <time>2015-09-14T18:51:38.000Z</time>
      </trkpt>
      <trkpt lat="48.83966" lon="2.30159">
        <ele>67.800003051758</ele>
        <time>2015-09-14T18:51:43.000Z</time>
      </trkpt>
      <trkpt lat="48.83977" lon="2.30184">
        <ele>67.400001525879</ele>
        <time>2015-09-14T18:51:48.000Z</time>
      </trkpt>
      <trkpt lat="48.83988" lon="2.30197">
        <ele>67.800003051758</ele>
        <time>2015-09-14T18:51:55.000Z</time>
      </trkpt>
      <trkpt lat="48.83981" lon="2.30219">
        <ele>70.599998474121</ele>
        <time>2015-09-14T18:52:28.000Z</time>
      </trkpt>
      <trkpt lat="48.8399" lon="2.3023">
        <ele>83</ele>
        <time>2015-09-14T18:53:24.000Z</time>
      </trkpt>
      <trkpt lat="48.83995" lon="2.30248">
        <ele>86.199996948242</ele>
        <time>2015-09-14T18:53:38.000Z</time>
      </trkpt>
      <trkpt lat="48.83994" lon="2.30241">
        <ele>88</ele>
        <time>2015-09-14T18:53:45.000Z</time>
      </trkpt>
      <trkpt lat="48.8398" lon="2.30255">
        <ele>89.800003051758</ele>
        <time>2015-09-14T18:53:57.000Z</time>
      </trkpt>
      <trkpt lat="48.83962" lon="2.30272">
        <ele>90.400001525879</ele>
        <time>2015-09-14T18:54:03.000Z</time>
      </trkpt>
      <trkpt lat="48.83947" lon="2.30286">
        <ele>88.800003051758</ele>
        <time>2015-09-14T18:54:07.000Z</time>
      </trkpt>
      <trkpt lat="48.8393" lon="2.30306">
        <ele>86</ele>
        <time>2015-09-14T18:54:11.000Z</time>
      </trkpt>
      <trkpt lat="48.83912" lon="2.30324">
        <ele>81.800003051758</ele>
        <time>2015-09-14T18:54:15.000Z</time>
      </trkpt>
      <trkpt lat="48.83896" lon="2.30339">
        <ele>77</ele>
        <time>2015-09-14T18:54:20.000Z</time>
      </trkpt>
      <trkpt lat="48.83879" lon="2.30358">
        <ele>72.199996948242</ele>
        <time>2015-09-14T18:54:25.000Z</time>
      </trkpt>
      <trkpt lat="48.83867" lon="2.30375">
        <ele>68.400001525879</ele>
        <time>2015-09-14T18:54:30.000Z</time>
      </trkpt>
      <trkpt lat="48.83848" lon="2.30385">
        <ele>62</ele>
        <time>2015-09-14T18:54:36.000Z</time>
      </trkpt>
      <trkpt lat="48.83831" lon="2.30398">
        <ele>56.400001525879</ele>
        <time>2015-09-14T18:54:42.000Z</time>
      </trkpt>
      <trkpt lat="48.83815" lon="2.30411">
        <ele>54.400001525879</ele>
        <time>2015-09-14T18:54:47.000Z</time>
      </trkpt>
      <trkpt lat="48.83803" lon="2.30431">
        <ele>49</ele>
        <time>2015-09-14T18:54:54.000Z</time>
      </trkpt>
      <trkpt lat="48.83788" lon="2.30455">
        <ele>48.400001525879</ele>
        <time>2015-09-14T18:55:00.000Z</time>
      </trkpt>
      <trkpt lat="48.83774" lon="2.30479">
        <ele>48.200000762939</ele>
        <time>2015-09-14T18:55:05.000Z</time>
      </trkpt>
      <trkpt lat="48.83757" lon="2.30503">
        <ele>48</ele>
        <time>2015-09-14T18:55:10.000Z</time>
      </trkpt>
      <trkpt lat="48.83741" lon="2.30523">
        <ele>48.799999237061</ele>
        <time>2015-09-14T18:55:15.000Z</time>
      </trkpt>
      <trkpt lat="48.83727" lon="2.30542">
        <ele>48.599998474121</ele>
        <time>2015-09-14T18:55:19.000Z</time>
      </trkpt>
      <trkpt lat="48.83713" lon="2.30554">
        <ele>48.799999237061</ele>
        <time>2015-09-14T18:55:23.000Z</time>
      </trkpt>
      <trkpt lat="48.83699" lon="2.30572">
        <ele>48.400001525879</ele>
        <time>2015-09-14T18:55:28.000Z</time>
      </trkpt>
      <trkpt lat="48.83685" lon="2.30591">
        <ele>48</ele>
        <time>2015-09-14T18:55:33.000Z</time>
      </trkpt>
      <trkpt lat="48.83678" lon="2.30597">
        <ele>47.599998474121</ele>
        <time>2015-09-14T18:55:35.000Z</time>
      </trkpt>
      <trkpt lat="48.83676" lon="2.30615">
        <ele>51.799999237061</ele>
        <time>2015-09-14T18:55:43.000Z</time>
      </trkpt>
      <trkpt lat="48.83678" lon="2.30623">
        <ele>57</ele>
        <time>2015-09-14T18:55:52.000Z</time>
      </trkpt>
      <trkpt lat="48.83684" lon="2.30629">
        <ele>58.200000762939</ele>
        <time>2015-09-14T18:55:58.000Z</time>
      </trkpt>
      <trkpt lat="48.83704" lon="2.30611">
        <ele>61</ele>
        <time>2015-09-14T18:56:07.000Z</time>
      </trkpt>
      <trkpt lat="48.83721" lon="2.30599">
        <ele>62.400001525879</ele>
        <time>2015-09-14T18:56:12.000Z</time>
      </trkpt>
      <trkpt lat="48.83733" lon="2.30604">
        <ele>63.200000762939</ele>
        <time>2015-09-14T18:56:15.000Z</time>
      </trkpt>
      <trkpt lat="48.83747" lon="2.30617">
        <ele>63.400001525879</ele>
        <time>2015-09-14T18:56:18.000Z</time>
      </trkpt>
      <trkpt lat="48.83763" lon="2.30635">
        <ele>64.400001525879</ele>
        <time>2015-09-14T18:56:22.000Z</time>
      </trkpt>
      <trkpt lat="48.83779" lon="2.30649">
        <ele>61.599998474121</ele>
        <time>2015-09-14T18:56:25.000Z</time>
      </trkpt>
      <trkpt lat="48.83801" lon="2.30666">
        <ele>58.200000762939</ele>
        <time>2015-09-14T18:56:29.000Z</time>
      </trkpt>
      <trkpt lat="48.83818" lon="2.30685">
        <ele>60.799999237061</ele>
        <time>2015-09-14T18:56:34.000Z</time>
      </trkpt>
      <trkpt lat="48.83828" lon="2.30696">
        <ele>62.200000762939</ele>
        <time>2015-09-14T18:56:37.000Z</time>
      </trkpt>
      <trkpt lat="48.83838" lon="2.30699">
        <ele>58</ele>
        <time>2015-09-14T18:56:42.000Z</time>
      </trkpt>
      <trkpt lat="48.83857" lon="2.30683">
        <ele>54.400001525879</ele>
        <time>2015-09-14T18:56:48.000Z</time>
      </trkpt>
      <trkpt lat="48.83864" lon="2.30682">
        <ele>54.200000762939</ele>
        <time>2015-09-14T18:56:50.000Z</time>
      </trkpt>
      <trkpt lat="48.83876" lon="2.30698">
        <ele>54.599998474121</ele>
        <time>2015-09-14T18:56:54.000Z</time>
      </trkpt>
      <trkpt lat="48.83887" lon="2.30723">
        <ele>55.400001525879</ele>
        <time>2015-09-14T18:56:59.000Z</time>
      </trkpt>
      <trkpt lat="48.839" lon="2.30745">
        <ele>55.599998474121</ele>
        <time>2015-09-14T18:57:03.000Z</time>
      </trkpt>
      <trkpt lat="48.83901" lon="2.30768">
        <ele>55.799999237061</ele>
        <time>2015-09-14T18:57:06.000Z</time>
      </trkpt>
      <trkpt lat="48.83914" lon="2.30794">
        <ele>56.599998474121</ele>
        <time>2015-09-14T18:57:11.000Z</time>
      </trkpt>
      <trkpt lat="48.83921" lon="2.3082">
        <ele>56</ele>
        <time>2015-09-14T18:57:16.000Z</time>
      </trkpt>
      <trkpt lat="48.83907" lon="2.30837">
        <ele>54.799999237061</ele>
        <time>2015-09-14T18:57:21.000Z</time>
      </trkpt>
      <trkpt lat="48.83891" lon="2.30851">
        <ele>54.599998474121</ele>
        <time>2015-09-14T18:57:26.000Z</time>
      </trkpt>
      <trkpt lat="48.83885" lon="2.30854">
        <ele>54.599998474121</ele>
        <time>2015-09-14T18:57:28.000Z</time>
      </trkpt>
      <trkpt lat="48.83873" lon="2.30858">
        <ele>53</ele>
        <time>2015-09-14T18:57:33.000Z</time>
      </trkpt>
      <trkpt lat="48.83864" lon="2.30871">
        <ele>47.200000762939</ele>
        <time>2015-09-14T18:57:43.000Z</time>
      </trkpt>
      <trkpt lat="48.83867" lon="2.30874">
        <ele>46.599998474121</ele>
        <time>2015-09-14T18:58:01.000Z</time>
      </trkpt>
      <trkpt lat="48.83872" lon="2.30878">
        <ele>48</ele>
        <time>2015-09-14T18:58:29.000Z</time>
      </trkpt>
      <trkpt lat="48.8387" lon="2.30872">
        <ele>47.799999237061</ele>
        <time>2015-09-14T18:58:43.000Z</time>
      </trkpt>
      <trkpt lat="48.83854" lon="2.30858">
        <ele>50.200000762939</ele>
        <time>2015-09-14T18:58:49.000Z</time>
      </trkpt>
      <trkpt lat="48.83838" lon="2.30844">
        <ele>52</ele>
        <time>2015-09-14T18:58:55.000Z</time>
      </trkpt>
      <trkpt lat="48.83831" lon="2.3084">
        <ele>52.400001525879</ele>
        <time>2015-09-14T18:58:59.000Z</time>
      </trkpt>
      <trkpt lat="48.83826" lon="2.30847">
        <ele>53.599998474121</ele>
        <time>2015-09-14T18:59:05.000Z</time>
      </trkpt>
      <trkpt lat="48.83814" lon="2.3087">
        <ele>54.599998474121</ele>
        <time>2015-09-14T18:59:13.000Z</time>
      </trkpt>
      <trkpt lat="48.838" lon="2.30893">
        <ele>56.200000762939</ele>
        <time>2015-09-14T18:59:21.000Z</time>
      </trkpt>
      <trkpt lat="48.83789" lon="2.30919">
        <ele>58.799999237061</ele>
        <time>2015-09-14T18:59:28.000Z</time>
      </trkpt>
      <trkpt lat="48.8378" lon="2.30944">
        <ele>62.400001525879</ele>
        <time>2015-09-14T18:59:35.000Z</time>
      </trkpt>
      <trkpt lat="48.83779" lon="2.30975">
        <ele>66.800003051758</ele>
        <time>2015-09-14T18:59:43.000Z</time>
      </trkpt>
      <trkpt lat="48.83777" lon="2.31003">
        <ele>69.800003051758</ele>
        <time>2015-09-14T18:59:50.000Z</time>
      </trkpt>
      <trkpt lat="48.8378" lon="2.31032">
        <ele>73</ele>
        <time>2015-09-14T18:59:57.000Z</time>
      </trkpt>
      <trkpt lat="48.83785" lon="2.31059">
        <ele>75.599998474121</ele>
        <time>2015-09-14T19:00:03.000Z</time>
      </trkpt>
      <trkpt lat="48.83777" lon="2.31085">
        <ele>77.400001525879</ele>
        <time>2015-09-14T19:00:11.000Z</time>
      </trkpt>
      <trkpt lat="48.83769" lon="2.31099">
        <ele>77</ele>
        <time>2015-09-14T19:00:18.000Z</time>
      </trkpt>
      <trkpt lat="48.83775" lon="2.31104">
        <ele>75.599998474121</ele>
        <time>2015-09-14T19:00:22.000Z</time>
      </trkpt>
      <trkpt lat="48.83793" lon="2.31112">
        <ele>74.599998474121</ele>
        <time>2015-09-14T19:00:28.000Z</time>
      </trkpt>
      <trkpt lat="48.83813" lon="2.31122">
        <ele>75.400001525879</ele>
        <time>2015-09-14T19:00:34.000Z</time>
      </trkpt>
      <trkpt lat="48.83833" lon="2.31131">
        <ele>76.800003051758</ele>
        <time>2015-09-14T19:00:39.000Z</time>
      </trkpt>
      <trkpt lat="48.83854" lon="2.31137">
        <ele>74</ele>
        <time>2015-09-14T19:00:43.000Z</time>
      </trkpt>
      <trkpt lat="48.83874" lon="2.31138">
        <ele>70.400001525879</ele>
        <time>2015-09-14T19:00:47.000Z</time>
      </trkpt>
      <trkpt lat="48.83895" lon="2.31148">
        <ele>68.599998474121</ele>
        <time>2015-09-14T19:00:53.000Z</time>
      </trkpt>
      <trkpt lat="48.83915" lon="2.31162">
        <ele>67</ele>
        <time>2015-09-14T19:00:58.000Z</time>
      </trkpt>
      <trkpt lat="48.83929" lon="2.3118">
        <ele>61.799999237061</ele>
        <time>2015-09-14T19:01:02.000Z</time>
      </trkpt>
      <trkpt lat="48.83947" lon="2.31196">
        <ele>60.400001525879</ele>
        <time>2015-09-14T19:01:06.000Z</time>
      </trkpt>
      <trkpt lat="48.83968" lon="2.31211">
        <ele>58</ele>
        <time>2015-09-14T19:01:10.000Z</time>
      </trkpt>
      <trkpt lat="48.83985" lon="2.31225">
        <ele>56.200000762939</ele>
        <time>2015-09-14T19:01:13.000Z</time>
      </trkpt>
      <trkpt lat="48.84002" lon="2.31238">
        <ele>55</ele>
        <time>2015-09-14T19:01:16.000Z</time>
      </trkpt>
      <trkpt lat="48.8402" lon="2.31249">
        <ele>53.599998474121</ele>
        <time>2015-09-14T19:01:19.000Z</time>
      </trkpt>
      <trkpt lat="48.84037" lon="2.31262">
        <ele>52.200000762939</ele>
        <time>2015-09-14T19:01:22.000Z</time>
      </trkpt>
      <trkpt lat="48.84054" lon="2.31276">
        <ele>52.599998474121</ele>
        <time>2015-09-14T19:01:25.000Z</time>
      </trkpt>
      <trkpt lat="48.84071" lon="2.31286">
        <ele>52.599998474121</ele>
        <time>2015-09-14T19:01:28.000Z</time>
      </trkpt>
      <trkpt lat="48.84079" lon="2.31294">
        <ele>51.599998474121</ele>
        <time>2015-09-14T19:01:30.000Z</time>
      </trkpt>
      <trkpt lat="48.84095" lon="2.31309">
        <ele>50</ele>
        <time>2015-09-14T19:01:34.000Z</time>
      </trkpt>
      <trkpt lat="48.8411" lon="2.31324">
        <ele>48.200000762939</ele>
        <time>2015-09-14T19:01:38.000Z</time>
      </trkpt>
      <trkpt lat="48.84126" lon="2.31344">
        <ele>46.200000762939</ele>
        <time>2015-09-14T19:01:43.000Z</time>
      </trkpt>
      <trkpt lat="48.84134" lon="2.3135">
        <ele>46.400001525879</ele>
        <time>2015-09-14T19:01:47.000Z</time>
      </trkpt>
      <trkpt lat="48.84133" lon="2.31357">
        <ele>52.200000762939</ele>
        <time>2015-09-14T19:01:58.000Z</time>
      </trkpt>
      <trkpt lat="48.84125" lon="2.31383">
        <ele>57.599998474121</ele>
        <time>2015-09-14T19:02:10.000Z</time>
      </trkpt>
      <trkpt lat="48.84111" lon="2.31405">
        <ele>59.200000762939</ele>
        <time>2015-09-14T19:02:16.000Z</time>
      </trkpt>
      <trkpt lat="48.84096" lon="2.31421">
        <ele>58.599998474121</ele>
        <time>2015-09-14T19:02:20.000Z</time>
      </trkpt>
      <trkpt lat="48.84078" lon="2.31441">
        <ele>58.400001525879</ele>
        <time>2015-09-14T19:02:25.000Z</time>
      </trkpt>
      <trkpt lat="48.84061" lon="2.31459">
        <ele>59</ele>
        <time>2015-09-14T19:02:30.000Z</time>
      </trkpt>
      <trkpt lat="48.84047" lon="2.31476">
        <ele>60.200000762939</ele>
        <time>2015-09-14T19:02:35.000Z</time>
      </trkpt>
      <trkpt lat="48.84034" lon="2.31496">
        <ele>62.200000762939</ele>
        <time>2015-09-14T19:02:45.000Z</time>
      </trkpt>
      <trkpt lat="48.84018" lon="2.31518">
        <ele>63.400001525879</ele>
        <time>2015-09-14T19:02:53.000Z</time>
      </trkpt>
      <trkpt lat="48.84005" lon="2.31537">
        <ele>62.799999237061</ele>
        <time>2015-09-14T19:02:59.000Z</time>
      </trkpt>
      <trkpt lat="48.83991" lon="2.3156">
        <ele>66</ele>
        <time>2015-09-14T19:03:05.000Z</time>
      </trkpt>
      <trkpt lat="48.83976" lon="2.31579">
        <ele>67.800003051758</ele>
        <time>2015-09-14T19:03:14.000Z</time>
      </trkpt>
      <trkpt lat="48.83972" lon="2.31608">
        <ele>71.800003051758</ele>
        <time>2015-09-14T19:03:21.000Z</time>
      </trkpt>
      <trkpt lat="48.8397" lon="2.31639">
        <ele>74.400001525879</ele>
        <time>2015-09-14T19:03:28.000Z</time>
      </trkpt>
      <trkpt lat="48.8396" lon="2.31667">
        <ele>77.199996948242</ele>
        <time>2015-09-14T19:03:34.000Z</time>
      </trkpt>
      <trkpt lat="48.83942" lon="2.3168">
        <ele>78.800003051758</ele>
        <time>2015-09-14T19:03:37.000Z</time>
      </trkpt>
      <trkpt lat="48.83918" lon="2.31692">
        <ele>85.199996948242</ele>
        <time>2015-09-14T19:03:43.000Z</time>
      </trkpt>
      <trkpt lat="48.83894" lon="2.31687">
        <ele>87</ele>
        <time>2015-09-14T19:03:51.000Z</time>
      </trkpt>
      <trkpt lat="48.83876" lon="2.31701">
        <ele>87</ele>
        <time>2015-09-14T19:03:56.000Z</time>
      </trkpt>
      <trkpt lat="48.83859" lon="2.31715">
        <ele>89.199996948242</ele>
        <time>2015-09-14T19:04:00.000Z</time>
      </trkpt>
      <trkpt lat="48.83841" lon="2.31732">
        <ele>93.199996948242</ele>
        <time>2015-09-14T19:04:05.000Z</time>
      </trkpt>
      <trkpt lat="48.83825" lon="2.31754">
        <ele>98.199996948242</ele>
        <time>2015-09-14T19:04:10.000Z</time>
      </trkpt>
      <trkpt lat="48.83818" lon="2.31778">
        <ele>100.40000152588</ele>
        <time>2015-09-14T19:04:18.000Z</time>
      </trkpt>
      <trkpt lat="48.83797" lon="2.31791">
        <ele>100.40000152588</ele>
        <time>2015-09-14T19:04:21.000Z</time>
      </trkpt>
      <trkpt lat="48.83775" lon="2.318">
        <ele>102.80000305176</ele>
        <time>2015-09-14T19:04:25.000Z</time>
      </trkpt>
      <trkpt lat="48.83756" lon="2.31806">
        <ele>101.40000152588</ele>
        <time>2015-09-14T19:04:31.000Z</time>
      </trkpt>
      <trkpt lat="48.83739" lon="2.3182">
        <ele>102</ele>
        <time>2015-09-14T19:04:37.000Z</time>
      </trkpt>
      <trkpt lat="48.83726" lon="2.31832">
        <ele>112.80000305176</ele>
        <time>2015-09-14T19:04:58.000Z</time>
      </trkpt>
      <trkpt lat="48.83713" lon="2.31827">
        <ele>113.59999847412</ele>
        <time>2015-09-14T19:05:02.000Z</time>
      </trkpt>
      <trkpt lat="48.83695" lon="2.31826">
        <ele>112</ele>
        <time>2015-09-14T19:05:09.000Z</time>
      </trkpt>
      <trkpt lat="48.83704" lon="2.31862">
        <ele>105.40000152588</ele>
        <time>2015-09-14T19:05:17.000Z</time>
      </trkpt>
      <trkpt lat="48.83687" lon="2.31873">
        <ele>101.40000152588</ele>
        <time>2015-09-14T19:05:22.000Z</time>
      </trkpt>
      <trkpt lat="48.83668" lon="2.31882">
        <ele>98.800003051758</ele>
        <time>2015-09-14T19:05:27.000Z</time>
      </trkpt>
      <trkpt lat="48.83648" lon="2.31893">
        <ele>95.599998474121</ele>
        <time>2015-09-14T19:05:33.000Z</time>
      </trkpt>
      <trkpt lat="48.83631" lon="2.31905">
        <ele>90</ele>
        <time>2015-09-14T19:05:37.000Z</time>
      </trkpt>
      <trkpt lat="48.83613" lon="2.3191">
        <ele>76.400001525879</ele>
        <time>2015-09-14T19:05:45.000Z</time>
      </trkpt>
      <trkpt lat="48.836" lon="2.31931">
        <ele>69.599998474121</ele>
        <time>2015-09-14T19:05:55.000Z</time>
      </trkpt>
      <trkpt lat="48.83585" lon="2.31952">
        <ele>65.800003051758</ele>
        <time>2015-09-14T19:06:03.000Z</time>
      </trkpt>
      <trkpt lat="48.83579" lon="2.31979">
        <ele>49.799999237061</ele>
        <time>2015-09-14T19:06:12.000Z</time>
      </trkpt>
      <trkpt lat="48.83568" lon="2.32001">
        <ele>44.599998474121</ele>
        <time>2015-09-14T19:06:17.000Z</time>
      </trkpt>
      <trkpt lat="48.83553" lon="2.32021">
        <ele>40.400001525879</ele>
        <time>2015-09-14T19:06:23.000Z</time>
      </trkpt>
      <trkpt lat="48.83538" lon="2.32039">
        <ele>37.799999237061</ele>
        <time>2015-09-14T19:06:30.000Z</time>
      </trkpt>
      <trkpt lat="48.83525" lon="2.32064">
        <ele>34.599998474121</ele>
        <time>2015-09-14T19:06:36.000Z</time>
      </trkpt>
      <trkpt lat="48.8351" lon="2.32088">
        <ele>31.39999961853</ele>
        <time>2015-09-14T19:06:41.000Z</time>
      </trkpt>
      <trkpt lat="48.83494" lon="2.32112">
        <ele>33.400001525879</ele>
        <time>2015-09-14T19:06:46.000Z</time>
      </trkpt>
      <trkpt lat="48.83484" lon="2.32134">
        <ele>36.400001525879</ele>
        <time>2015-09-14T19:06:50.000Z</time>
      </trkpt>
      <trkpt lat="48.83472" lon="2.32156">
        <ele>40</ele>
        <time>2015-09-14T19:06:54.000Z</time>
      </trkpt>
      <trkpt lat="48.8346" lon="2.32181">
        <ele>42.599998474121</ele>
        <time>2015-09-14T19:06:58.000Z</time>
      </trkpt>
      <trkpt lat="48.83446" lon="2.32205">
        <ele>45.400001525879</ele>
        <time>2015-09-14T19:07:02.000Z</time>
      </trkpt>
      <trkpt lat="48.83433" lon="2.32226">
        <ele>48.400001525879</ele>
        <time>2015-09-14T19:07:06.000Z</time>
      </trkpt>
      <trkpt lat="48.83417" lon="2.3225">
        <ele>50.799999237061</ele>
        <time>2015-09-14T19:07:10.000Z</time>
      </trkpt>
      <trkpt lat="48.83402" lon="2.32276">
        <ele>53</ele>
        <time>2015-09-14T19:07:14.000Z</time>
      </trkpt>
      <trkpt lat="48.83388" lon="2.323">
        <ele>54.799999237061</ele>
        <time>2015-09-14T19:07:18.000Z</time>
      </trkpt>
      <trkpt lat="48.83376" lon="2.32327">
        <ele>55.400001525879</ele>
        <time>2015-09-14T19:07:22.000Z</time>
      </trkpt>
      <trkpt lat="48.83367" lon="2.32359">
        <ele>54</ele>
        <time>2015-09-14T19:07:27.000Z</time>
      </trkpt>
      <trkpt lat="48.83357" lon="2.32384">
        <ele>52.200000762939</ele>
        <time>2015-09-14T19:07:31.000Z</time>
      </trkpt>
      <trkpt lat="48.83347" lon="2.3241">
        <ele>50.400001525879</ele>
        <time>2015-09-14T19:07:35.000Z</time>
      </trkpt>
      <trkpt lat="48.83334" lon="2.32432">
        <ele>49.799999237061</ele>
        <time>2015-09-14T19:07:39.000Z</time>
      </trkpt>
      <trkpt lat="48.8333" lon="2.32437">
        <ele>49.799999237061</ele>
        <time>2015-09-14T19:07:40.000Z</time>
      </trkpt>
      <trkpt lat="48.83317" lon="2.3245">
        <ele>46.799999237061</ele>
        <time>2015-09-14T19:07:43.000Z</time>
      </trkpt>
      <trkpt lat="48.83308" lon="2.32467">
        <ele>44.799999237061</ele>
        <time>2015-09-14T19:07:48.000Z</time>
      </trkpt>
      <trkpt lat="48.83301" lon="2.32472">
        <ele>44.400001525879</ele>
        <time>2015-09-14T19:07:51.000Z</time>
      </trkpt>
      <trkpt lat="48.83293" lon="2.32477">
        <ele>44.400001525879</ele>
        <time>2015-09-14T19:07:55.000Z</time>
      </trkpt>
      <trkpt lat="48.8328" lon="2.32499">
        <ele>46.400001525879</ele>
        <time>2015-09-14T19:08:01.000Z</time>
      </trkpt>
      <trkpt lat="48.83277" lon="2.32504">
        <ele>47.200000762939</ele>
        <time>2015-09-14T19:08:02.000Z</time>
      </trkpt>
      <trkpt lat="48.83268" lon="2.32525">
        <ele>50.799999237061</ele>
        <time>2015-09-14T19:08:07.000Z</time>
      </trkpt>
      <trkpt lat="48.83259" lon="2.32554">
        <ele>55.799999237061</ele>
        <time>2015-09-14T19:08:13.000Z</time>
      </trkpt>
      <trkpt lat="48.8325" lon="2.3258">
        <ele>59.799999237061</ele>
        <time>2015-09-14T19:08:18.000Z</time>
      </trkpt>
      <trkpt lat="48.83241" lon="2.32611">
        <ele>62.400001525879</ele>
        <time>2015-09-14T19:08:23.000Z</time>
      </trkpt>
      <trkpt lat="48.83232" lon="2.3264">
        <ele>64.800003051758</ele>
        <time>2015-09-14T19:08:28.000Z</time>
      </trkpt>
      <trkpt lat="48.83219" lon="2.32664">
        <ele>65.599998474121</ele>
        <time>2015-09-14T19:08:33.000Z</time>
      </trkpt>
      <trkpt lat="48.83211" lon="2.3269">
        <ele>67.800003051758</ele>
        <time>2015-09-14T19:08:39.000Z</time>
      </trkpt>
      <trkpt lat="48.83207" lon="2.32693">
        <ele>67.400001525879</ele>
        <time>2015-09-14T19:08:41.000Z</time>
      </trkpt>
      <trkpt lat="48.83198" lon="2.32688">
        <ele>67.400001525879</ele>
        <time>2015-09-14T19:08:45.000Z</time>
      </trkpt>
      <trkpt lat="48.83181" lon="2.32675">
        <ele>65.800003051758</ele>
        <time>2015-09-14T19:08:52.000Z</time>
      </trkpt>
      <trkpt lat="48.83169" lon="2.32665">
        <ele>66</ele>
        <time>2015-09-14T19:08:59.000Z</time>
      </trkpt>
      <trkpt lat="48.83156" lon="2.32689">
        <ele>64.400001525879</ele>
        <time>2015-09-14T19:09:06.000Z</time>
      </trkpt>
      <trkpt lat="48.83158" lon="2.32693">
        <ele>64.199996948242</ele>
        <time>2015-09-14T19:09:07.000Z</time>
      </trkpt>
      <trkpt lat="48.83174" lon="2.32711">
        <ele>62.400001525879</ele>
        <time>2015-09-14T19:09:13.000Z</time>
      </trkpt>
      <trkpt lat="48.83176" lon="2.32713">
        <ele>61.400001525879</ele>
        <time>2015-09-14T19:09:14.000Z</time>
      </trkpt>
      <trkpt lat="48.83192" lon="2.32727">
        <ele>59.799999237061</ele>
        <time>2015-09-14T19:09:19.000Z</time>
      </trkpt>
      <trkpt lat="48.83206" lon="2.32746">
        <ele>59.400001525879</ele>
        <time>2015-09-14T19:09:24.000Z</time>
      </trkpt>
      <trkpt lat="48.832" lon="2.32778">
        <ele>59</ele>
        <time>2015-09-14T19:09:30.000Z</time>
      </trkpt>
      <trkpt lat="48.83191" lon="2.32803">
        <ele>59.200000762939</ele>
        <time>2015-09-14T19:09:35.000Z</time>
      </trkpt>
      <trkpt lat="48.83181" lon="2.32832">
        <ele>58.599998474121</ele>
        <time>2015-09-14T19:09:40.000Z</time>
      </trkpt>
      <trkpt lat="48.83172" lon="2.32857">
        <ele>58</ele>
        <time>2015-09-14T19:09:45.000Z</time>
      </trkpt>
      <trkpt lat="48.83163" lon="2.3288">
        <ele>57.799999237061</ele>
        <time>2015-09-14T19:09:50.000Z</time>
      </trkpt>
      <trkpt lat="48.83157" lon="2.3291">
        <ele>56.400001525879</ele>
        <time>2015-09-14T19:09:56.000Z</time>
      </trkpt>
      <trkpt lat="48.83148" lon="2.32934">
        <ele>57</ele>
        <time>2015-09-14T19:10:02.000Z</time>
      </trkpt>
      <trkpt lat="48.83151" lon="2.3297">
        <ele>60.599998474121</ele>
        <time>2015-09-14T19:10:14.000Z</time>
      </trkpt>
      <trkpt lat="48.83149" lon="2.32974">
        <ele>61.400001525879</ele>
        <time>2015-09-14T19:10:17.000Z</time>
      </trkpt>
      <trkpt lat="48.83148" lon="2.32985">
        <ele>74.400001525879</ele>
        <time>2015-09-14T19:10:52.000Z</time>
      </trkpt>
      <trkpt lat="48.83132" lon="2.32988">
        <ele>76.199996948242</ele>
        <time>2015-09-14T19:11:00.000Z</time>
      </trkpt>
      <trkpt lat="48.8312" lon="2.33017">
        <ele>76.599998474121</ele>
        <time>2015-09-14T19:11:09.000Z</time>
      </trkpt>
      <trkpt lat="48.8311" lon="2.33045">
        <ele>75.800003051758</ele>
        <time>2015-09-14T19:11:14.000Z</time>
      </trkpt>
      <trkpt lat="48.83099" lon="2.33074">
        <ele>74.599998474121</ele>
        <time>2015-09-14T19:11:19.000Z</time>
      </trkpt>
      <trkpt lat="48.8309" lon="2.33101">
        <ele>73.400001525879</ele>
        <time>2015-09-14T19:11:24.000Z</time>
      </trkpt>
      <trkpt lat="48.83084" lon="2.3313">
        <ele>72.400001525879</ele>
        <time>2015-09-14T19:11:29.000Z</time>
      </trkpt>
      <trkpt lat="48.83082" lon="2.33158">
        <ele>66.599998474121</ele>
        <time>2015-09-14T19:11:33.000Z</time>
      </trkpt>
      <trkpt lat="48.83084" lon="2.3319">
        <ele>62.599998474121</ele>
        <time>2015-09-14T19:11:38.000Z</time>
      </trkpt>
      <trkpt lat="48.83082" lon="2.33224">
        <ele>59.400001525879</ele>
        <time>2015-09-14T19:11:43.000Z</time>
      </trkpt>
      <trkpt lat="48.83086" lon="2.33243">
        <ele>56.799999237061</ele>
        <time>2015-09-14T19:11:46.000Z</time>
      </trkpt>
      <trkpt lat="48.83085" lon="2.33272">
        <ele>52.400001525879</ele>
        <time>2015-09-14T19:11:52.000Z</time>
      </trkpt>
      <trkpt lat="48.83081" lon="2.33276">
        <ele>50.799999237061</ele>
        <time>2015-09-14T19:11:54.000Z</time>
      </trkpt>
      <trkpt lat="48.83078" lon="2.33278">
        <ele>50.200000762939</ele>
        <time>2015-09-14T19:11:55.000Z</time>
      </trkpt>
      <trkpt lat="48.83059" lon="2.33283">
        <ele>47.200000762939</ele>
        <time>2015-09-14T19:12:00.000Z</time>
      </trkpt>
      <trkpt lat="48.83056" lon="2.33286">
        <ele>46.400001525879</ele>
        <time>2015-09-14T19:12:01.000Z</time>
      </trkpt>
      <trkpt lat="48.83044" lon="2.33314">
        <ele>43.200000762939</ele>
        <time>2015-09-14T19:12:06.000Z</time>
      </trkpt>
      <trkpt lat="48.83042" lon="2.33343">
        <ele>40.200000762939</ele>
        <time>2015-09-14T19:12:12.000Z</time>
      </trkpt>
      <trkpt lat="48.83029" lon="2.33371">
        <ele>38.200000762939</ele>
        <time>2015-09-14T19:12:18.000Z</time>
      </trkpt>
      <trkpt lat="48.83028" lon="2.334">
        <ele>39.200000762939</ele>
        <time>2015-09-14T19:12:25.000Z</time>
      </trkpt>
      <trkpt lat="48.83045" lon="2.33418">
        <ele>39.799999237061</ele>
        <time>2015-09-14T19:12:30.000Z</time>
      </trkpt>
      <trkpt lat="48.83062" lon="2.3343">
        <ele>40</ele>
        <time>2015-09-14T19:12:34.000Z</time>
      </trkpt>
      <trkpt lat="48.83081" lon="2.33442">
        <ele>38.400001525879</ele>
        <time>2015-09-14T19:12:39.000Z</time>
      </trkpt>
      <trkpt lat="48.831" lon="2.33448">
        <ele>38.400001525879</ele>
        <time>2015-09-14T19:12:44.000Z</time>
      </trkpt>
      <trkpt lat="48.83107" lon="2.33455">
        <ele>38.400001525879</ele>
        <time>2015-09-14T19:12:47.000Z</time>
      </trkpt>
      <trkpt lat="48.83126" lon="2.33469">
        <ele>37.200000762939</ele>
        <time>2015-09-14T19:12:53.000Z</time>
      </trkpt>
      <trkpt lat="48.83142" lon="2.33484">
        <ele>34</ele>
        <time>2015-09-14T19:12:58.000Z</time>
      </trkpt>
      <trkpt lat="48.83159" lon="2.335">
        <ele>33.799999237061</ele>
        <time>2015-09-14T19:13:03.000Z</time>
      </trkpt>
      <trkpt lat="48.83175" lon="2.33513">
        <ele>34.599998474121</ele>
        <time>2015-09-14T19:13:07.000Z</time>
      </trkpt>
      <trkpt lat="48.83193" lon="2.33529">
        <ele>35.599998474121</ele>
        <time>2015-09-14T19:13:12.000Z</time>
      </trkpt>
      <trkpt lat="48.83197" lon="2.33538">
        <ele>35.400001525879</ele>
        <time>2015-09-14T19:13:14.000Z</time>
      </trkpt>
      <trkpt lat="48.83193" lon="2.33567">
        <ele>35.200000762939</ele>
        <time>2015-09-14T19:13:19.000Z</time>
      </trkpt>
      <trkpt lat="48.83187" lon="2.33595">
        <ele>37</ele>
        <time>2015-09-14T19:13:23.000Z</time>
      </trkpt>
      <trkpt lat="48.83181" lon="2.33627">
        <ele>38.400001525879</ele>
        <time>2015-09-14T19:13:27.000Z</time>
      </trkpt>
      <trkpt lat="48.83176" lon="2.33661">
        <ele>39.400001525879</ele>
        <time>2015-09-14T19:13:31.000Z</time>
      </trkpt>
      <trkpt lat="48.83171" lon="2.33694">
        <ele>41.200000762939</ele>
        <time>2015-09-14T19:13:35.000Z</time>
      </trkpt>
      <trkpt lat="48.83165" lon="2.33728">
        <ele>43.599998474121</ele>
        <time>2015-09-14T19:13:39.000Z</time>
      </trkpt>
      <trkpt lat="48.83158" lon="2.33757">
        <ele>44.599998474121</ele>
        <time>2015-09-14T19:13:43.000Z</time>
      </trkpt>
      <trkpt lat="48.83156" lon="2.33764">
        <ele>45.200000762939</ele>
        <time>2015-09-14T19:13:44.000Z</time>
      </trkpt>
      <trkpt lat="48.83153" lon="2.33797">
        <ele>50.400001525879</ele>
        <time>2015-09-14T19:13:49.000Z</time>
      </trkpt>
      <trkpt lat="48.83156" lon="2.33813">
        <ele>54.200000762939</ele>
        <time>2015-09-14T19:13:51.000Z</time>
      </trkpt>
      <trkpt lat="48.83164" lon="2.33843">
        <ele>56.599998474121</ele>
        <time>2015-09-14T19:13:55.000Z</time>
      </trkpt>
      <trkpt lat="48.83173" lon="2.3386">
        <ele>57.599998474121</ele>
        <time>2015-09-14T19:13:58.000Z</time>
      </trkpt>
      <trkpt lat="48.83176" lon="2.33865">
        <ele>58</ele>
        <time>2015-09-14T19:13:59.000Z</time>
      </trkpt>
      <trkpt lat="48.83189" lon="2.33891">
        <ele>59.599998474121</ele>
        <time>2015-09-14T19:14:04.000Z</time>
      </trkpt>
      <trkpt lat="48.83203" lon="2.33912">
        <ele>60.599998474121</ele>
        <time>2015-09-14T19:14:09.000Z</time>
      </trkpt>
      <trkpt lat="48.83207" lon="2.33923">
        <ele>60.200000762939</ele>
        <time>2015-09-14T19:14:11.000Z</time>
      </trkpt>
      <trkpt lat="48.83208" lon="2.33954">
        <ele>58.200000762939</ele>
        <time>2015-09-14T19:14:16.000Z</time>
      </trkpt>
      <trkpt lat="48.83201" lon="2.33985">
        <ele>57.200000762939</ele>
        <time>2015-09-14T19:14:21.000Z</time>
      </trkpt>
      <trkpt lat="48.83207" lon="2.34002">
        <ele>50.599998474121</ele>
        <time>2015-09-14T19:14:24.000Z</time>
      </trkpt>
      <trkpt lat="48.83212" lon="2.34035">
        <ele>45.599998474121</ele>
        <time>2015-09-14T19:14:29.000Z</time>
      </trkpt>
      <trkpt lat="48.83209" lon="2.34067">
        <ele>45</ele>
        <time>2015-09-14T19:14:34.000Z</time>
      </trkpt>
      <trkpt lat="48.83207" lon="2.34081">
        <ele>45</ele>
        <time>2015-09-14T19:14:37.000Z</time>
      </trkpt>
      <trkpt lat="48.83189" lon="2.34084">
        <ele>43.799999237061</ele>
        <time>2015-09-14T19:14:42.000Z</time>
      </trkpt>
      <trkpt lat="48.83172" lon="2.34078">
        <ele>43.599998474121</ele>
        <time>2015-09-14T19:14:45.000Z</time>
      </trkpt>
      <trkpt lat="48.83152" lon="2.34068">
        <ele>43.400001525879</ele>
        <time>2015-09-14T19:14:49.000Z</time>
      </trkpt>
      <trkpt lat="48.83131" lon="2.34064">
        <ele>43.200000762939</ele>
        <time>2015-09-14T19:14:53.000Z</time>
      </trkpt>
      <trkpt lat="48.83116" lon="2.34061">
        <ele>43.599998474121</ele>
        <time>2015-09-14T19:14:56.000Z</time>
      </trkpt>
      <trkpt lat="48.83095" lon="2.3406">
        <ele>46</ele>
        <time>2015-09-14T19:15:00.000Z</time>
      </trkpt>
      <trkpt lat="48.83075" lon="2.34056">
        <ele>48.599998474121</ele>
        <time>2015-09-14T19:15:05.000Z</time>
      </trkpt>
      <trkpt lat="48.83057" lon="2.34051">
        <ele>48.599998474121</ele>
        <time>2015-09-14T19:15:10.000Z</time>
      </trkpt>
      <trkpt lat="48.83042" lon="2.34066">
        <ele>50.400001525879</ele>
        <time>2015-09-14T19:15:14.000Z</time>
      </trkpt>
      <trkpt lat="48.83038" lon="2.34078">
        <ele>50.799999237061</ele>
        <time>2015-09-14T19:15:16.000Z</time>
      </trkpt>
      <trkpt lat="48.83036" lon="2.34084">
        <ele>51.200000762939</ele>
        <time>2015-09-14T19:15:17.000Z</time>
      </trkpt>
      <trkpt lat="48.83032" lon="2.34113">
        <ele>52</ele>
        <time>2015-09-14T19:15:22.000Z</time>
      </trkpt>
      <trkpt lat="48.83031" lon="2.34118">
        <ele>52.200000762939</ele>
        <time>2015-09-14T19:15:23.000Z</time>
      </trkpt>
      <trkpt lat="48.83013" lon="2.34125">
        <ele>53.200000762939</ele>
        <time>2015-09-14T19:15:29.000Z</time>
      </trkpt>
      <trkpt lat="48.83009" lon="2.34124">
        <ele>53.200000762939</ele>
        <time>2015-09-14T19:15:30.000Z</time>
      </trkpt>
      <trkpt lat="48.8299" lon="2.34126">
        <ele>53.599998474121</ele>
        <time>2015-09-14T19:15:35.000Z</time>
      </trkpt>
      <trkpt lat="48.8297" lon="2.34129">
        <ele>51.799999237061</ele>
        <time>2015-09-14T19:15:39.000Z</time>
      </trkpt>
      <trkpt lat="48.82952" lon="2.34132">
        <ele>51</ele>
        <time>2015-09-14T19:15:43.000Z</time>
      </trkpt>
      <trkpt lat="48.82933" lon="2.34135">
        <ele>50.599998474121</ele>
        <time>2015-09-14T19:15:47.000Z</time>
      </trkpt>
      <trkpt lat="48.82911" lon="2.34139">
        <ele>50</ele>
        <time>2015-09-14T19:15:52.000Z</time>
      </trkpt>
      <trkpt lat="48.82891" lon="2.34143">
        <ele>49.599998474121</ele>
        <time>2015-09-14T19:15:56.000Z</time>
      </trkpt>
      <trkpt lat="48.82887" lon="2.34143">
        <ele>49.200000762939</ele>
        <time>2015-09-14T19:15:57.000Z</time>
      </trkpt>
      <trkpt lat="48.82867" lon="2.34149">
        <ele>48.200000762939</ele>
        <time>2015-09-14T19:16:02.000Z</time>
      </trkpt>
      <trkpt lat="48.82863" lon="2.3415">
        <ele>48.400001525879</ele>
        <time>2015-09-14T19:16:03.000Z</time>
      </trkpt>
      <trkpt lat="48.82843" lon="2.34151">
        <ele>47.599998474121</ele>
        <time>2015-09-14T19:16:09.000Z</time>
      </trkpt>
      <trkpt lat="48.82825" lon="2.34148">
        <ele>47.799999237061</ele>
        <time>2015-09-14T19:16:14.000Z</time>
      </trkpt>
      <trkpt lat="48.82806" lon="2.34146">
        <ele>48.599998474121</ele>
        <time>2015-09-14T19:16:18.000Z</time>
      </trkpt>
      <trkpt lat="48.82787" lon="2.34144">
        <ele>50</ele>
        <time>2015-09-14T19:16:22.000Z</time>
      </trkpt>
      <trkpt lat="48.82777" lon="2.34143">
        <ele>51.200000762939</ele>
        <time>2015-09-14T19:16:24.000Z</time>
      </trkpt>
      <trkpt lat="48.82758" lon="2.34137">
        <ele>53.599998474121</ele>
        <time>2015-09-14T19:16:28.000Z</time>
      </trkpt>
      <trkpt lat="48.82737" lon="2.34139">
        <ele>55.599998474121</ele>
        <time>2015-09-14T19:16:32.000Z</time>
      </trkpt>
      <trkpt lat="48.82731" lon="2.34139">
        <ele>56</ele>
        <time>2015-09-14T19:16:33.000Z</time>
      </trkpt>
      <trkpt lat="48.82711" lon="2.34143">
        <ele>53.400001525879</ele>
        <time>2015-09-14T19:16:36.000Z</time>
      </trkpt>
      <trkpt lat="48.82697" lon="2.34148">
        <ele>48.799999237061</ele>
        <time>2015-09-14T19:16:38.000Z</time>
      </trkpt>
      <trkpt lat="48.82686" lon="2.34149">
        <ele>48.400001525879</ele>
        <time>2015-09-14T19:16:41.000Z</time>
      </trkpt>
      <trkpt lat="48.82665" lon="2.3416">
        <ele>49.200000762939</ele>
        <time>2015-09-14T19:17:11.000Z</time>
      </trkpt>
      <trkpt lat="48.82652" lon="2.3418">
        <ele>49.200000762939</ele>
        <time>2015-09-14T19:17:18.000Z</time>
      </trkpt>
      <trkpt lat="48.82647" lon="2.3419">
        <ele>48.599998474121</ele>
        <time>2015-09-14T19:17:21.000Z</time>
      </trkpt>
      <trkpt lat="48.82631" lon="2.34205">
        <ele>46.400001525879</ele>
        <time>2015-09-14T19:17:28.000Z</time>
      </trkpt>
      <trkpt lat="48.82624" lon="2.34214">
        <ele>45.400001525879</ele>
        <time>2015-09-14T19:17:30.000Z</time>
      </trkpt>
      <trkpt lat="48.82607" lon="2.34235">
        <ele>46</ele>
        <time>2015-09-14T19:17:34.000Z</time>
      </trkpt>
      <trkpt lat="48.826" lon="2.34245">
        <ele>46.200000762939</ele>
        <time>2015-09-14T19:17:36.000Z</time>
      </trkpt>
      <trkpt lat="48.82585" lon="2.34265">
        <ele>42.599998474121</ele>
        <time>2015-09-14T19:17:40.000Z</time>
      </trkpt>
      <trkpt lat="48.82569" lon="2.34281">
        <ele>40</ele>
        <time>2015-09-14T19:17:44.000Z</time>
      </trkpt>
      <trkpt lat="48.82554" lon="2.34302">
        <ele>37.799999237061</ele>
        <time>2015-09-14T19:17:49.000Z</time>
      </trkpt>
      <trkpt lat="48.82544" lon="2.34316">
        <ele>36.599998474121</ele>
        <time>2015-09-14T19:17:52.000Z</time>
      </trkpt>
      <trkpt lat="48.82528" lon="2.34335">
        <ele>34.799999237061</ele>
        <time>2015-09-14T19:17:56.000Z</time>
      </trkpt>
      <trkpt lat="48.82511" lon="2.34353">
        <ele>35</ele>
        <time>2015-09-14T19:18:01.000Z</time>
      </trkpt>
      <trkpt lat="48.82498" lon="2.34368">
        <ele>34.400001525879</ele>
        <time>2015-09-14T19:18:05.000Z</time>
      </trkpt>
      <trkpt lat="48.82481" lon="2.34388">
        <ele>31</ele>
        <time>2015-09-14T19:18:09.000Z</time>
      </trkpt>
      <trkpt lat="48.82466" lon="2.34405">
        <ele>28.39999961853</ele>
        <time>2015-09-14T19:18:13.000Z</time>
      </trkpt>
      <trkpt lat="48.82452" lon="2.34422">
        <ele>26.799999237061</ele>
        <time>2015-09-14T19:18:17.000Z</time>
      </trkpt>
      <trkpt lat="48.82447" lon="2.34426">
        <ele>27</ele>
        <time>2015-09-14T19:18:18.000Z</time>
      </trkpt>
      <trkpt lat="48.8244" lon="2.34436">
        <ele>27</ele>
        <time>2015-09-14T19:18:20.000Z</time>
      </trkpt>
      <trkpt lat="48.82444" lon="2.34455">
        <ele>23</ele>
        <time>2015-09-14T19:18:26.000Z</time>
      </trkpt>
      <trkpt lat="48.82451" lon="2.34456">
        <ele>23.200000762939</ele>
        <time>2015-09-14T19:18:28.000Z</time>
      </trkpt>
      <trkpt lat="48.82458" lon="2.34459">
        <ele>22.60000038147</ele>
        <time>2015-09-14T19:18:30.000Z</time>
      </trkpt>
      <trkpt lat="48.82476" lon="2.34468">
        <ele>23.200000762939</ele>
        <time>2015-09-14T19:18:35.000Z</time>
      </trkpt>
      <trkpt lat="48.82495" lon="2.34479">
        <ele>24.200000762939</ele>
        <time>2015-09-14T19:18:40.000Z</time>
      </trkpt>
      <trkpt lat="48.82517" lon="2.34483">
        <ele>26.39999961853</ele>
        <time>2015-09-14T19:18:44.000Z</time>
      </trkpt>
      <trkpt lat="48.8254" lon="2.34493">
        <ele>29</ele>
        <time>2015-09-14T19:18:49.000Z</time>
      </trkpt>
      <trkpt lat="48.82556" lon="2.34496">
        <ele>30.799999237061</ele>
        <time>2015-09-14T19:18:52.000Z</time>
      </trkpt>
      <trkpt lat="48.82577" lon="2.34504">
        <ele>35.400001525879</ele>
        <time>2015-09-14T19:18:57.000Z</time>
      </trkpt>
      <trkpt lat="48.82596" lon="2.34509">
        <ele>43.200000762939</ele>
        <time>2015-09-14T19:19:03.000Z</time>
      </trkpt>
      <trkpt lat="48.82597" lon="2.34511">
        <ele>45.200000762939</ele>
        <time>2015-09-14T19:19:04.000Z</time>
      </trkpt>
      <trkpt lat="48.82597" lon="2.34513">
        <ele>48.599998474121</ele>
        <time>2015-09-14T19:19:06.000Z</time>
      </trkpt>
      <trkpt lat="48.82599" lon="2.34519">
        <ele>53.599998474121</ele>
        <time>2015-09-14T19:19:17.000Z</time>
      </trkpt>
      <trkpt lat="48.82602" lon="2.34526">
        <ele>66.800003051758</ele>
        <time>2015-09-14T19:19:39.000Z</time>
      </trkpt>
      <trkpt lat="48.82602" lon="2.34555">
        <ele>68.400001525879</ele>
        <time>2015-09-14T19:19:45.000Z</time>
      </trkpt>
      <trkpt lat="48.82601" lon="2.34567">
        <ele>68.800003051758</ele>
        <time>2015-09-14T19:19:47.000Z</time>
      </trkpt>
      <trkpt lat="48.82596" lon="2.34599">
        <ele>71</ele>
        <time>2015-09-14T19:19:52.000Z</time>
      </trkpt>
      <trkpt lat="48.82591" lon="2.34629">
        <ele>72</ele>
        <time>2015-09-14T19:19:57.000Z</time>
      </trkpt>
      <trkpt lat="48.82584" lon="2.34656">
        <ele>71.599998474121</ele>
        <time>2015-09-14T19:20:02.000Z</time>
      </trkpt>
      <trkpt lat="48.82577" lon="2.34683">
        <ele>71.599998474121</ele>
        <time>2015-09-14T19:20:07.000Z</time>
      </trkpt>
      <trkpt lat="48.82573" lon="2.34712">
        <ele>71.800003051758</ele>
        <time>2015-09-14T19:20:12.000Z</time>
      </trkpt>
      <trkpt lat="48.82573" lon="2.34734">
        <ele>73.599998474121</ele>
        <time>2015-09-14T19:20:19.000Z</time>
      </trkpt>
      <trkpt lat="48.8259" lon="2.34733">
        <ele>75</ele>
        <time>2015-09-14T19:20:34.000Z</time>
      </trkpt>
      <trkpt lat="48.82593" lon="2.34733">
        <ele>75.599998474121</ele>
        <time>2015-09-14T19:20:36.000Z</time>
      </trkpt>
      <trkpt lat="48.82611" lon="2.34741">
        <ele>69.599998474121</ele>
        <time>2015-09-14T19:20:48.000Z</time>
      </trkpt>
      <trkpt lat="48.82628" lon="2.34752">
        <ele>70.199996948242</ele>
        <time>2015-09-14T19:20:55.000Z</time>
      </trkpt>
      <trkpt lat="48.82647" lon="2.34768">
        <ele>69.599998474121</ele>
        <time>2015-09-14T19:21:02.000Z</time>
      </trkpt>
      <trkpt lat="48.82665" lon="2.34778">
        <ele>68.599998474121</ele>
        <time>2015-09-14T19:21:09.000Z</time>
      </trkpt>
      <trkpt lat="48.82685" lon="2.348">
        <ele>65.800003051758</ele>
        <time>2015-09-14T19:21:16.000Z</time>
      </trkpt>
      <trkpt lat="48.827" lon="2.34824">
        <ele>60</ele>
        <time>2015-09-14T19:21:23.000Z</time>
      </trkpt>
      <trkpt lat="48.82719" lon="2.3484">
        <ele>55.599998474121</ele>
        <time>2015-09-14T19:21:29.000Z</time>
      </trkpt>
      <trkpt lat="48.82735" lon="2.34853">
        <ele>52.799999237061</ele>
        <time>2015-09-14T19:21:34.000Z</time>
      </trkpt>
      <trkpt lat="48.8275" lon="2.34872">
        <ele>50.200000762939</ele>
        <time>2015-09-14T19:21:41.000Z</time>
      </trkpt>
      <trkpt lat="48.82753" lon="2.34878">
        <ele>48.400001525879</ele>
        <time>2015-09-14T19:21:46.000Z</time>
      </trkpt>
      <trkpt lat="48.82769" lon="2.34886">
        <ele>50.400001525879</ele>
        <time>2015-09-14T19:22:03.000Z</time>
      </trkpt>
      <trkpt lat="48.8277" lon="2.34886">
        <ele>50.400001525879</ele>
        <time>2015-09-14T19:22:04.000Z</time>
      </trkpt>
      <trkpt lat="48.82767" lon="2.34894">
        <ele>50.200000762939</ele>
        <time>2015-09-14T19:22:14.000Z</time>
      </trkpt>
      <trkpt lat="48.82758" lon="2.349">
        <ele>51</ele>
        <time>2015-09-14T19:23:00.000Z</time>
      </trkpt>
      <trkpt lat="48.82759" lon="2.34911">
        <ele>53.799999237061</ele>
        <time>2015-09-14T19:23:59.000Z</time>
      </trkpt>
      <trkpt lat="48.82761" lon="2.34939">
        <ele>54.599998474121</ele>
        <time>2015-09-14T19:24:10.000Z</time>
      </trkpt>
      <trkpt lat="48.82763" lon="2.34939">
        <ele>54.799999237061</ele>
        <time>2015-09-14T19:24:11.000Z</time>
      </trkpt>
      <trkpt lat="48.82772" lon="2.34944">
        <ele>55.400001525879</ele>
        <time>2015-09-14T19:24:17.000Z</time>
      </trkpt>
      <trkpt lat="48.82788" lon="2.34958">
        <ele>57</ele>
        <time>2015-09-14T19:24:22.000Z</time>
      </trkpt>
      <trkpt lat="48.82803" lon="2.34979">
        <ele>57.200000762939</ele>
        <time>2015-09-14T19:24:29.000Z</time>
      </trkpt>
      <trkpt lat="48.82817" lon="2.34996">
        <ele>56.200000762939</ele>
        <time>2015-09-14T19:24:35.000Z</time>
      </trkpt>
      <trkpt lat="48.82835" lon="2.35011">
        <ele>57.200000762939</ele>
        <time>2015-09-14T19:24:41.000Z</time>
      </trkpt>
      <trkpt lat="48.82851" lon="2.35026">
        <ele>56.799999237061</ele>
        <time>2015-09-14T19:24:46.000Z</time>
      </trkpt>
      <trkpt lat="48.82867" lon="2.35039">
        <ele>57</ele>
        <time>2015-09-14T19:24:50.000Z</time>
      </trkpt>
      <trkpt lat="48.82883" lon="2.3505">
        <ele>56.799999237061</ele>
        <time>2015-09-14T19:24:54.000Z</time>
      </trkpt>
      <trkpt lat="48.82895" lon="2.35068">
        <ele>56.400001525879</ele>
        <time>2015-09-14T19:25:00.000Z</time>
      </trkpt>
      <trkpt lat="48.82892" lon="2.35088">
        <ele>56</ele>
        <time>2015-09-14T19:25:04.000Z</time>
      </trkpt>
      <trkpt lat="48.82896" lon="2.3511">
        <ele>53.200000762939</ele>
        <time>2015-09-14T19:25:11.000Z</time>
      </trkpt>
      <trkpt lat="48.82908" lon="2.35124">
        <ele>53</ele>
        <time>2015-09-14T19:25:18.000Z</time>
      </trkpt>
      <trkpt lat="48.8291" lon="2.35127">
        <ele>52.599998474121</ele>
        <time>2015-09-14T19:25:20.000Z</time>
      </trkpt>
      <trkpt lat="48.829" lon="2.35144">
        <ele>51.200000762939</ele>
        <time>2015-09-14T19:25:25.000Z</time>
      </trkpt>
      <trkpt lat="48.82888" lon="2.35169">
        <ele>51.200000762939</ele>
        <time>2015-09-14T19:25:31.000Z</time>
      </trkpt>
      <trkpt lat="48.82884" lon="2.352">
        <ele>50</ele>
        <time>2015-09-14T19:25:42.000Z</time>
      </trkpt>
      <trkpt lat="48.82869" lon="2.3522">
        <ele>51</ele>
        <time>2015-09-14T19:25:48.000Z</time>
      </trkpt>
      <trkpt lat="48.82855" lon="2.35242">
        <ele>52.799999237061</ele>
        <time>2015-09-14T19:25:55.000Z</time>
      </trkpt>
      <trkpt lat="48.82847" lon="2.35274">
        <ele>49.400001525879</ele>
        <time>2015-09-14T19:26:03.000Z</time>
      </trkpt>
      <trkpt lat="48.82829" lon="2.35289">
        <ele>49.799999237061</ele>
        <time>2015-09-14T19:26:09.000Z</time>
      </trkpt>
      <trkpt lat="48.82816" lon="2.35312">
        <ele>50.400001525879</ele>
        <time>2015-09-14T19:26:15.000Z</time>
      </trkpt>
      <trkpt lat="48.82802" lon="2.35331">
        <ele>50.400001525879</ele>
        <time>2015-09-14T19:26:21.000Z</time>
      </trkpt>
      <trkpt lat="48.82794" lon="2.35357">
        <ele>48.400001525879</ele>
        <time>2015-09-14T19:26:26.000Z</time>
      </trkpt>
      <trkpt lat="48.82783" lon="2.35383">
        <ele>46.400001525879</ele>
        <time>2015-09-14T19:26:30.000Z</time>
      </trkpt>
      <trkpt lat="48.82776" lon="2.35411">
        <ele>44.799999237061</ele>
        <time>2015-09-14T19:26:39.000Z</time>
      </trkpt>
      <trkpt lat="48.82774" lon="2.35415">
        <ele>42</ele>
        <time>2015-09-14T19:26:52.000Z</time>
      </trkpt>
      <trkpt lat="48.82771" lon="2.35418">
        <ele>43</ele>
        <time>2015-09-14T19:26:56.000Z</time>
      </trkpt>
      <trkpt lat="48.82769" lon="2.35419">
        <ele>44.200000762939</ele>
        <time>2015-09-14T19:26:58.000Z</time>
      </trkpt>
      <trkpt lat="48.82773" lon="2.35441">
        <ele>54.799999237061</ele>
        <time>2015-09-14T19:27:34.000Z</time>
      </trkpt>
      <trkpt lat="48.82781" lon="2.35468">
        <ele>55</ele>
        <time>2015-09-14T19:27:40.000Z</time>
      </trkpt>
      <trkpt lat="48.82793" lon="2.35493">
        <ele>54.599998474121</ele>
        <time>2015-09-14T19:27:46.000Z</time>
      </trkpt>
      <trkpt lat="48.82803" lon="2.35516">
        <ele>54</ele>
        <time>2015-09-14T19:27:51.000Z</time>
      </trkpt>
      <trkpt lat="48.82822" lon="2.35529">
        <ele>54.599998474121</ele>
        <time>2015-09-14T19:27:56.000Z</time>
      </trkpt>
      <trkpt lat="48.82829" lon="2.35533">
        <ele>55.200000762939</ele>
        <time>2015-09-14T19:27:58.000Z</time>
      </trkpt>
      <trkpt lat="48.82832" lon="2.3556">
        <ele>54.200000762939</ele>
        <time>2015-09-14T19:28:02.000Z</time>
      </trkpt>
      <trkpt lat="48.82836" lon="2.35588">
        <ele>52.799999237061</ele>
        <time>2015-09-14T19:28:07.000Z</time>
      </trkpt>
      <trkpt lat="48.82848" lon="2.35611">
        <ele>52.599998474121</ele>
        <time>2015-09-14T19:28:12.000Z</time>
      </trkpt>
      <trkpt lat="48.82857" lon="2.35638">
        <ele>53.200000762939</ele>
        <time>2015-09-14T19:28:17.000Z</time>
      </trkpt>
      <trkpt lat="48.82864" lon="2.35643">
        <ele>53.200000762939</ele>
        <time>2015-09-14T19:28:19.000Z</time>
      </trkpt>
      <trkpt lat="48.82879" lon="2.35648">
        <ele>55.200000762939</ele>
        <time>2015-09-14T19:28:25.000Z</time>
      </trkpt>
      <trkpt lat="48.82899" lon="2.35643">
        <ele>54</ele>
        <time>2015-09-14T19:28:29.000Z</time>
      </trkpt>
      <trkpt lat="48.82919" lon="2.35636">
        <ele>54.599998474121</ele>
        <time>2015-09-14T19:28:33.000Z</time>
      </trkpt>
      <trkpt lat="48.8294" lon="2.35631">
        <ele>56.400001525879</ele>
        <time>2015-09-14T19:28:37.000Z</time>
      </trkpt>
      <trkpt lat="48.8295" lon="2.35628">
        <ele>55.799999237061</ele>
        <time>2015-09-14T19:28:39.000Z</time>
      </trkpt>
      <trkpt lat="48.8297" lon="2.35623">
        <ele>56.400001525879</ele>
        <time>2015-09-14T19:28:43.000Z</time>
      </trkpt>
      <trkpt lat="48.8299" lon="2.35614">
        <ele>56.799999237061</ele>
        <time>2015-09-14T19:28:48.000Z</time>
      </trkpt>
      <trkpt lat="48.8301" lon="2.35612">
        <ele>57.400001525879</ele>
        <time>2015-09-14T19:28:52.000Z</time>
      </trkpt>
      <trkpt lat="48.8303" lon="2.35607">
        <ele>58.599998474121</ele>
        <time>2015-09-14T19:28:56.000Z</time>
      </trkpt>
      <trkpt lat="48.83051" lon="2.35602">
        <ele>65.400001525879</ele>
        <time>2015-09-14T19:29:01.000Z</time>
      </trkpt>
      <trkpt lat="48.83068" lon="2.35597">
        <ele>78.400001525879</ele>
        <time>2015-09-14T19:29:05.000Z</time>
      </trkpt>
      <trkpt lat="48.8308" lon="2.35605">
        <ele>88</ele>
        <time>2015-09-14T19:29:09.000Z</time>
      </trkpt>
      <trkpt lat="48.83084" lon="2.35607">
        <ele>90.400001525879</ele>
        <time>2015-09-14T19:29:10.000Z</time>
      </trkpt>
      <trkpt lat="48.83098" lon="2.35625">
        <ele>94.599998474121</ele>
        <time>2015-09-14T19:29:15.000Z</time>
      </trkpt>
      <trkpt lat="48.83103" lon="2.35632">
        <ele>92.599998474121</ele>
        <time>2015-09-14T19:29:17.000Z</time>
      </trkpt>
      <trkpt lat="48.83109" lon="2.3564">
        <ele>91.800003051758</ele>
        <time>2015-09-14T19:29:19.000Z</time>
      </trkpt>
      <trkpt lat="48.83118" lon="2.35665">
        <ele>94.199996948242</ele>
        <time>2015-09-14T19:29:24.000Z</time>
      </trkpt>
      <trkpt lat="48.8312" lon="2.3567">
        <ele>94.800003051758</ele>
        <time>2015-09-14T19:29:25.000Z</time>
      </trkpt>
      <trkpt lat="48.83123" lon="2.35678">
        <ele>96</ele>
        <time>2015-09-14T19:29:27.000Z</time>
      </trkpt>
      <trkpt lat="48.83129" lon="2.35699">
        <ele>96</ele>
        <time>2015-09-14T19:29:31.000Z</time>
      </trkpt>
      <trkpt lat="48.83132" lon="2.35715">
        <ele>93.199996948242</ele>
        <time>2015-09-14T19:29:34.000Z</time>
      </trkpt>
      <trkpt lat="48.83136" lon="2.35735">
        <ele>84.599998474121</ele>
        <time>2015-09-14T19:29:38.000Z</time>
      </trkpt>
      <trkpt lat="48.83137" lon="2.35771">
        <ele>68.599998474121</ele>
        <time>2015-09-14T19:29:44.000Z</time>
      </trkpt>
      <trkpt lat="48.83143" lon="2.35798">
        <ele>62.400001525879</ele>
        <time>2015-09-14T19:29:48.000Z</time>
      </trkpt>
      <trkpt lat="48.83143" lon="2.35812">
        <ele>59.599998474121</ele>
        <time>2015-09-14T19:29:51.000Z</time>
      </trkpt>
      <trkpt lat="48.83127" lon="2.35831">
        <ele>58</ele>
        <time>2015-09-14T19:29:57.000Z</time>
      </trkpt>
      <trkpt lat="48.83112" lon="2.35852">
        <ele>56</ele>
        <time>2015-09-14T19:30:04.000Z</time>
      </trkpt>
      <trkpt lat="48.83097" lon="2.3587">
        <ele>56.400001525879</ele>
        <time>2015-09-14T19:30:09.000Z</time>
      </trkpt>
      <trkpt lat="48.8308" lon="2.35885">
        <ele>56.200000762939</ele>
        <time>2015-09-14T19:30:13.000Z</time>
      </trkpt>
      <trkpt lat="48.83065" lon="2.35901">
        <ele>55.400001525879</ele>
        <time>2015-09-14T19:30:16.000Z</time>
      </trkpt>
      <trkpt lat="48.83045" lon="2.35919">
        <ele>54.200000762939</ele>
        <time>2015-09-14T19:30:20.000Z</time>
      </trkpt>
      <trkpt lat="48.8303" lon="2.35937">
        <ele>53.400001525879</ele>
        <time>2015-09-14T19:30:24.000Z</time>
      </trkpt>
      <trkpt lat="48.83016" lon="2.35959">
        <ele>53</ele>
        <time>2015-09-14T19:30:30.000Z</time>
      </trkpt>
      <trkpt lat="48.82999" lon="2.35979">
        <ele>52.400001525879</ele>
        <time>2015-09-14T19:30:34.000Z</time>
      </trkpt>
      <trkpt lat="48.82983" lon="2.35996">
        <ele>52.599998474121</ele>
        <time>2015-09-14T19:30:37.000Z</time>
      </trkpt>
      <trkpt lat="48.82978" lon="2.36001">
        <ele>53.400001525879</ele>
        <time>2015-09-14T19:30:38.000Z</time>
      </trkpt>
      <trkpt lat="48.8296" lon="2.36021">
        <ele>52.599998474121</ele>
        <time>2015-09-14T19:30:42.000Z</time>
      </trkpt>
      <trkpt lat="48.82945" lon="2.36041">
        <ele>53.400001525879</ele>
        <time>2015-09-14T19:30:46.000Z</time>
      </trkpt>
      <trkpt lat="48.82934" lon="2.36054">
        <ele>55.200000762939</ele>
        <time>2015-09-14T19:30:49.000Z</time>
      </trkpt>
      <trkpt lat="48.8294" lon="2.36076">
        <ele>55.400001525879</ele>
        <time>2015-09-14T19:30:55.000Z</time>
      </trkpt>
      <trkpt lat="48.82943" lon="2.3608">
        <ele>55.200000762939</ele>
        <time>2015-09-14T19:30:56.000Z</time>
      </trkpt>
      <trkpt lat="48.82944" lon="2.36084">
        <ele>55.200000762939</ele>
        <time>2015-09-14T19:30:57.000Z</time>
      </trkpt>
      <trkpt lat="48.82951" lon="2.36093">
        <ele>53.400001525879</ele>
        <time>2015-09-14T19:30:59.000Z</time>
      </trkpt>
      <trkpt lat="48.82965" lon="2.3612">
        <ele>48.400001525879</ele>
        <time>2015-09-14T19:31:04.000Z</time>
      </trkpt>
      <trkpt lat="48.82981" lon="2.36144">
        <ele>47.200000762939</ele>
        <time>2015-09-14T19:31:08.000Z</time>
      </trkpt>
      <trkpt lat="48.82994" lon="2.36165">
        <ele>45.799999237061</ele>
        <time>2015-09-14T19:31:11.000Z</time>
      </trkpt>
      <trkpt lat="48.83008" lon="2.36192">
        <ele>43.799999237061</ele>
        <time>2015-09-14T19:31:15.000Z</time>
      </trkpt>
      <trkpt lat="48.83015" lon="2.36204">
        <ele>42.799999237061</ele>
        <time>2015-09-14T19:31:17.000Z</time>
      </trkpt>
      <trkpt lat="48.83021" lon="2.36213">
        <ele>44</ele>
        <time>2015-09-14T19:31:19.000Z</time>
      </trkpt>
      <trkpt lat="48.83025" lon="2.3622">
        <ele>44.400001525879</ele>
        <time>2015-09-14T19:31:21.000Z</time>
      </trkpt>
      <trkpt lat="48.8302" lon="2.3624">
        <ele>46</ele>
        <time>2015-09-14T19:31:26.000Z</time>
      </trkpt>
      <trkpt lat="48.83007" lon="2.36265">
        <ele>46.799999237061</ele>
        <time>2015-09-14T19:31:31.000Z</time>
      </trkpt>
      <trkpt lat="48.83" lon="2.36288">
        <ele>48.200000762939</ele>
        <time>2015-09-14T19:31:36.000Z</time>
      </trkpt>
      <trkpt lat="48.82992" lon="2.36308">
        <ele>48.400001525879</ele>
        <time>2015-09-14T19:31:40.000Z</time>
      </trkpt>
      <trkpt lat="48.82981" lon="2.36333">
        <ele>48.400001525879</ele>
        <time>2015-09-14T19:31:44.000Z</time>
      </trkpt>
      <trkpt lat="48.82975" lon="2.36366">
        <ele>53.599998474121</ele>
        <time>2015-09-14T19:31:49.000Z</time>
      </trkpt>
      <trkpt lat="48.82966" lon="2.36393">
        <ele>57.200000762939</ele>
        <time>2015-09-14T19:31:53.000Z</time>
      </trkpt>
      <trkpt lat="48.82956" lon="2.36425">
        <ele>58.599998474121</ele>
        <time>2015-09-14T19:31:57.000Z</time>
      </trkpt>
      <trkpt lat="48.82945" lon="2.36456">
        <ele>58.599998474121</ele>
        <time>2015-09-14T19:32:01.000Z</time>
      </trkpt>
      <trkpt lat="48.82937" lon="2.36483">
        <ele>58.400001525879</ele>
        <time>2015-09-14T19:32:05.000Z</time>
      </trkpt>
      <trkpt lat="48.82927" lon="2.3651">
        <ele>59.400001525879</ele>
        <time>2015-09-14T19:32:10.000Z</time>
      </trkpt>
      <trkpt lat="48.82919" lon="2.36534">
        <ele>60.200000762939</ele>
        <time>2015-09-14T19:32:16.000Z</time>
      </trkpt>
      <trkpt lat="48.82924" lon="2.36548">
        <ele>61.400001525879</ele>
        <time>2015-09-14T19:32:23.000Z</time>
      </trkpt>
      <trkpt lat="48.82924" lon="2.36548">
        <ele>61.400001525879</ele>
        <time>2015-09-14T19:32:24.000Z</time>
      </trkpt>
      <trkpt lat="48.82908" lon="2.36569">
        <ele>60</ele>
        <time>2015-09-14T19:32:32.000Z</time>
      </trkpt>
      <trkpt lat="48.82897" lon="2.36597">
        <ele>57</ele>
        <time>2015-09-14T19:32:37.000Z</time>
      </trkpt>
      <trkpt lat="48.82885" lon="2.36621">
        <ele>54</ele>
        <time>2015-09-14T19:32:41.000Z</time>
      </trkpt>
      <trkpt lat="48.82873" lon="2.36648">
        <ele>51</ele>
        <time>2015-09-14T19:32:46.000Z</time>
      </trkpt>
      <trkpt lat="48.82865" lon="2.36676">
        <ele>49.200000762939</ele>
        <time>2015-09-14T19:32:52.000Z</time>
      </trkpt>
      <trkpt lat="48.82854" lon="2.36702">
        <ele>46.599998474121</ele>
        <time>2015-09-14T19:32:59.000Z</time>
      </trkpt>
      <trkpt lat="48.8285" lon="2.36717">
        <ele>46.400001525879</ele>
        <time>2015-09-14T19:33:03.000Z</time>
      </trkpt>
      <trkpt lat="48.82844" lon="2.36729">
        <ele>48.200000762939</ele>
        <time>2015-09-14T19:33:09.000Z</time>
      </trkpt>
      <trkpt lat="48.82842" lon="2.36743">
        <ele>57</ele>
        <time>2015-09-14T19:34:06.000Z</time>
      </trkpt>
      <trkpt lat="48.82839" lon="2.3677">
        <ele>56.799999237061</ele>
        <time>2015-09-14T19:34:12.000Z</time>
      </trkpt>
      <trkpt lat="48.82837" lon="2.36797">
        <ele>56.200000762939</ele>
        <time>2015-09-14T19:34:17.000Z</time>
      </trkpt>
      <trkpt lat="48.82833" lon="2.36827">
        <ele>56.799999237061</ele>
        <time>2015-09-14T19:34:22.000Z</time>
      </trkpt>
      <trkpt lat="48.82828" lon="2.36854">
        <ele>56.799999237061</ele>
        <time>2015-09-14T19:34:26.000Z</time>
      </trkpt>
      <trkpt lat="48.82818" lon="2.36884">
        <ele>56.200000762939</ele>
        <time>2015-09-14T19:34:30.000Z</time>
      </trkpt>
      <trkpt lat="48.82816" lon="2.36913">
        <ele>56.200000762939</ele>
        <time>2015-09-14T19:34:34.000Z</time>
      </trkpt>
      <trkpt lat="48.82812" lon="2.36945">
        <ele>56.599998474121</ele>
        <time>2015-09-14T19:34:39.000Z</time>
      </trkpt>
      <trkpt lat="48.82805" lon="2.36977">
        <ele>58</ele>
        <time>2015-09-14T19:34:44.000Z</time>
      </trkpt>
      <trkpt lat="48.82803" lon="2.36991">
        <ele>58.599998474121</ele>
        <time>2015-09-14T19:34:46.000Z</time>
      </trkpt>
      <trkpt lat="48.82799" lon="2.37019">
        <ele>58</ele>
        <time>2015-09-14T19:34:50.000Z</time>
      </trkpt>
      <trkpt lat="48.82791" lon="2.37051">
        <ele>56.599998474121</ele>
        <time>2015-09-14T19:34:55.000Z</time>
      </trkpt>
      <trkpt lat="48.82785" lon="2.37072">
        <ele>55.200000762939</ele>
        <time>2015-09-14T19:34:59.000Z</time>
      </trkpt>
      <trkpt lat="48.82777" lon="2.37089">
        <ele>57.599998474121</ele>
        <time>2015-09-14T19:35:06.000Z</time>
      </trkpt>
      <trkpt lat="48.82775" lon="2.37091">
        <ele>58</ele>
        <time>2015-09-14T19:35:07.000Z</time>
      </trkpt>
      <trkpt lat="48.82772" lon="2.37117">
        <ele>58.599998474121</ele>
        <time>2015-09-14T19:35:15.000Z</time>
      </trkpt>
      <trkpt lat="48.82775" lon="2.37144">
        <ele>57.200000762939</ele>
        <time>2015-09-14T19:35:22.000Z</time>
      </trkpt>
      <trkpt lat="48.82764" lon="2.3717">
        <ele>58.599998474121</ele>
        <time>2015-09-14T19:35:29.000Z</time>
      </trkpt>
      <trkpt lat="48.82749" lon="2.37192">
        <ele>62</ele>
        <time>2015-09-14T19:35:35.000Z</time>
      </trkpt>
      <trkpt lat="48.82735" lon="2.37217">
        <ele>63.799999237061</ele>
        <time>2015-09-14T19:35:40.000Z</time>
      </trkpt>
      <trkpt lat="48.82723" lon="2.37243">
        <ele>66</ele>
        <time>2015-09-14T19:35:45.000Z</time>
      </trkpt>
      <trkpt lat="48.8271" lon="2.37267">
        <ele>67.400001525879</ele>
        <time>2015-09-14T19:35:49.000Z</time>
      </trkpt>
      <trkpt lat="48.82698" lon="2.37291">
        <ele>70.199996948242</ele>
        <time>2015-09-14T19:35:53.000Z</time>
      </trkpt>
      <trkpt lat="48.82686" lon="2.37312">
        <ele>70.400001525879</ele>
        <time>2015-09-14T19:35:56.000Z</time>
      </trkpt>
      <trkpt lat="48.82673" lon="2.37332">
        <ele>71.400001525879</ele>
        <time>2015-09-14T19:35:59.000Z</time>
      </trkpt>
      <trkpt lat="48.82656" lon="2.37357">
        <ele>71.599998474121</ele>
        <time>2015-09-14T19:36:03.000Z</time>
      </trkpt>
      <trkpt lat="48.8264" lon="2.37384">
        <ele>73.800003051758</ele>
        <time>2015-09-14T19:36:07.000Z</time>
      </trkpt>
      <trkpt lat="48.82629" lon="2.37406">
        <ele>74.400001525879</ele>
        <time>2015-09-14T19:36:10.000Z</time>
      </trkpt>
      <trkpt lat="48.82613" lon="2.37432">
        <ele>75.400001525879</ele>
        <time>2015-09-14T19:36:14.000Z</time>
      </trkpt>
      <trkpt lat="48.82607" lon="2.37446">
        <ele>76.400001525879</ele>
        <time>2015-09-14T19:36:16.000Z</time>
      </trkpt>
      <trkpt lat="48.82589" lon="2.3747">
        <ele>77</ele>
        <time>2015-09-14T19:36:20.000Z</time>
      </trkpt>
      <trkpt lat="48.82573" lon="2.37489">
        <ele>77</ele>
        <time>2015-09-14T19:36:24.000Z</time>
      </trkpt>
      <trkpt lat="48.82557" lon="2.37509">
        <ele>77.800003051758</ele>
        <time>2015-09-14T19:36:28.000Z</time>
      </trkpt>
      <trkpt lat="48.82539" lon="2.37532">
        <ele>77.800003051758</ele>
        <time>2015-09-14T19:36:32.000Z</time>
      </trkpt>
      <trkpt lat="48.82521" lon="2.37555">
        <ele>77.199996948242</ele>
        <time>2015-09-14T19:36:36.000Z</time>
      </trkpt>
      <trkpt lat="48.82504" lon="2.37579">
        <ele>76.400001525879</ele>
        <time>2015-09-14T19:36:40.000Z</time>
      </trkpt>
      <trkpt lat="48.82491" lon="2.37599">
        <ele>74.800003051758</ele>
        <time>2015-09-14T19:36:44.000Z</time>
      </trkpt>
      <trkpt lat="48.82478" lon="2.3762">
        <ele>71.800003051758</ele>
        <time>2015-09-14T19:36:49.000Z</time>
      </trkpt>
      <trkpt lat="48.82472" lon="2.37631">
        <ele>68.800003051758</ele>
        <time>2015-09-14T19:36:52.000Z</time>
      </trkpt>
      <trkpt lat="48.82469" lon="2.37641">
        <ele>63</ele>
        <time>2015-09-14T19:36:56.000Z</time>
      </trkpt>
      <trkpt lat="48.8247" lon="2.37641">
        <ele>61.599998474121</ele>
        <time>2015-09-14T19:36:57.000Z</time>
      </trkpt>
      <trkpt lat="48.82471" lon="2.37643">
        <ele>59.599998474121</ele>
        <time>2015-09-14T19:36:59.000Z</time>
      </trkpt>
      <trkpt lat="48.82469" lon="2.37665">
        <ele>53</ele>
        <time>2015-09-14T19:37:34.000Z</time>
      </trkpt>
      <trkpt lat="48.82468" lon="2.37692">
        <ele>51.400001525879</ele>
        <time>2015-09-14T19:37:39.000Z</time>
      </trkpt>
      <trkpt lat="48.82474" lon="2.37719">
        <ele>46.799999237061</ele>
        <time>2015-09-14T19:37:44.000Z</time>
      </trkpt>
      <trkpt lat="48.82482" lon="2.37751">
        <ele>43</ele>
        <time>2015-09-14T19:37:49.000Z</time>
      </trkpt>
      <trkpt lat="48.82492" lon="2.37779">
        <ele>40.599998474121</ele>
        <time>2015-09-14T19:37:53.000Z</time>
      </trkpt>
      <trkpt lat="48.82503" lon="2.37807">
        <ele>37</ele>
        <time>2015-09-14T19:37:57.000Z</time>
      </trkpt>
      <trkpt lat="48.82512" lon="2.37836">
        <ele>34.200000762939</ele>
        <time>2015-09-14T19:38:01.000Z</time>
      </trkpt>
      <trkpt lat="48.82522" lon="2.37856">
        <ele>32</ele>
        <time>2015-09-14T19:38:04.000Z</time>
      </trkpt>
      <trkpt lat="48.82532" lon="2.37886">
        <ele>29.60000038147</ele>
        <time>2015-09-14T19:38:08.000Z</time>
      </trkpt>
      <trkpt lat="48.82543" lon="2.37914">
        <ele>28.39999961853</ele>
        <time>2015-09-14T19:38:12.000Z</time>
      </trkpt>
      <trkpt lat="48.82552" lon="2.37938">
        <ele>27.60000038147</ele>
        <time>2015-09-14T19:38:16.000Z</time>
      </trkpt>
      <trkpt lat="48.82554" lon="2.37948">
        <ele>27</ele>
        <time>2015-09-14T19:38:18.000Z</time>
      </trkpt>
      <trkpt lat="48.82555" lon="2.37955">
        <ele>26.799999237061</ele>
        <time>2015-09-14T19:38:20.000Z</time>
      </trkpt>
      <trkpt lat="48.82557" lon="2.37961">
        <ele>26.799999237061</ele>
        <time>2015-09-14T19:38:22.000Z</time>
      </trkpt>
      <trkpt lat="48.82558" lon="2.37966">
        <ele>27.200000762939</ele>
        <time>2015-09-14T19:38:26.000Z</time>
      </trkpt>
      <trkpt lat="48.82552" lon="2.37949">
        <ele>31</ele>
        <time>2015-09-14T19:38:37.000Z</time>
      </trkpt>
      <trkpt lat="48.82562" lon="2.37929">
        <ele>29.60000038147</ele>
        <time>2015-09-14T19:38:44.000Z</time>
      </trkpt>
      <trkpt lat="48.82568" lon="2.37921">
        <ele>29.200000762939</ele>
        <time>2015-09-14T19:38:46.000Z</time>
      </trkpt>
      <trkpt lat="48.82585" lon="2.37901">
        <ele>28.39999961853</ele>
        <time>2015-09-14T19:38:51.000Z</time>
      </trkpt>
      <trkpt lat="48.82601" lon="2.37883">
        <ele>28</ele>
        <time>2015-09-14T19:38:55.000Z</time>
      </trkpt>
      <trkpt lat="48.82617" lon="2.37862">
        <ele>27.39999961853</ele>
        <time>2015-09-14T19:38:59.000Z</time>
      </trkpt>
      <trkpt lat="48.8263" lon="2.37842">
        <ele>28.200000762939</ele>
        <time>2015-09-14T19:39:04.000Z</time>
      </trkpt>
      <trkpt lat="48.82637" lon="2.37834">
        <ele>27.799999237061</ele>
        <time>2015-09-14T19:39:08.000Z</time>
      </trkpt>
      <trkpt lat="48.82648" lon="2.37854">
        <ele>29.60000038147</ele>
        <time>2015-09-14T19:39:12.000Z</time>
      </trkpt>
      <trkpt lat="48.82657" lon="2.37878">
        <ele>29.200000762939</ele>
        <time>2015-09-14T19:39:16.000Z</time>
      </trkpt>
      <trkpt lat="48.82658" lon="2.37906">
        <ele>26.39999961853</ele>
        <time>2015-09-14T19:39:24.000Z</time>
      </trkpt>
      <trkpt lat="48.82741" lon="2.38074">
        <ele>76.400001525879</ele>
        <time>2015-09-14T19:39:41.000Z</time>
      </trkpt>
      <trkpt lat="48.82755" lon="2.38095">
        <ele>65.599998474121</ele>
        <time>2015-09-14T19:39:44.000Z</time>
      </trkpt>
      <trkpt lat="48.82765" lon="2.38119">
        <ele>66.400001525879</ele>
        <time>2015-09-14T19:39:47.000Z</time>
      </trkpt>
      <trkpt lat="48.82777" lon="2.38149">
        <ele>67.800003051758</ele>
        <time>2015-09-14T19:39:51.000Z</time>
      </trkpt>
      <trkpt lat="48.8278" lon="2.38156">
        <ele>69.400001525879</ele>
        <time>2015-09-14T19:39:52.000Z</time>
      </trkpt>
      <trkpt lat="48.8279" lon="2.38179">
        <ele>64</ele>
        <time>2015-09-14T19:39:57.000Z</time>
      </trkpt>
      <trkpt lat="48.82796" lon="2.38207">
        <ele>47.799999237061</ele>
        <time>2015-09-14T19:40:02.000Z</time>
      </trkpt>
      <trkpt lat="48.8281" lon="2.38231">
        <ele>45.200000762939</ele>
        <time>2015-09-14T19:40:08.000Z</time>
      </trkpt>
      <trkpt lat="48.82813" lon="2.3824">
        <ele>48.400001525879</ele>
        <time>2015-09-14T19:40:14.000Z</time>
      </trkpt>
      <trkpt lat="48.82822" lon="2.3824">
        <ele>48.200000762939</ele>
        <time>2015-09-14T19:40:22.000Z</time>
      </trkpt>
      <trkpt lat="48.82841" lon="2.38242">
        <ele>52.599998474121</ele>
        <time>2015-09-14T19:40:32.000Z</time>
      </trkpt>
      <trkpt lat="48.82854" lon="2.38222">
        <ele>49</ele>
        <time>2015-09-14T19:40:40.000Z</time>
      </trkpt>
      <trkpt lat="48.8286" lon="2.38208">
        <ele>48.200000762939</ele>
        <time>2015-09-14T19:40:45.000Z</time>
      </trkpt>
      <trkpt lat="48.8285" lon="2.38182">
        <ele>49.400001525879</ele>
        <time>2015-09-14T19:40:52.000Z</time>
      </trkpt>
      <trkpt lat="48.8284" lon="2.38153">
        <ele>50.599998474121</ele>
        <time>2015-09-14T19:40:58.000Z</time>
      </trkpt>
      <trkpt lat="48.82829" lon="2.38132">
        <ele>50.799999237061</ele>
        <time>2015-09-14T19:41:02.000Z</time>
      </trkpt>
      <trkpt lat="48.82815" lon="2.38109">
        <ele>50.400001525879</ele>
        <time>2015-09-14T19:41:06.000Z</time>
      </trkpt>
      <trkpt lat="48.82809" lon="2.38079">
        <ele>48.599998474121</ele>
        <time>2015-09-14T19:41:11.000Z</time>
      </trkpt>
      <trkpt lat="48.8281" lon="2.38075">
        <ele>47.799999237061</ele>
        <time>2015-09-14T19:41:12.000Z</time>
      </trkpt>
      <trkpt lat="48.82814" lon="2.38069">
        <ele>46.400001525879</ele>
        <time>2015-09-14T19:41:17.000Z</time>
      </trkpt>
      <trkpt lat="48.8283" lon="2.38055">
        <ele>46</ele>
        <time>2015-09-14T19:41:22.000Z</time>
      </trkpt>
      <trkpt lat="48.82846" lon="2.38044">
        <ele>44.599998474121</ele>
        <time>2015-09-14T19:41:27.000Z</time>
      </trkpt>
      <trkpt lat="48.82861" lon="2.38026">
        <ele>45.599998474121</ele>
        <time>2015-09-14T19:41:30.000Z</time>
      </trkpt>
      <trkpt lat="48.82878" lon="2.38007">
        <ele>46.200000762939</ele>
        <time>2015-09-14T19:41:34.000Z</time>
      </trkpt>
      <trkpt lat="48.82895" lon="2.3799">
        <ele>46.599998474121</ele>
        <time>2015-09-14T19:41:38.000Z</time>
      </trkpt>
      <trkpt lat="48.82911" lon="2.37974">
        <ele>47</ele>
        <time>2015-09-14T19:41:42.000Z</time>
      </trkpt>
      <trkpt lat="48.82921" lon="2.37963">
        <ele>46.400001525879</ele>
        <time>2015-09-14T19:41:45.000Z</time>
      </trkpt>
      <trkpt lat="48.82932" lon="2.37953">
        <ele>46.200000762939</ele>
        <time>2015-09-14T19:41:49.000Z</time>
      </trkpt>
      <trkpt lat="48.82947" lon="2.37938">
        <ele>47</ele>
        <time>2015-09-14T19:41:53.000Z</time>
      </trkpt>
      <trkpt lat="48.82954" lon="2.3793">
        <ele>47</ele>
        <time>2015-09-14T19:41:55.000Z</time>
      </trkpt>
      <trkpt lat="48.82971" lon="2.37912">
        <ele>43.599998474121</ele>
        <time>2015-09-14T19:42:00.000Z</time>
      </trkpt>
      <trkpt lat="48.82983" lon="2.379">
        <ele>44</ele>
        <time>2015-09-14T19:42:03.000Z</time>
      </trkpt>
      <trkpt lat="48.82998" lon="2.37884">
        <ele>43.599998474121</ele>
        <time>2015-09-14T19:42:07.000Z</time>
      </trkpt>
      <trkpt lat="48.83014" lon="2.37868">
        <ele>43.599998474121</ele>
        <time>2015-09-14T19:42:11.000Z</time>
      </trkpt>
      <trkpt lat="48.8303" lon="2.37852">
        <ele>44</ele>
        <time>2015-09-14T19:42:15.000Z</time>
      </trkpt>
      <trkpt lat="48.83047" lon="2.37836">
        <ele>45.200000762939</ele>
        <time>2015-09-14T19:42:19.000Z</time>
      </trkpt>
      <trkpt lat="48.83055" lon="2.37829">
        <ele>45.799999237061</ele>
        <time>2015-09-14T19:42:21.000Z</time>
      </trkpt>
      <trkpt lat="48.83074" lon="2.37809">
        <ele>47.599998474121</ele>
        <time>2015-09-14T19:42:25.000Z</time>
      </trkpt>
      <trkpt lat="48.83077" lon="2.37804">
        <ele>47.400001525879</ele>
        <time>2015-09-14T19:42:26.000Z</time>
      </trkpt>
      <trkpt lat="48.8309" lon="2.37784">
        <ele>46</ele>
        <time>2015-09-14T19:42:31.000Z</time>
      </trkpt>
      <trkpt lat="48.83107" lon="2.37766">
        <ele>45.599998474121</ele>
        <time>2015-09-14T19:42:36.000Z</time>
      </trkpt>
      <trkpt lat="48.8312" lon="2.37778">
        <ele>44.599998474121</ele>
        <time>2015-09-14T19:42:41.000Z</time>
      </trkpt>
      <trkpt lat="48.83134" lon="2.37803">
        <ele>45</ele>
        <time>2015-09-14T19:42:46.000Z</time>
      </trkpt>
      <trkpt lat="48.83146" lon="2.37825">
        <ele>45.200000762939</ele>
        <time>2015-09-14T19:42:50.000Z</time>
      </trkpt>
      <trkpt lat="48.83154" lon="2.37843">
        <ele>44.400001525879</ele>
        <time>2015-09-14T19:42:53.000Z</time>
      </trkpt>
      <trkpt lat="48.83165" lon="2.37867">
        <ele>42.200000762939</ele>
        <time>2015-09-14T19:42:57.000Z</time>
      </trkpt>
      <trkpt lat="48.83178" lon="2.3789">
        <ele>41.200000762939</ele>
        <time>2015-09-14T19:43:01.000Z</time>
      </trkpt>
      <trkpt lat="48.83192" lon="2.37914">
        <ele>39.799999237061</ele>
        <time>2015-09-14T19:43:05.000Z</time>
      </trkpt>
      <trkpt lat="48.83206" lon="2.3794">
        <ele>37.599998474121</ele>
        <time>2015-09-14T19:43:10.000Z</time>
      </trkpt>
      <trkpt lat="48.83219" lon="2.37962">
        <ele>35.400001525879</ele>
        <time>2015-09-14T19:43:16.000Z</time>
      </trkpt>
      <trkpt lat="48.83217" lon="2.37972">
        <ele>41.400001525879</ele>
        <time>2015-09-14T19:43:23.000Z</time>
      </trkpt>
      <trkpt lat="48.83217" lon="2.37972">
        <ele>41.799999237061</ele>
        <time>2015-09-14T19:43:24.000Z</time>
      </trkpt>
      <trkpt lat="48.83231" lon="2.37993">
        <ele>40.200000762939</ele>
        <time>2015-09-14T19:43:46.000Z</time>
      </trkpt>
      <trkpt lat="48.83243" lon="2.38014">
        <ele>38.400001525879</ele>
        <time>2015-09-14T19:43:51.000Z</time>
      </trkpt>
      <trkpt lat="48.83255" lon="2.38034">
        <ele>37</ele>
        <time>2015-09-14T19:43:55.000Z</time>
      </trkpt>
      <trkpt lat="48.83269" lon="2.38057">
        <ele>36.799999237061</ele>
        <time>2015-09-14T19:43:59.000Z</time>
      </trkpt>
      <trkpt lat="48.83284" lon="2.38083">
        <ele>37.400001525879</ele>
        <time>2015-09-14T19:44:03.000Z</time>
      </trkpt>
      <trkpt lat="48.83298" lon="2.38108">
        <ele>37</ele>
        <time>2015-09-14T19:44:07.000Z</time>
      </trkpt>
      <trkpt lat="48.83312" lon="2.38134">
        <ele>36.400001525879</ele>
        <time>2015-09-14T19:44:11.000Z</time>
      </trkpt>
      <trkpt lat="48.83327" lon="2.3816">
        <ele>36.400001525879</ele>
        <time>2015-09-14T19:44:15.000Z</time>
      </trkpt>
      <trkpt lat="48.83341" lon="2.38187">
        <ele>36.400001525879</ele>
        <time>2015-09-14T19:44:19.000Z</time>
      </trkpt>
      <trkpt lat="48.83355" lon="2.38214">
        <ele>35</ele>
        <time>2015-09-14T19:44:23.000Z</time>
      </trkpt>
      <trkpt lat="48.83365" lon="2.38238">
        <ele>33.599998474121</ele>
        <time>2015-09-14T19:44:27.000Z</time>
      </trkpt>
      <trkpt lat="48.83372" lon="2.38249">
        <ele>33.400001525879</ele>
        <time>2015-09-14T19:44:29.000Z</time>
      </trkpt>
      <trkpt lat="48.83382" lon="2.38262">
        <ele>31.60000038147</ele>
        <time>2015-09-14T19:44:32.000Z</time>
      </trkpt>
      <trkpt lat="48.83394" lon="2.38283">
        <ele>30.200000762939</ele>
        <time>2015-09-14T19:44:36.000Z</time>
      </trkpt>
      <trkpt lat="48.83405" lon="2.38301">
        <ele>30</ele>
        <time>2015-09-14T19:44:39.000Z</time>
      </trkpt>
      <trkpt lat="48.83419" lon="2.38326">
        <ele>27.60000038147</ele>
        <time>2015-09-14T19:44:43.000Z</time>
      </trkpt>
      <trkpt lat="48.83432" lon="2.3835">
        <ele>24.799999237061</ele>
        <time>2015-09-14T19:44:47.000Z</time>
      </trkpt>
      <trkpt lat="48.83439" lon="2.38362">
        <ele>23.60000038147</ele>
        <time>2015-09-14T19:44:49.000Z</time>
      </trkpt>
      <trkpt lat="48.83446" lon="2.38376">
        <ele>22.39999961853</ele>
        <time>2015-09-14T19:44:51.000Z</time>
      </trkpt>
      <trkpt lat="48.8346" lon="2.38403">
        <ele>20.799999237061</ele>
        <time>2015-09-14T19:44:55.000Z</time>
      </trkpt>
      <trkpt lat="48.83465" lon="2.38409">
        <ele>20.60000038147</ele>
        <time>2015-09-14T19:44:56.000Z</time>
      </trkpt>
      <trkpt lat="48.83479" lon="2.38435">
        <ele>19</ele>
        <time>2015-09-14T19:45:00.000Z</time>
      </trkpt>
      <trkpt lat="48.8349" lon="2.38457">
        <ele>17.200000762939</ele>
        <time>2015-09-14T19:45:04.000Z</time>
      </trkpt>
      <trkpt lat="48.83503" lon="2.38479">
        <ele>15.199999809265</ele>
        <time>2015-09-14T19:45:08.000Z</time>
      </trkpt>
      <trkpt lat="48.83513" lon="2.38495">
        <ele>14.199999809265</ele>
        <time>2015-09-14T19:45:11.000Z</time>
      </trkpt>
      <trkpt lat="48.8352" lon="2.38507">
        <ele>14</ele>
        <time>2015-09-14T19:45:13.000Z</time>
      </trkpt>
      <trkpt lat="48.83528" lon="2.38528">
        <ele>13.800000190735</ele>
        <time>2015-09-14T19:45:16.000Z</time>
      </trkpt>
      <trkpt lat="48.8354" lon="2.38553">
        <ele>13.199999809265</ele>
        <time>2015-09-14T19:45:20.000Z</time>
      </trkpt>
      <trkpt lat="48.83551" lon="2.38577">
        <ele>12.199999809265</ele>
        <time>2015-09-14T19:45:24.000Z</time>
      </trkpt>
      <trkpt lat="48.83556" lon="2.38587">
        <ele>11.60000038147</ele>
        <time>2015-09-14T19:45:26.000Z</time>
      </trkpt>
      <trkpt lat="48.83569" lon="2.38608">
        <ele>11.800000190735</ele>
        <time>2015-09-14T19:45:30.000Z</time>
      </trkpt>
      <trkpt lat="48.83581" lon="2.38629">
        <ele>11.800000190735</ele>
        <time>2015-09-14T19:45:34.000Z</time>
      </trkpt>
      <trkpt lat="48.83587" lon="2.38639">
        <ele>11.60000038147</ele>
        <time>2015-09-14T19:45:36.000Z</time>
      </trkpt>
      <trkpt lat="48.83599" lon="2.38666">
        <ele>11.800000190735</ele>
        <time>2015-09-14T19:45:41.000Z</time>
      </trkpt>
      <trkpt lat="48.836" lon="2.38681">
        <ele>11.800000190735</ele>
        <time>2015-09-14T19:45:43.000Z</time>
      </trkpt>
      <trkpt lat="48.83602" lon="2.38694">
        <ele>11</ele>
        <time>2015-09-14T19:45:45.000Z</time>
      </trkpt>
      <trkpt lat="48.83613" lon="2.3872">
        <ele>10.800000190735</ele>
        <time>2015-09-14T19:45:49.000Z</time>
      </trkpt>
      <trkpt lat="48.83626" lon="2.38741">
        <ele>12.199999809265</ele>
        <time>2015-09-14T19:45:52.000Z</time>
      </trkpt>
      <trkpt lat="48.83639" lon="2.3876">
        <ele>12.39999961853</ele>
        <time>2015-09-14T19:45:56.000Z</time>
      </trkpt>
      <trkpt lat="48.83642" lon="2.38763">
        <ele>12.39999961853</ele>
        <time>2015-09-14T19:45:57.000Z</time>
      </trkpt>
      <trkpt lat="48.8366" lon="2.38784">
        <ele>13.39999961853</ele>
        <time>2015-09-14T19:46:02.000Z</time>
      </trkpt>
      <trkpt lat="48.83669" lon="2.38805">
        <ele>13.60000038147</ele>
        <time>2015-09-14T19:46:05.000Z</time>
      </trkpt>
      <trkpt lat="48.83664" lon="2.38814">
        <ele>15</ele>
        <time>2015-09-14T19:46:06.000Z</time>
      </trkpt>
      <trkpt lat="48.83668" lon="2.38844">
        <ele>16.799999237061</ele>
        <time>2015-09-14T19:46:09.000Z</time>
      </trkpt>
      <trkpt lat="48.8368" lon="2.38871">
        <ele>17.60000038147</ele>
        <time>2015-09-14T19:46:13.000Z</time>
      </trkpt>
      <trkpt lat="48.83683" lon="2.38878">
        <ele>17.799999237061</ele>
        <time>2015-09-14T19:46:14.000Z</time>
      </trkpt>
      <trkpt lat="48.83693" lon="2.38907">
        <ele>18</ele>
        <time>2015-09-14T19:46:19.000Z</time>
      </trkpt>
      <trkpt lat="48.83691" lon="2.38926">
        <ele>18.799999237061</ele>
        <time>2015-09-14T19:46:24.000Z</time>
      </trkpt>
      <trkpt lat="48.83682" lon="2.3896">
        <ele>19.60000038147</ele>
        <time>2015-09-14T19:46:30.000Z</time>
      </trkpt>
      <trkpt lat="48.83678" lon="2.38974">
        <ele>19.60000038147</ele>
        <time>2015-09-14T19:46:32.000Z</time>
      </trkpt>
      <trkpt lat="48.83675" lon="2.39003">
        <ele>18.799999237061</ele>
        <time>2015-09-14T19:46:37.000Z</time>
      </trkpt>
      <trkpt lat="48.83674" lon="2.39006">
        <ele>19.39999961853</ele>
        <time>2015-09-14T19:46:38.000Z</time>
      </trkpt>
      <trkpt lat="48.83667" lon="2.39026">
        <ele>21.799999237061</ele>
        <time>2015-09-14T19:46:43.000Z</time>
      </trkpt>
      <trkpt lat="48.83666" lon="2.39045">
        <ele>24.60000038147</ele>
        <time>2015-09-14T19:46:48.000Z</time>
      </trkpt>
      <trkpt lat="48.83648" lon="2.39067">
        <ele>27.799999237061</ele>
        <time>2015-09-14T19:46:54.000Z</time>
      </trkpt>
      <trkpt lat="48.83631" lon="2.39083">
        <ele>29.60000038147</ele>
        <time>2015-09-14T19:46:58.000Z</time>
      </trkpt>
      <trkpt lat="48.83628" lon="2.39087">
        <ele>29.799999237061</ele>
        <time>2015-09-14T19:46:59.000Z</time>
      </trkpt>
      <trkpt lat="48.83609" lon="2.391">
        <ele>31.60000038147</ele>
        <time>2015-09-14T19:47:03.000Z</time>
      </trkpt>
      <trkpt lat="48.83593" lon="2.39116">
        <ele>32.400001525879</ele>
        <time>2015-09-14T19:47:07.000Z</time>
      </trkpt>
      <trkpt lat="48.83577" lon="2.39136">
        <ele>33.200000762939</ele>
        <time>2015-09-14T19:47:12.000Z</time>
      </trkpt>
      <trkpt lat="48.83572" lon="2.39147">
        <ele>33</ele>
        <time>2015-09-14T19:47:14.000Z</time>
      </trkpt>
      <trkpt lat="48.83556" lon="2.39168">
        <ele>35</ele>
        <time>2015-09-14T19:47:19.000Z</time>
      </trkpt>
      <trkpt lat="48.8354" lon="2.39183">
        <ele>38</ele>
        <time>2015-09-14T19:47:24.000Z</time>
      </trkpt>
      <trkpt lat="48.83523" lon="2.39198">
        <ele>38.400001525879</ele>
        <time>2015-09-14T19:47:29.000Z</time>
      </trkpt>
      <trkpt lat="48.83511" lon="2.39216">
        <ele>34.400001525879</ele>
        <time>2015-09-14T19:47:32.000Z</time>
      </trkpt>
      <trkpt lat="48.83512" lon="2.39245">
        <ele>32.400001525879</ele>
        <time>2015-09-14T19:47:37.000Z</time>
      </trkpt>
      <trkpt lat="48.83523" lon="2.3926">
        <ele>32.200000762939</ele>
        <time>2015-09-14T19:47:41.000Z</time>
      </trkpt>
      <trkpt lat="48.83526" lon="2.39262">
        <ele>32.599998474121</ele>
        <time>2015-09-14T19:47:42.000Z</time>
      </trkpt>
      <trkpt lat="48.83532" lon="2.39269">
        <ele>32.799999237061</ele>
        <time>2015-09-14T19:47:46.000Z</time>
      </trkpt>
      <trkpt lat="48.83528" lon="2.39275">
        <ele>37.400001525879</ele>
        <time>2015-09-14T19:48:05.000Z</time>
      </trkpt>
      <trkpt lat="48.83532" lon="2.39279">
        <ele>39</ele>
        <time>2015-09-14T19:48:36.000Z</time>
      </trkpt>
      <trkpt lat="48.83551" lon="2.39268">
        <ele>38.400001525879</ele>
        <time>2015-09-14T19:48:40.000Z</time>
      </trkpt>
      <trkpt lat="48.83574" lon="2.39254">
        <ele>37.599998474121</ele>
        <time>2015-09-14T19:48:44.000Z</time>
      </trkpt>
      <trkpt lat="48.83593" lon="2.3924">
        <ele>37</ele>
        <time>2015-09-14T19:48:47.000Z</time>
      </trkpt>
      <trkpt lat="48.83599" lon="2.39235">
        <ele>37</ele>
        <time>2015-09-14T19:48:48.000Z</time>
      </trkpt>
      <trkpt lat="48.83616" lon="2.39221">
        <ele>36.400001525879</ele>
        <time>2015-09-14T19:48:51.000Z</time>
      </trkpt>
      <trkpt lat="48.83635" lon="2.39208">
        <ele>35.400001525879</ele>
        <time>2015-09-14T19:48:54.000Z</time>
      </trkpt>
      <trkpt lat="48.83654" lon="2.39194">
        <ele>34.400001525879</ele>
        <time>2015-09-14T19:48:57.000Z</time>
      </trkpt>
      <trkpt lat="48.83672" lon="2.3918">
        <ele>33.599998474121</ele>
        <time>2015-09-14T19:49:00.000Z</time>
      </trkpt>
      <trkpt lat="48.83689" lon="2.39168">
        <ele>32.599998474121</ele>
        <time>2015-09-14T19:49:03.000Z</time>
      </trkpt>
      <trkpt lat="48.83709" lon="2.39151">
        <ele>30.39999961853</ele>
        <time>2015-09-14T19:49:07.000Z</time>
      </trkpt>
      <trkpt lat="48.83729" lon="2.39141">
        <ele>31.60000038147</ele>
        <time>2015-09-14T19:49:11.000Z</time>
      </trkpt>
      <trkpt lat="48.83738" lon="2.39136">
        <ele>30.799999237061</ele>
        <time>2015-09-14T19:49:13.000Z</time>
      </trkpt>
      <trkpt lat="48.8375" lon="2.39142">
        <ele>29.799999237061</ele>
        <time>2015-09-14T19:49:17.000Z</time>
      </trkpt>
      <trkpt lat="48.83767" lon="2.3916">
        <ele>26.60000038147</ele>
        <time>2015-09-14T19:49:22.000Z</time>
      </trkpt>
      <trkpt lat="48.83775" lon="2.39175">
        <ele>24.60000038147</ele>
        <time>2015-09-14T19:49:25.000Z</time>
      </trkpt>
      <trkpt lat="48.83789" lon="2.39197">
        <ele>21.799999237061</ele>
        <time>2015-09-14T19:49:29.000Z</time>
      </trkpt>
      <trkpt lat="48.83802" lon="2.39219">
        <ele>19.60000038147</ele>
        <time>2015-09-14T19:49:33.000Z</time>
      </trkpt>
      <trkpt lat="48.8382" lon="2.3924">
        <ele>18.60000038147</ele>
        <time>2015-09-14T19:49:36.000Z</time>
      </trkpt>
      <trkpt lat="48.83839" lon="2.39256">
        <ele>20.799999237061</ele>
        <time>2015-09-14T19:49:38.000Z</time>
      </trkpt>
      <trkpt lat="48.83856" lon="2.39279">
        <ele>21.799999237061</ele>
        <time>2015-09-14T19:49:41.000Z</time>
      </trkpt>
      <trkpt lat="48.8386" lon="2.3931">
        <ele>24.39999961853</ele>
        <time>2015-09-14T19:49:44.000Z</time>
      </trkpt>
      <trkpt lat="48.83873" lon="2.39331">
        <ele>25.39999961853</ele>
        <time>2015-09-14T19:49:47.000Z</time>
      </trkpt>
      <trkpt lat="48.83887" lon="2.39352">
        <ele>26.39999961853</ele>
        <time>2015-09-14T19:49:50.000Z</time>
      </trkpt>
      <trkpt lat="48.83891" lon="2.39359">
        <ele>26.799999237061</ele>
        <time>2015-09-14T19:49:51.000Z</time>
      </trkpt>
      <trkpt lat="48.83905" lon="2.39381">
        <ele>27.799999237061</ele>
        <time>2015-09-14T19:49:54.000Z</time>
      </trkpt>
      <trkpt lat="48.83916" lon="2.39395">
        <ele>30.200000762939</ele>
        <time>2015-09-14T19:49:56.000Z</time>
      </trkpt>
      <trkpt lat="48.83922" lon="2.39416">
        <ele>32.200000762939</ele>
        <time>2015-09-14T19:49:59.000Z</time>
      </trkpt>
      <trkpt lat="48.83932" lon="2.39439">
        <ele>33.400001525879</ele>
        <time>2015-09-14T19:50:04.000Z</time>
      </trkpt>
      <trkpt lat="48.83941" lon="2.39465">
        <ele>34.400001525879</ele>
        <time>2015-09-14T19:50:13.000Z</time>
      </trkpt>
      <trkpt lat="48.83946" lon="2.39484">
        <ele>37.599998474121</ele>
        <time>2015-09-14T19:50:21.000Z</time>
      </trkpt>
      <trkpt lat="48.83966" lon="2.39501">
        <ele>53.799999237061</ele>
        <time>2015-09-14T19:51:04.000Z</time>
      </trkpt>
      <trkpt lat="48.83966" lon="2.39532">
        <ele>53.599998474121</ele>
        <time>2015-09-14T19:51:11.000Z</time>
      </trkpt>
      <trkpt lat="48.83962" lon="2.39561">
        <ele>53.400001525879</ele>
        <time>2015-09-14T19:51:16.000Z</time>
      </trkpt>
      <trkpt lat="48.83961" lon="2.3959">
        <ele>54.200000762939</ele>
        <time>2015-09-14T19:51:21.000Z</time>
      </trkpt>
      <trkpt lat="48.83966" lon="2.39617">
        <ele>53.799999237061</ele>
        <time>2015-09-14T19:51:26.000Z</time>
      </trkpt>
      <trkpt lat="48.83971" lon="2.39643">
        <ele>53.799999237061</ele>
        <time>2015-09-14T19:51:30.000Z</time>
      </trkpt>
      <trkpt lat="48.83972" lon="2.39672">
        <ele>53.799999237061</ele>
        <time>2015-09-14T19:51:34.000Z</time>
      </trkpt>
      <trkpt lat="48.83972" lon="2.39702">
        <ele>54.599998474121</ele>
        <time>2015-09-14T19:51:38.000Z</time>
      </trkpt>
      <trkpt lat="48.83974" lon="2.39732">
        <ele>55.400001525879</ele>
        <time>2015-09-14T19:51:42.000Z</time>
      </trkpt>
      <trkpt lat="48.83974" lon="2.39762">
        <ele>53</ele>
        <time>2015-09-14T19:51:46.000Z</time>
      </trkpt>
      <trkpt lat="48.83973" lon="2.39792">
        <ele>49.799999237061</ele>
        <time>2015-09-14T19:51:50.000Z</time>
      </trkpt>
      <trkpt lat="48.83974" lon="2.39822">
        <ele>46.200000762939</ele>
        <time>2015-09-14T19:51:54.000Z</time>
      </trkpt>
      <trkpt lat="48.83973" lon="2.39856">
        <ele>46</ele>
        <time>2015-09-14T19:51:58.000Z</time>
      </trkpt>
      <trkpt lat="48.83971" lon="2.39891">
        <ele>44.599998474121</ele>
        <time>2015-09-14T19:52:02.000Z</time>
      </trkpt>
      <trkpt lat="48.83969" lon="2.39926">
        <ele>44.799999237061</ele>
        <time>2015-09-14T19:52:06.000Z</time>
      </trkpt>
      <trkpt lat="48.83968" lon="2.39957">
        <ele>45</ele>
        <time>2015-09-14T19:52:10.000Z</time>
      </trkpt>
      <trkpt lat="48.83972" lon="2.39989">
        <ele>43</ele>
        <time>2015-09-14T19:52:15.000Z</time>
      </trkpt>
      <trkpt lat="48.83973" lon="2.39995">
        <ele>43</ele>
        <time>2015-09-14T19:52:16.000Z</time>
      </trkpt>
      <trkpt lat="48.83978" lon="2.40022">
        <ele>43.599998474121</ele>
        <time>2015-09-14T19:52:21.000Z</time>
      </trkpt>
      <trkpt lat="48.83981" lon="2.40032">
        <ele>44.200000762939</ele>
        <time>2015-09-14T19:52:23.000Z</time>
      </trkpt>
      <trkpt lat="48.8398" lon="2.40062">
        <ele>40.799999237061</ele>
        <time>2015-09-14T19:52:28.000Z</time>
      </trkpt>
      <trkpt lat="48.83979" lon="2.40089">
        <ele>41.200000762939</ele>
        <time>2015-09-14T19:52:32.000Z</time>
      </trkpt>
      <trkpt lat="48.8398" lon="2.4012">
        <ele>42.200000762939</ele>
        <time>2015-09-14T19:52:36.000Z</time>
      </trkpt>
      <trkpt lat="48.83981" lon="2.40152">
        <ele>41.200000762939</ele>
        <time>2015-09-14T19:52:40.000Z</time>
      </trkpt>
      <trkpt lat="48.83981" lon="2.40187">
        <ele>40</ele>
        <time>2015-09-14T19:52:44.000Z</time>
      </trkpt>
      <trkpt lat="48.83982" lon="2.40215">
        <ele>39.599998474121</ele>
        <time>2015-09-14T19:52:47.000Z</time>
      </trkpt>
      <trkpt lat="48.83983" lon="2.40244">
        <ele>39</ele>
        <time>2015-09-14T19:52:50.000Z</time>
      </trkpt>
      <trkpt lat="48.83984" lon="2.40272">
        <ele>39.400001525879</ele>
        <time>2015-09-14T19:52:53.000Z</time>
      </trkpt>
      <trkpt lat="48.83985" lon="2.40306">
        <ele>39</ele>
        <time>2015-09-14T19:52:57.000Z</time>
      </trkpt>
      <trkpt lat="48.83985" lon="2.4034">
        <ele>39.200000762939</ele>
        <time>2015-09-14T19:53:01.000Z</time>
      </trkpt>
      <trkpt lat="48.83989" lon="2.40371">
        <ele>39</ele>
        <time>2015-09-14T19:53:05.000Z</time>
      </trkpt>
      <trkpt lat="48.83991" lon="2.40378">
        <ele>39</ele>
        <time>2015-09-14T19:53:06.000Z</time>
      </trkpt>
      <trkpt lat="48.83993" lon="2.40409">
        <ele>39.400001525879</ele>
        <time>2015-09-14T19:53:10.000Z</time>
      </trkpt>
      <trkpt lat="48.83993" lon="2.40436">
        <ele>40.400001525879</ele>
        <time>2015-09-14T19:53:16.000Z</time>
      </trkpt>
      <trkpt lat="48.83996" lon="2.40443">
        <ele>40.799999237061</ele>
        <time>2015-09-14T19:53:20.000Z</time>
      </trkpt>
      <trkpt lat="48.83996" lon="2.40445">
        <ele>40.799999237061</ele>
        <time>2015-09-14T19:53:22.000Z</time>
      </trkpt>
      <trkpt lat="48.83992" lon="2.40447">
        <ele>40.400001525879</ele>
        <time>2015-09-14T19:53:26.000Z</time>
      </trkpt>
      <trkpt lat="48.83991" lon="2.40447">
        <ele>40.200000762939</ele>
        <time>2015-09-14T19:53:27.000Z</time>
      </trkpt>
      <trkpt lat="48.84003" lon="2.40454">
        <ele>43.799999237061</ele>
        <time>2015-09-14T19:53:43.000Z</time>
      </trkpt>
      <trkpt lat="48.84022" lon="2.4046">
        <ele>44.799999237061</ele>
        <time>2015-09-14T19:53:48.000Z</time>
      </trkpt>
      <trkpt lat="48.84043" lon="2.40467">
        <ele>45.400001525879</ele>
        <time>2015-09-14T19:53:53.000Z</time>
      </trkpt>
      <trkpt lat="48.84063" lon="2.40471">
        <ele>45.799999237061</ele>
        <time>2015-09-14T19:53:56.000Z</time>
      </trkpt>
      <trkpt lat="48.84081" lon="2.40476">
        <ele>46.400001525879</ele>
        <time>2015-09-14T19:53:59.000Z</time>
      </trkpt>
      <trkpt lat="48.84101" lon="2.40481">
        <ele>47.200000762939</ele>
        <time>2015-09-14T19:54:03.000Z</time>
      </trkpt>
      <trkpt lat="48.8412" lon="2.40486">
        <ele>50</ele>
        <time>2015-09-14T19:54:06.000Z</time>
      </trkpt>
      <trkpt lat="48.84141" lon="2.40494">
        <ele>51.200000762939</ele>
        <time>2015-09-14T19:54:10.000Z</time>
      </trkpt>
      <trkpt lat="48.84162" lon="2.405">
        <ele>51</ele>
        <time>2015-09-14T19:54:14.000Z</time>
      </trkpt>
      <trkpt lat="48.84168" lon="2.40502">
        <ele>51.200000762939</ele>
        <time>2015-09-14T19:54:15.000Z</time>
      </trkpt>
      <trkpt lat="48.84186" lon="2.40509">
        <ele>52.400001525879</ele>
        <time>2015-09-14T19:54:18.000Z</time>
      </trkpt>
      <trkpt lat="48.84204" lon="2.40516">
        <ele>53.599998474121</ele>
        <time>2015-09-14T19:54:21.000Z</time>
      </trkpt>
      <trkpt lat="48.84222" lon="2.4052">
        <ele>55.400001525879</ele>
        <time>2015-09-14T19:54:24.000Z</time>
      </trkpt>
      <trkpt lat="48.84244" lon="2.40522">
        <ele>56.400001525879</ele>
        <time>2015-09-14T19:54:27.000Z</time>
      </trkpt>
      <trkpt lat="48.8426" lon="2.40527">
        <ele>58.400001525879</ele>
        <time>2015-09-14T19:54:29.000Z</time>
      </trkpt>
      <trkpt lat="48.84283" lon="2.40527">
        <ele>60.599998474121</ele>
        <time>2015-09-14T19:54:31.000Z</time>
      </trkpt>
      <trkpt lat="48.84302" lon="2.40529">
        <ele>61.400001525879</ele>
        <time>2015-09-14T19:54:33.000Z</time>
      </trkpt>
      <trkpt lat="48.84309" lon="2.40531">
        <ele>62</ele>
        <time>2015-09-14T19:54:34.000Z</time>
      </trkpt>
      <trkpt lat="48.84328" lon="2.40535">
        <ele>62.599998474121</ele>
        <time>2015-09-14T19:54:37.000Z</time>
      </trkpt>
      <trkpt lat="48.84342" lon="2.40539">
        <ele>62</ele>
        <time>2015-09-14T19:54:40.000Z</time>
      </trkpt>
      <trkpt lat="48.84365" lon="2.40545">
        <ele>62.400001525879</ele>
        <time>2015-09-14T19:54:44.000Z</time>
      </trkpt>
      <trkpt lat="48.84386" lon="2.4055">
        <ele>62.200000762939</ele>
        <time>2015-09-14T19:54:47.000Z</time>
      </trkpt>
      <trkpt lat="48.84409" lon="2.40555">
        <ele>64</ele>
        <time>2015-09-14T19:54:50.000Z</time>
      </trkpt>
      <trkpt lat="48.84427" lon="2.40559">
        <ele>63.200000762939</ele>
        <time>2015-09-14T19:54:53.000Z</time>
      </trkpt>
      <trkpt lat="48.84451" lon="2.40562">
        <ele>61.599998474121</ele>
        <time>2015-09-14T19:54:57.000Z</time>
      </trkpt>
      <trkpt lat="48.84469" lon="2.40564">
        <ele>61</ele>
        <time>2015-09-14T19:55:01.000Z</time>
      </trkpt>
      <trkpt lat="48.84484" lon="2.40569">
        <ele>63</ele>
        <time>2015-09-14T19:55:05.000Z</time>
      </trkpt>
      <trkpt lat="48.84493" lon="2.40571">
        <ele>62.400001525879</ele>
        <time>2015-09-14T19:55:09.000Z</time>
      </trkpt>
      <trkpt lat="48.84492" lon="2.40572">
        <ele>60</ele>
        <time>2015-09-14T19:55:11.000Z</time>
      </trkpt>
      <trkpt lat="48.84505" lon="2.4055">
        <ele>55.400001525879</ele>
        <time>2015-09-14T19:55:19.000Z</time>
      </trkpt>
      <trkpt lat="48.84516" lon="2.40527">
        <ele>54.599998474121</ele>
        <time>2015-09-14T19:55:24.000Z</time>
      </trkpt>
      <trkpt lat="48.84528" lon="2.40503">
        <ele>54.200000762939</ele>
        <time>2015-09-14T19:55:29.000Z</time>
      </trkpt>
      <trkpt lat="48.8454" lon="2.40482">
        <ele>53.400001525879</ele>
        <time>2015-09-14T19:55:34.000Z</time>
      </trkpt>
      <trkpt lat="48.8455" lon="2.40453">
        <ele>51</ele>
        <time>2015-09-14T19:55:40.000Z</time>
      </trkpt>
      <trkpt lat="48.84557" lon="2.40424">
        <ele>47.799999237061</ele>
        <time>2015-09-14T19:55:45.000Z</time>
      </trkpt>
      <trkpt lat="48.84567" lon="2.40396">
        <ele>44.400001525879</ele>
        <time>2015-09-14T19:55:50.000Z</time>
      </trkpt>
      <trkpt lat="48.84575" lon="2.40367">
        <ele>41</ele>
        <time>2015-09-14T19:55:55.000Z</time>
      </trkpt>
      <trkpt lat="48.84584" lon="2.40338">
        <ele>38.200000762939</ele>
        <time>2015-09-14T19:56:00.000Z</time>
      </trkpt>
      <trkpt lat="48.84593" lon="2.40313">
        <ele>38.200000762939</ele>
        <time>2015-09-14T19:56:05.000Z</time>
      </trkpt>
      <trkpt lat="48.84604" lon="2.40286">
        <ele>38.400001525879</ele>
        <time>2015-09-14T19:56:10.000Z</time>
      </trkpt>
      <trkpt lat="48.84612" lon="2.40255">
        <ele>36</ele>
        <time>2015-09-14T19:56:15.000Z</time>
      </trkpt>
      <trkpt lat="48.84621" lon="2.4023">
        <ele>35.599998474121</ele>
        <time>2015-09-14T19:56:19.000Z</time>
      </trkpt>
      <trkpt lat="48.8463" lon="2.40205">
        <ele>35</ele>
        <time>2015-09-14T19:56:23.000Z</time>
      </trkpt>
      <trkpt lat="48.84635" lon="2.40193">
        <ele>34.599998474121</ele>
        <time>2015-09-14T19:56:25.000Z</time>
      </trkpt>
      <trkpt lat="48.84644" lon="2.40168">
        <ele>33</ele>
        <time>2015-09-14T19:56:29.000Z</time>
      </trkpt>
      <trkpt lat="48.84654" lon="2.40143">
        <ele>31.799999237061</ele>
        <time>2015-09-14T19:56:33.000Z</time>
      </trkpt>
      <trkpt lat="48.84656" lon="2.40137">
        <ele>31.39999961853</ele>
        <time>2015-09-14T19:56:34.000Z</time>
      </trkpt>
      <trkpt lat="48.84663" lon="2.40119">
        <ele>30</ele>
        <time>2015-09-14T19:56:37.000Z</time>
      </trkpt>
      <trkpt lat="48.84666" lon="2.40105">
        <ele>28.39999961853</ele>
        <time>2015-09-14T19:56:39.000Z</time>
      </trkpt>
      <trkpt lat="48.84673" lon="2.40081">
        <ele>26</ele>
        <time>2015-09-14T19:56:43.000Z</time>
      </trkpt>
      <trkpt lat="48.84677" lon="2.40068">
        <ele>25.200000762939</ele>
        <time>2015-09-14T19:56:45.000Z</time>
      </trkpt>
      <trkpt lat="48.84685" lon="2.40041">
        <ele>23.60000038147</ele>
        <time>2015-09-14T19:56:49.000Z</time>
      </trkpt>
      <trkpt lat="48.84693" lon="2.40016">
        <ele>22.799999237061</ele>
        <time>2015-09-14T19:56:53.000Z</time>
      </trkpt>
      <trkpt lat="48.84703" lon="2.39986">
        <ele>22</ele>
        <time>2015-09-14T19:56:58.000Z</time>
      </trkpt>
      <trkpt lat="48.84713" lon="2.39961">
        <ele>20.799999237061</ele>
        <time>2015-09-14T19:57:03.000Z</time>
      </trkpt>
      <trkpt lat="48.84721" lon="2.39934">
        <ele>20</ele>
        <time>2015-09-14T19:57:09.000Z</time>
      </trkpt>
      <trkpt lat="48.84728" lon="2.39906">
        <ele>22.60000038147</ele>
        <time>2015-09-14T19:57:15.000Z</time>
      </trkpt>
      <trkpt lat="48.84731" lon="2.39901">
        <ele>22.60000038147</ele>
        <time>2015-09-14T19:57:17.000Z</time>
      </trkpt>
      <trkpt lat="48.84743" lon="2.39897">
        <ele>26</ele>
        <time>2015-09-14T19:57:22.000Z</time>
      </trkpt>
      <trkpt lat="48.8476" lon="2.39904">
        <ele>29.200000762939</ele>
        <time>2015-09-14T19:57:29.000Z</time>
      </trkpt>
      <trkpt lat="48.84773" lon="2.39908">
        <ele>32</ele>
        <time>2015-09-14T19:57:34.000Z</time>
      </trkpt>
      <trkpt lat="48.84787" lon="2.39924">
        <ele>41.599998474121</ele>
        <time>2015-09-14T19:57:47.000Z</time>
      </trkpt>
      <trkpt lat="48.84786" lon="2.39954">
        <ele>43.599998474121</ele>
        <time>2015-09-14T19:57:54.000Z</time>
      </trkpt>
      <trkpt lat="48.8479" lon="2.39985">
        <ele>45.400001525879</ele>
        <time>2015-09-14T19:58:01.000Z</time>
      </trkpt>
      <trkpt lat="48.84788" lon="2.39989">
        <ele>45.799999237061</ele>
        <time>2015-09-14T19:58:02.000Z</time>
      </trkpt>
      <trkpt lat="48.84797" lon="2.40017">
        <ele>48.400001525879</ele>
        <time>2015-09-14T19:58:10.000Z</time>
      </trkpt>
      <trkpt lat="48.84798" lon="2.40029">
        <ele>50.400001525879</ele>
        <time>2015-09-14T19:58:13.000Z</time>
      </trkpt>
      <trkpt lat="48.84804" lon="2.40057">
        <ele>54.400001525879</ele>
        <time>2015-09-14T19:58:18.000Z</time>
      </trkpt>
      <trkpt lat="48.84812" lon="2.40085">
        <ele>59.400001525879</ele>
        <time>2015-09-14T19:58:23.000Z</time>
      </trkpt>
      <trkpt lat="48.84811" lon="2.40116">
        <ele>62.799999237061</ele>
        <time>2015-09-14T19:58:28.000Z</time>
      </trkpt>
      <trkpt lat="48.84808" lon="2.40143">
        <ele>65.400001525879</ele>
        <time>2015-09-14T19:58:32.000Z</time>
      </trkpt>
      <trkpt lat="48.84809" lon="2.40172">
        <ele>71.599998474121</ele>
        <time>2015-09-14T19:58:36.000Z</time>
      </trkpt>
      <trkpt lat="48.8481" lon="2.40201">
        <ele>75.800003051758</ele>
        <time>2015-09-14T19:58:40.000Z</time>
      </trkpt>
      <trkpt lat="48.84812" lon="2.4023">
        <ele>80.800003051758</ele>
        <time>2015-09-14T19:58:44.000Z</time>
      </trkpt>
      <trkpt lat="48.84811" lon="2.40258">
        <ele>84.199996948242</ele>
        <time>2015-09-14T19:58:48.000Z</time>
      </trkpt>
      <trkpt lat="48.84812" lon="2.40266">
        <ele>85.199996948242</ele>
        <time>2015-09-14T19:58:49.000Z</time>
      </trkpt>
      <trkpt lat="48.84806" lon="2.40284">
        <ele>83.599998474121</ele>
        <time>2015-09-14T19:58:52.000Z</time>
      </trkpt>
      <trkpt lat="48.84801" lon="2.40311">
        <ele>82.599998474121</ele>
        <time>2015-09-14T19:58:56.000Z</time>
      </trkpt>
      <trkpt lat="48.84797" lon="2.4033">
        <ele>80.800003051758</ele>
        <time>2015-09-14T19:58:59.000Z</time>
      </trkpt>
      <trkpt lat="48.84791" lon="2.40353">
        <ele>75.400001525879</ele>
        <time>2015-09-14T19:59:03.000Z</time>
      </trkpt>
      <trkpt lat="48.84785" lon="2.40386">
        <ele>72.199996948242</ele>
        <time>2015-09-14T19:59:08.000Z</time>
      </trkpt>
      <trkpt lat="48.84781" lon="2.40419">
        <ele>69.599998474121</ele>
        <time>2015-09-14T19:59:13.000Z</time>
      </trkpt>
      <trkpt lat="48.84778" lon="2.40447">
        <ele>68.800003051758</ele>
        <time>2015-09-14T19:59:17.000Z</time>
      </trkpt>
      <trkpt lat="48.84774" lon="2.40474">
        <ele>67.199996948242</ele>
        <time>2015-09-14T19:59:21.000Z</time>
      </trkpt>
      <trkpt lat="48.84771" lon="2.40503">
        <ele>66.199996948242</ele>
        <time>2015-09-14T19:59:25.000Z</time>
      </trkpt>
      <trkpt lat="48.84768" lon="2.40533">
        <ele>66.199996948242</ele>
        <time>2015-09-14T19:59:29.000Z</time>
      </trkpt>
      <trkpt lat="48.84764" lon="2.40558">
        <ele>65.199996948242</ele>
        <time>2015-09-14T19:59:33.000Z</time>
      </trkpt>
      <trkpt lat="48.84763" lon="2.40588">
        <ele>67.400001525879</ele>
        <time>2015-09-14T19:59:38.000Z</time>
      </trkpt>
      <trkpt lat="48.84764" lon="2.40594">
        <ele>67.800003051758</ele>
        <time>2015-09-14T19:59:39.000Z</time>
      </trkpt>
      <trkpt lat="48.84762" lon="2.40608">
        <ele>67.599998474121</ele>
        <time>2015-09-14T19:59:42.000Z</time>
      </trkpt>
      <trkpt lat="48.84772" lon="2.40628">
        <ele>61.200000762939</ele>
        <time>2015-09-14T19:59:51.000Z</time>
      </trkpt>
      <trkpt lat="48.84786" lon="2.40646">
        <ele>49.799999237061</ele>
        <time>2015-09-14T20:00:03.000Z</time>
      </trkpt>
      <trkpt lat="48.84806" lon="2.40651">
        <ele>47</ele>
        <time>2015-09-14T20:00:09.000Z</time>
      </trkpt>
      <trkpt lat="48.84825" lon="2.40652">
        <ele>45.400001525879</ele>
        <time>2015-09-14T20:00:14.000Z</time>
      </trkpt>
      <trkpt lat="48.84845" lon="2.40651">
        <ele>44.200000762939</ele>
        <time>2015-09-14T20:00:19.000Z</time>
      </trkpt>
      <trkpt lat="48.84867" lon="2.4065">
        <ele>41.799999237061</ele>
        <time>2015-09-14T20:00:25.000Z</time>
      </trkpt>
      <trkpt lat="48.84887" lon="2.4065">
        <ele>40.799999237061</ele>
        <time>2015-09-14T20:00:29.000Z</time>
      </trkpt>
      <trkpt lat="48.84907" lon="2.40649">
        <ele>39.400001525879</ele>
        <time>2015-09-14T20:00:33.000Z</time>
      </trkpt>
      <trkpt lat="48.84927" lon="2.40648">
        <ele>38.799999237061</ele>
        <time>2015-09-14T20:00:37.000Z</time>
      </trkpt>
      <trkpt lat="48.84947" lon="2.40647">
        <ele>41.599998474121</ele>
        <time>2015-09-14T20:00:41.000Z</time>
      </trkpt>
      <trkpt lat="48.8497" lon="2.40645">
        <ele>47</ele>
        <time>2015-09-14T20:00:46.000Z</time>
      </trkpt>
      <trkpt lat="48.84989" lon="2.40641">
        <ele>48.599998474121</ele>
        <time>2015-09-14T20:00:50.000Z</time>
      </trkpt>
      <trkpt lat="48.85008" lon="2.40636">
        <ele>53.599998474121</ele>
        <time>2015-09-14T20:00:54.000Z</time>
      </trkpt>
      <trkpt lat="48.85028" lon="2.40631">
        <ele>54.799999237061</ele>
        <time>2015-09-14T20:00:59.000Z</time>
      </trkpt>
      <trkpt lat="48.8504" lon="2.40632">
        <ele>55.599998474121</ele>
        <time>2015-09-14T20:01:02.000Z</time>
      </trkpt>
      <trkpt lat="48.85061" lon="2.40635">
        <ele>58.799999237061</ele>
        <time>2015-09-14T20:01:07.000Z</time>
      </trkpt>
      <trkpt lat="48.85082" lon="2.4063">
        <ele>61.200000762939</ele>
        <time>2015-09-14T20:01:12.000Z</time>
      </trkpt>
      <trkpt lat="48.85094" lon="2.40627">
        <ele>64</ele>
        <time>2015-09-14T20:01:15.000Z</time>
      </trkpt>
      <trkpt lat="48.85113" lon="2.40624">
        <ele>67.599998474121</ele>
        <time>2015-09-14T20:01:20.000Z</time>
      </trkpt>
      <trkpt lat="48.85131" lon="2.40623">
        <ele>67</ele>
        <time>2015-09-14T20:01:24.000Z</time>
      </trkpt>
      <trkpt lat="48.85153" lon="2.40624">
        <ele>69.199996948242</ele>
        <time>2015-09-14T20:01:29.000Z</time>
      </trkpt>
      <trkpt lat="48.85173" lon="2.40621">
        <ele>73.199996948242</ele>
        <time>2015-09-14T20:01:34.000Z</time>
      </trkpt>
      <trkpt lat="48.85195" lon="2.4062">
        <ele>76.599998474121</ele>
        <time>2015-09-14T20:01:39.000Z</time>
      </trkpt>
      <trkpt lat="48.85216" lon="2.40617">
        <ele>76.800003051758</ele>
        <time>2015-09-14T20:01:44.000Z</time>
      </trkpt>
      <trkpt lat="48.85231" lon="2.40616">
        <ele>76.599998474121</ele>
        <time>2015-09-14T20:01:48.000Z</time>
      </trkpt>
      <trkpt lat="48.8524" lon="2.40614">
        <ele>71.599998474121</ele>
        <time>2015-09-14T20:01:50.000Z</time>
      </trkpt>
      <trkpt lat="48.85249" lon="2.40611">
        <ele>66.800003051758</ele>
        <time>2015-09-14T20:01:53.000Z</time>
      </trkpt>
      <trkpt lat="48.85256" lon="2.40608">
        <ele>62.200000762939</ele>
        <time>2015-09-14T20:01:57.000Z</time>
      </trkpt>
      <trkpt lat="48.8526" lon="2.40607">
        <ele>59.599998474121</ele>
        <time>2015-09-14T20:02:02.000Z</time>
      </trkpt>
      <trkpt lat="48.85279" lon="2.40604">
        <ele>58.400001525879</ele>
        <time>2015-09-14T20:02:14.000Z</time>
      </trkpt>
      <trkpt lat="48.85298" lon="2.40599">
        <ele>58</ele>
        <time>2015-09-14T20:02:19.000Z</time>
      </trkpt>
      <trkpt lat="48.85316" lon="2.40589">
        <ele>56.599998474121</ele>
        <time>2015-09-14T20:02:24.000Z</time>
      </trkpt>
      <trkpt lat="48.85334" lon="2.40575">
        <ele>54.599998474121</ele>
        <time>2015-09-14T20:02:30.000Z</time>
      </trkpt>
      <trkpt lat="48.85354" lon="2.40566">
        <ele>53.400001525879</ele>
        <time>2015-09-14T20:02:35.000Z</time>
      </trkpt>
      <trkpt lat="48.85374" lon="2.40557">
        <ele>51</ele>
        <time>2015-09-14T20:02:40.000Z</time>
      </trkpt>
      <trkpt lat="48.85394" lon="2.4055">
        <ele>51</ele>
        <time>2015-09-14T20:02:44.000Z</time>
      </trkpt>
      <trkpt lat="48.85413" lon="2.40546">
        <ele>51.799999237061</ele>
        <time>2015-09-14T20:02:47.000Z</time>
      </trkpt>
      <trkpt lat="48.85433" lon="2.40542">
        <ele>52.200000762939</ele>
        <time>2015-09-14T20:02:51.000Z</time>
      </trkpt>
      <trkpt lat="48.85451" lon="2.40537">
        <ele>53.200000762939</ele>
        <time>2015-09-14T20:02:54.000Z</time>
      </trkpt>
      <trkpt lat="48.8547" lon="2.40532">
        <ele>53.799999237061</ele>
        <time>2015-09-14T20:02:57.000Z</time>
      </trkpt>
      <trkpt lat="48.85491" lon="2.40529">
        <ele>53.799999237061</ele>
        <time>2015-09-14T20:03:00.000Z</time>
      </trkpt>
      <trkpt lat="48.85509" lon="2.40524">
        <ele>53.799999237061</ele>
        <time>2015-09-14T20:03:03.000Z</time>
      </trkpt>
      <trkpt lat="48.85532" lon="2.40521">
        <ele>53.400001525879</ele>
        <time>2015-09-14T20:03:07.000Z</time>
      </trkpt>
      <trkpt lat="48.8555" lon="2.4052">
        <ele>53.400001525879</ele>
        <time>2015-09-14T20:03:10.000Z</time>
      </trkpt>
      <trkpt lat="48.85572" lon="2.40514">
        <ele>52</ele>
        <time>2015-09-14T20:03:14.000Z</time>
      </trkpt>
      <trkpt lat="48.85592" lon="2.40507">
        <ele>51.599998474121</ele>
        <time>2015-09-14T20:03:18.000Z</time>
      </trkpt>
      <trkpt lat="48.85611" lon="2.40496">
        <ele>51.400001525879</ele>
        <time>2015-09-14T20:03:22.000Z</time>
      </trkpt>
      <trkpt lat="48.85629" lon="2.40486">
        <ele>52.400001525879</ele>
        <time>2015-09-14T20:03:26.000Z</time>
      </trkpt>
      <trkpt lat="48.85649" lon="2.40476">
        <ele>53.799999237061</ele>
        <time>2015-09-14T20:03:30.000Z</time>
      </trkpt>
      <trkpt lat="48.85669" lon="2.40467">
        <ele>54.200000762939</ele>
        <time>2015-09-14T20:03:34.000Z</time>
      </trkpt>
      <trkpt lat="48.85673" lon="2.40464">
        <ele>54.400001525879</ele>
        <time>2015-09-14T20:03:35.000Z</time>
      </trkpt>
      <trkpt lat="48.85691" lon="2.40451">
        <ele>54.799999237061</ele>
        <time>2015-09-14T20:03:39.000Z</time>
      </trkpt>
      <trkpt lat="48.85699" lon="2.40445">
        <ele>55</ele>
        <time>2015-09-14T20:03:41.000Z</time>
      </trkpt>
      <trkpt lat="48.85717" lon="2.4043">
        <ele>55.599998474121</ele>
        <time>2015-09-14T20:03:45.000Z</time>
      </trkpt>
      <trkpt lat="48.85734" lon="2.40413">
        <ele>57</ele>
        <time>2015-09-14T20:03:49.000Z</time>
      </trkpt>
      <trkpt lat="48.85745" lon="2.40404">
        <ele>57</ele>
        <time>2015-09-14T20:03:52.000Z</time>
      </trkpt>
      <trkpt lat="48.85751" lon="2.40399">
        <ele>57.200000762939</ele>
        <time>2015-09-14T20:03:54.000Z</time>
      </trkpt>
      <trkpt lat="48.85763" lon="2.40387">
        <ele>57</ele>
        <time>2015-09-14T20:03:57.000Z</time>
      </trkpt>
      <trkpt lat="48.8578" lon="2.40371">
        <ele>57</ele>
        <time>2015-09-14T20:04:01.000Z</time>
      </trkpt>
      <trkpt lat="48.85798" lon="2.40357">
        <ele>56.200000762939</ele>
        <time>2015-09-14T20:04:05.000Z</time>
      </trkpt>
      <trkpt lat="48.85815" lon="2.40338">
        <ele>55.599998474121</ele>
        <time>2015-09-14T20:04:10.000Z</time>
      </trkpt>
      <trkpt lat="48.85832" lon="2.40321">
        <ele>54.799999237061</ele>
        <time>2015-09-14T20:04:15.000Z</time>
      </trkpt>
      <trkpt lat="48.8584" lon="2.40313">
        <ele>53.200000762939</ele>
        <time>2015-09-14T20:04:17.000Z</time>
      </trkpt>
      <trkpt lat="48.85854" lon="2.40294">
        <ele>52.400001525879</ele>
        <time>2015-09-14T20:04:21.000Z</time>
      </trkpt>
      <trkpt lat="48.8586" lon="2.40284">
        <ele>52</ele>
        <time>2015-09-14T20:04:23.000Z</time>
      </trkpt>
      <trkpt lat="48.85874" lon="2.40259">
        <ele>53.400001525879</ele>
        <time>2015-09-14T20:04:28.000Z</time>
      </trkpt>
      <trkpt lat="48.85888" lon="2.40241">
        <ele>54</ele>
        <time>2015-09-14T20:04:33.000Z</time>
      </trkpt>
      <trkpt lat="48.8589" lon="2.40239">
        <ele>54.200000762939</ele>
        <time>2015-09-14T20:04:34.000Z</time>
      </trkpt>
      <trkpt lat="48.85898" lon="2.4023">
        <ele>54</ele>
        <time>2015-09-14T20:04:37.000Z</time>
      </trkpt>
      <trkpt lat="48.85904" lon="2.40221">
        <ele>54.400001525879</ele>
        <time>2015-09-14T20:04:40.000Z</time>
      </trkpt>
      <trkpt lat="48.85908" lon="2.4021">
        <ele>55.799999237061</ele>
        <time>2015-09-14T20:04:44.000Z</time>
      </trkpt>
      <trkpt lat="48.85924" lon="2.40197">
        <ele>61.599998474121</ele>
        <time>2015-09-14T20:05:04.000Z</time>
      </trkpt>
      <trkpt lat="48.85942" lon="2.40185">
        <ele>60.799999237061</ele>
        <time>2015-09-14T20:05:10.000Z</time>
      </trkpt>
      <trkpt lat="48.85958" lon="2.40167">
        <ele>59.599998474121</ele>
        <time>2015-09-14T20:05:16.000Z</time>
      </trkpt>
      <trkpt lat="48.85973" lon="2.40143">
        <ele>58.200000762939</ele>
        <time>2015-09-14T20:05:22.000Z</time>
      </trkpt>
      <trkpt lat="48.85991" lon="2.40126">
        <ele>56.799999237061</ele>
        <time>2015-09-14T20:05:27.000Z</time>
      </trkpt>
      <trkpt lat="48.86011" lon="2.4011">
        <ele>56.799999237061</ele>
        <time>2015-09-14T20:05:32.000Z</time>
      </trkpt>
      <trkpt lat="48.8603" lon="2.40097">
        <ele>56.400001525879</ele>
        <time>2015-09-14T20:05:37.000Z</time>
      </trkpt>
      <trkpt lat="48.86047" lon="2.4008">
        <ele>56.799999237061</ele>
        <time>2015-09-14T20:05:42.000Z</time>
      </trkpt>
      <trkpt lat="48.86064" lon="2.40067">
        <ele>57.799999237061</ele>
        <time>2015-09-14T20:05:46.000Z</time>
      </trkpt>
      <trkpt lat="48.86081" lon="2.40055">
        <ele>59.200000762939</ele>
        <time>2015-09-14T20:05:50.000Z</time>
      </trkpt>
      <trkpt lat="48.86099" lon="2.40042">
        <ele>61.599998474121</ele>
        <time>2015-09-14T20:05:55.000Z</time>
      </trkpt>
      <trkpt lat="48.86118" lon="2.40035">
        <ele>63.200000762939</ele>
        <time>2015-09-14T20:05:59.000Z</time>
      </trkpt>
      <trkpt lat="48.86137" lon="2.4003">
        <ele>65.800003051758</ele>
        <time>2015-09-14T20:06:03.000Z</time>
      </trkpt>
      <trkpt lat="48.86156" lon="2.40022">
        <ele>68.400001525879</ele>
        <time>2015-09-14T20:06:07.000Z</time>
      </trkpt>
      <trkpt lat="48.86164" lon="2.40019">
        <ele>69.599998474121</ele>
        <time>2015-09-14T20:06:09.000Z</time>
      </trkpt>
      <trkpt lat="48.86179" lon="2.40015">
        <ele>69.400001525879</ele>
        <time>2015-09-14T20:06:13.000Z</time>
      </trkpt>
      <trkpt lat="48.86197" lon="2.40009">
        <ele>67.199996948242</ele>
        <time>2015-09-14T20:06:18.000Z</time>
      </trkpt>
      <trkpt lat="48.86215" lon="2.40008">
        <ele>70.800003051758</ele>
        <time>2015-09-14T20:06:26.000Z</time>
      </trkpt>
      <trkpt lat="48.86235" lon="2.39999">
        <ele>74.800003051758</ele>
        <time>2015-09-14T20:06:32.000Z</time>
      </trkpt>
      <trkpt lat="48.86253" lon="2.39983">
        <ele>78.199996948242</ele>
        <time>2015-09-14T20:06:38.000Z</time>
      </trkpt>
      <trkpt lat="48.86274" lon="2.39977">
        <ele>79.400001525879</ele>
        <time>2015-09-14T20:06:43.000Z</time>
      </trkpt>
      <trkpt lat="48.86295" lon="2.39973">
        <ele>80.800003051758</ele>
        <time>2015-09-14T20:06:49.000Z</time>
      </trkpt>
      <trkpt lat="48.86315" lon="2.39961">
        <ele>79.400001525879</ele>
        <time>2015-09-14T20:06:53.000Z</time>
      </trkpt>
      <trkpt lat="48.86333" lon="2.39948">
        <ele>77.400001525879</ele>
        <time>2015-09-14T20:06:57.000Z</time>
      </trkpt>
      <trkpt lat="48.86352" lon="2.39934">
        <ele>75.599998474121</ele>
        <time>2015-09-14T20:07:01.000Z</time>
      </trkpt>
      <trkpt lat="48.86371" lon="2.3992">
        <ele>74.199996948242</ele>
        <time>2015-09-14T20:07:05.000Z</time>
      </trkpt>
      <trkpt lat="48.86392" lon="2.39905">
        <ele>74.400001525879</ele>
        <time>2015-09-14T20:07:10.000Z</time>
      </trkpt>
      <trkpt lat="48.86411" lon="2.39892">
        <ele>74.199996948242</ele>
        <time>2015-09-14T20:07:15.000Z</time>
      </trkpt>
      <trkpt lat="48.8643" lon="2.39881">
        <ele>74.800003051758</ele>
        <time>2015-09-14T20:07:20.000Z</time>
      </trkpt>
      <trkpt lat="48.86436" lon="2.39878">
        <ele>74.400001525879</ele>
        <time>2015-09-14T20:07:22.000Z</time>
      </trkpt>
      <trkpt lat="48.86442" lon="2.39874">
        <ele>73.800003051758</ele>
        <time>2015-09-14T20:07:24.000Z</time>
      </trkpt>
      <trkpt lat="48.86451" lon="2.39871">
        <ele>74.599998474121</ele>
        <time>2015-09-14T20:07:27.000Z</time>
      </trkpt>
      <trkpt lat="48.86461" lon="2.39869">
        <ele>76.599998474121</ele>
        <time>2015-09-14T20:07:31.000Z</time>
      </trkpt>
      <trkpt lat="48.86463" lon="2.39869">
        <ele>76.599998474121</ele>
        <time>2015-09-14T20:07:32.000Z</time>
      </trkpt>
      <trkpt lat="48.86467" lon="2.39869">
        <ele>76.400001525879</ele>
        <time>2015-09-14T20:07:34.000Z</time>
      </trkpt>
      <trkpt lat="48.86476" lon="2.39872">
        <ele>78.400001525879</ele>
        <time>2015-09-14T20:07:47.000Z</time>
      </trkpt>
      <trkpt lat="48.8648" lon="2.39875">
        <ele>79</ele>
        <time>2015-09-14T20:08:00.000Z</time>
      </trkpt>
      <trkpt lat="48.86479" lon="2.39878">
        <ele>87.800003051758</ele>
        <time>2015-09-14T20:08:50.000Z</time>
      </trkpt>
      <trkpt lat="48.86492" lon="2.39871">
        <ele>83.599998474121</ele>
        <time>2015-09-14T20:09:42.000Z</time>
      </trkpt>
      <trkpt lat="48.86507" lon="2.39856">
        <ele>83</ele>
        <time>2015-09-14T20:09:50.000Z</time>
      </trkpt>
      <trkpt lat="48.8652" lon="2.39838">
        <ele>81.400001525879</ele>
        <time>2015-09-14T20:10:01.000Z</time>
      </trkpt>
      <trkpt lat="48.8652" lon="2.39837">
        <ele>81.199996948242</ele>
        <time>2015-09-14T20:10:02.000Z</time>
      </trkpt>
      <trkpt lat="48.86534" lon="2.39818">
        <ele>79.599998474121</ele>
        <time>2015-09-14T20:10:13.000Z</time>
      </trkpt>
      <trkpt lat="48.86552" lon="2.39806">
        <ele>79.199996948242</ele>
        <time>2015-09-14T20:10:18.000Z</time>
      </trkpt>
      <trkpt lat="48.86559" lon="2.398">
        <ele>79</ele>
        <time>2015-09-14T20:10:20.000Z</time>
      </trkpt>
      <trkpt lat="48.86577" lon="2.39789">
        <ele>78.800003051758</ele>
        <time>2015-09-14T20:10:24.000Z</time>
      </trkpt>
      <trkpt lat="48.8658" lon="2.39785">
        <ele>78.800003051758</ele>
        <time>2015-09-14T20:10:25.000Z</time>
      </trkpt>
      <trkpt lat="48.86597" lon="2.39767">
        <ele>77.800003051758</ele>
        <time>2015-09-14T20:10:30.000Z</time>
      </trkpt>
      <trkpt lat="48.86611" lon="2.39756">
        <ele>77.400001525879</ele>
        <time>2015-09-14T20:10:33.000Z</time>
      </trkpt>
      <trkpt lat="48.86628" lon="2.39741">
        <ele>77.400001525879</ele>
        <time>2015-09-14T20:10:37.000Z</time>
      </trkpt>
      <trkpt lat="48.86646" lon="2.39729">
        <ele>77.199996948242</ele>
        <time>2015-09-14T20:10:41.000Z</time>
      </trkpt>
      <trkpt lat="48.86653" lon="2.39722">
        <ele>77</ele>
        <time>2015-09-14T20:10:43.000Z</time>
      </trkpt>
      <trkpt lat="48.86662" lon="2.39716">
        <ele>77</ele>
        <time>2015-09-14T20:10:45.000Z</time>
      </trkpt>
      <trkpt lat="48.86682" lon="2.397">
        <ele>78</ele>
        <time>2015-09-14T20:10:49.000Z</time>
      </trkpt>
      <trkpt lat="48.86688" lon="2.39696">
        <ele>78.599998474121</ele>
        <time>2015-09-14T20:10:50.000Z</time>
      </trkpt>
      <trkpt lat="48.86706" lon="2.39682">
        <ele>79.400001525879</ele>
        <time>2015-09-14T20:10:54.000Z</time>
      </trkpt>
      <trkpt lat="48.86725" lon="2.39666">
        <ele>81.199996948242</ele>
        <time>2015-09-14T20:10:58.000Z</time>
      </trkpt>
      <trkpt lat="48.86731" lon="2.39663">
        <ele>81.599998474121</ele>
        <time>2015-09-14T20:10:59.000Z</time>
      </trkpt>
      <trkpt lat="48.86744" lon="2.39651">
        <ele>82.599998474121</ele>
        <time>2015-09-14T20:11:02.000Z</time>
      </trkpt>
      <trkpt lat="48.86764" lon="2.39636">
        <ele>85</ele>
        <time>2015-09-14T20:11:06.000Z</time>
      </trkpt>
      <trkpt lat="48.86776" lon="2.39625">
        <ele>86.599998474121</ele>
        <time>2015-09-14T20:11:09.000Z</time>
      </trkpt>
      <trkpt lat="48.86796" lon="2.39605">
        <ele>88.599998474121</ele>
        <time>2015-09-14T20:11:14.000Z</time>
      </trkpt>
      <trkpt lat="48.86816" lon="2.39588">
        <ele>90.400001525879</ele>
        <time>2015-09-14T20:11:18.000Z</time>
      </trkpt>
      <trkpt lat="48.86822" lon="2.39585">
        <ele>90.800003051758</ele>
        <time>2015-09-14T20:11:19.000Z</time>
      </trkpt>
      <trkpt lat="48.86842" lon="2.39571">
        <ele>91.800003051758</ele>
        <time>2015-09-14T20:11:23.000Z</time>
      </trkpt>
      <trkpt lat="48.86851" lon="2.39562">
        <ele>92.400001525879</ele>
        <time>2015-09-14T20:11:25.000Z</time>
      </trkpt>
      <trkpt lat="48.86867" lon="2.39546">
        <ele>94.199996948242</ele>
        <time>2015-09-14T20:11:29.000Z</time>
      </trkpt>
      <trkpt lat="48.86882" lon="2.39524">
        <ele>95</ele>
        <time>2015-09-14T20:11:33.000Z</time>
      </trkpt>
      <trkpt lat="48.8689" lon="2.39506">
        <ele>96.199996948242</ele>
        <time>2015-09-14T20:11:36.000Z</time>
      </trkpt>
      <trkpt lat="48.86906" lon="2.39487">
        <ele>97.199996948242</ele>
        <time>2015-09-14T20:11:40.000Z</time>
      </trkpt>
      <trkpt lat="48.86916" lon="2.39479">
        <ele>97.199996948242</ele>
        <time>2015-09-14T20:11:42.000Z</time>
      </trkpt>
      <trkpt lat="48.86939" lon="2.39467">
        <ele>98</ele>
        <time>2015-09-14T20:11:46.000Z</time>
      </trkpt>
      <trkpt lat="48.86961" lon="2.39456">
        <ele>99.599998474121</ele>
        <time>2015-09-14T20:11:50.000Z</time>
      </trkpt>
      <trkpt lat="48.86977" lon="2.39452">
        <ele>99.199996948242</ele>
        <time>2015-09-14T20:11:54.000Z</time>
      </trkpt>
      <trkpt lat="48.86983" lon="2.39451">
        <ele>98.599998474121</ele>
        <time>2015-09-14T20:11:56.000Z</time>
      </trkpt>
      <trkpt lat="48.86995" lon="2.39458">
        <ele>96.400001525879</ele>
        <time>2015-09-14T20:12:04.000Z</time>
      </trkpt>
      <trkpt lat="48.87003" lon="2.39458">
        <ele>104.80000305176</ele>
        <time>2015-09-14T20:12:56.000Z</time>
      </trkpt>
      <trkpt lat="48.87018" lon="2.39434">
        <ele>104</ele>
        <time>2015-09-14T20:13:02.000Z</time>
      </trkpt>
      <trkpt lat="48.87034" lon="2.39412">
        <ele>102.59999847412</ele>
        <time>2015-09-14T20:13:07.000Z</time>
      </trkpt>
      <trkpt lat="48.87046" lon="2.39391">
        <ele>102</ele>
        <time>2015-09-14T20:13:11.000Z</time>
      </trkpt>
      <trkpt lat="48.87061" lon="2.39371">
        <ele>100.80000305176</ele>
        <time>2015-09-14T20:13:15.000Z</time>
      </trkpt>
      <trkpt lat="48.87074" lon="2.39343">
        <ele>99.800003051758</ele>
        <time>2015-09-14T20:13:19.000Z</time>
      </trkpt>
      <trkpt lat="48.8709" lon="2.39323">
        <ele>97.800003051758</ele>
        <time>2015-09-14T20:13:23.000Z</time>
      </trkpt>
      <trkpt lat="48.87105" lon="2.39307">
        <ele>97.199996948242</ele>
        <time>2015-09-14T20:13:26.000Z</time>
      </trkpt>
      <trkpt lat="48.8712" lon="2.39294">
        <ele>96.199996948242</ele>
        <time>2015-09-14T20:13:29.000Z</time>
      </trkpt>
      <trkpt lat="48.87134" lon="2.39276">
        <ele>94.400001525879</ele>
        <time>2015-09-14T20:13:33.000Z</time>
      </trkpt>
      <trkpt lat="48.87149" lon="2.3926">
        <ele>92.199996948242</ele>
        <time>2015-09-14T20:13:37.000Z</time>
      </trkpt>
      <trkpt lat="48.87163" lon="2.39242">
        <ele>89.800003051758</ele>
        <time>2015-09-14T20:13:41.000Z</time>
      </trkpt>
      <trkpt lat="48.87177" lon="2.39224">
        <ele>87.199996948242</ele>
        <time>2015-09-14T20:13:45.000Z</time>
      </trkpt>
      <trkpt lat="48.87189" lon="2.39209">
        <ele>85.599998474121</ele>
        <time>2015-09-14T20:13:48.000Z</time>
      </trkpt>
      <trkpt lat="48.87206" lon="2.39184">
        <ele>83.800003051758</ele>
        <time>2015-09-14T20:13:52.000Z</time>
      </trkpt>
      <trkpt lat="48.87218" lon="2.39164">
        <ele>81.800003051758</ele>
        <time>2015-09-14T20:13:55.000Z</time>
      </trkpt>
      <trkpt lat="48.87231" lon="2.39145">
        <ele>80.199996948242</ele>
        <time>2015-09-14T20:13:58.000Z</time>
      </trkpt>
      <trkpt lat="48.87245" lon="2.39125">
        <ele>79.199996948242</ele>
        <time>2015-09-14T20:14:01.000Z</time>
      </trkpt>
      <trkpt lat="48.87259" lon="2.39105">
        <ele>78.199996948242</ele>
        <time>2015-09-14T20:14:04.000Z</time>
      </trkpt>
      <trkpt lat="48.87273" lon="2.39083">
        <ele>76.800003051758</ele>
        <time>2015-09-14T20:14:07.000Z</time>
      </trkpt>
      <trkpt lat="48.87288" lon="2.39063">
        <ele>75</ele>
        <time>2015-09-14T20:14:10.000Z</time>
      </trkpt>
      <trkpt lat="48.87304" lon="2.39043">
        <ele>73.800003051758</ele>
        <time>2015-09-14T20:14:13.000Z</time>
      </trkpt>
      <trkpt lat="48.87321" lon="2.39021">
        <ele>72.400001525879</ele>
        <time>2015-09-14T20:14:16.000Z</time>
      </trkpt>
      <trkpt lat="48.87336" lon="2.38999">
        <ele>71.599998474121</ele>
        <time>2015-09-14T20:14:19.000Z</time>
      </trkpt>
      <trkpt lat="48.87353" lon="2.38979">
        <ele>72.599998474121</ele>
        <time>2015-09-14T20:14:22.000Z</time>
      </trkpt>
      <trkpt lat="48.87361" lon="2.38966">
        <ele>73</ele>
        <time>2015-09-14T20:14:24.000Z</time>
      </trkpt>
      <trkpt lat="48.87373" lon="2.38949">
        <ele>73.400001525879</ele>
        <time>2015-09-14T20:14:28.000Z</time>
      </trkpt>
      <trkpt lat="48.87374" lon="2.38935">
        <ele>74.599998474121</ele>
        <time>2015-09-14T20:14:32.000Z</time>
      </trkpt>
      <trkpt lat="48.87374" lon="2.38931">
        <ele>74.599998474121</ele>
        <time>2015-09-14T20:14:33.000Z</time>
      </trkpt>
      <trkpt lat="48.87375" lon="2.38919">
        <ele>75</ele>
        <time>2015-09-14T20:14:35.000Z</time>
      </trkpt>
      <trkpt lat="48.8738" lon="2.38889">
        <ele>76.599998474121</ele>
        <time>2015-09-14T20:14:39.000Z</time>
      </trkpt>
      <trkpt lat="48.87382" lon="2.38859">
        <ele>77.400001525879</ele>
        <time>2015-09-14T20:14:43.000Z</time>
      </trkpt>
      <trkpt lat="48.87383" lon="2.38837">
        <ele>77.400001525879</ele>
        <time>2015-09-14T20:14:46.000Z</time>
      </trkpt>
      <trkpt lat="48.87385" lon="2.38814">
        <ele>77.400001525879</ele>
        <time>2015-09-14T20:14:49.000Z</time>
      </trkpt>
      <trkpt lat="48.87388" lon="2.38785">
        <ele>77.199996948242</ele>
        <time>2015-09-14T20:14:53.000Z</time>
      </trkpt>
      <trkpt lat="48.8739" lon="2.38749">
        <ele>77.800003051758</ele>
        <time>2015-09-14T20:14:57.000Z</time>
      </trkpt>
      <trkpt lat="48.8739" lon="2.3874">
        <ele>78</ele>
        <time>2015-09-14T20:14:58.000Z</time>
      </trkpt>
      <trkpt lat="48.8739" lon="2.38712">
        <ele>79.400001525879</ele>
        <time>2015-09-14T20:15:01.000Z</time>
      </trkpt>
      <trkpt lat="48.87388" lon="2.3869">
        <ele>80.199996948242</ele>
        <time>2015-09-14T20:15:04.000Z</time>
      </trkpt>
      <trkpt lat="48.87387" lon="2.38661">
        <ele>81.800003051758</ele>
        <time>2015-09-14T20:15:08.000Z</time>
      </trkpt>
      <trkpt lat="48.87388" lon="2.38633">
        <ele>82.400001525879</ele>
        <time>2015-09-14T20:15:12.000Z</time>
      </trkpt>
      <trkpt lat="48.87389" lon="2.386">
        <ele>83</ele>
        <time>2015-09-14T20:15:17.000Z</time>
      </trkpt>
      <trkpt lat="48.87393" lon="2.38582">
        <ele>82.599998474121</ele>
        <time>2015-09-14T20:15:20.000Z</time>
      </trkpt>
      <trkpt lat="48.87401" lon="2.38558">
        <ele>82.800003051758</ele>
        <time>2015-09-14T20:15:25.000Z</time>
      </trkpt>
      <trkpt lat="48.87404" lon="2.38541">
        <ele>84.199996948242</ele>
        <time>2015-09-14T20:15:29.000Z</time>
      </trkpt>
      <trkpt lat="48.87403" lon="2.38536">
        <ele>84</ele>
        <time>2015-09-14T20:15:30.000Z</time>
      </trkpt>
      <trkpt lat="48.87397" lon="2.38516">
        <ele>85.400001525879</ele>
        <time>2015-09-14T20:15:34.000Z</time>
      </trkpt>
      <trkpt lat="48.87395" lon="2.3851">
        <ele>85.599998474121</ele>
        <time>2015-09-14T20:15:35.000Z</time>
      </trkpt>
      <trkpt lat="48.87399" lon="2.38478">
        <ele>85</ele>
        <time>2015-09-14T20:15:39.000Z</time>
      </trkpt>
      <trkpt lat="48.87402" lon="2.3847">
        <ele>84.800003051758</ele>
        <time>2015-09-14T20:15:40.000Z</time>
      </trkpt>
      <trkpt lat="48.8741" lon="2.38442">
        <ele>86</ele>
        <time>2015-09-14T20:15:43.000Z</time>
      </trkpt>
      <trkpt lat="48.8742" lon="2.38414">
        <ele>85.800003051758</ele>
        <time>2015-09-14T20:15:46.000Z</time>
      </trkpt>
      <trkpt lat="48.87431" lon="2.38389">
        <ele>84</ele>
        <time>2015-09-14T20:15:49.000Z</time>
      </trkpt>
      <trkpt lat="48.87441" lon="2.38367">
        <ele>81.800003051758</ele>
        <time>2015-09-14T20:15:52.000Z</time>
      </trkpt>
      <trkpt lat="48.87456" lon="2.38341">
        <ele>78.800003051758</ele>
        <time>2015-09-14T20:15:56.000Z</time>
      </trkpt>
      <trkpt lat="48.8747" lon="2.38321">
        <ele>76</ele>
        <time>2015-09-14T20:15:59.000Z</time>
      </trkpt>
      <trkpt lat="48.87485" lon="2.38296">
        <ele>72</ele>
        <time>2015-09-14T20:16:03.000Z</time>
      </trkpt>
      <trkpt lat="48.87501" lon="2.38273">
        <ele>67.400001525879</ele>
        <time>2015-09-14T20:16:07.000Z</time>
      </trkpt>
      <trkpt lat="48.87514" lon="2.38255">
        <ele>64.800003051758</ele>
        <time>2015-09-14T20:16:10.000Z</time>
      </trkpt>
      <trkpt lat="48.8753" lon="2.38231">
        <ele>62.400001525879</ele>
        <time>2015-09-14T20:16:14.000Z</time>
      </trkpt>
      <trkpt lat="48.87546" lon="2.3821">
        <ele>59.799999237061</ele>
        <time>2015-09-14T20:16:18.000Z</time>
      </trkpt>
      <trkpt lat="48.87563" lon="2.38191">
        <ele>56.200000762939</ele>
        <time>2015-09-14T20:16:22.000Z</time>
      </trkpt>
      <trkpt lat="48.87575" lon="2.38175">
        <ele>54.599998474121</ele>
        <time>2015-09-14T20:16:25.000Z</time>
      </trkpt>
      <trkpt lat="48.87592" lon="2.38154">
        <ele>54.400001525879</ele>
        <time>2015-09-14T20:16:29.000Z</time>
      </trkpt>
      <trkpt lat="48.87604" lon="2.38132">
        <ele>54.799999237061</ele>
        <time>2015-09-14T20:16:33.000Z</time>
      </trkpt>
      <trkpt lat="48.87606" lon="2.38125">
        <ele>55</ele>
        <time>2015-09-14T20:16:34.000Z</time>
      </trkpt>
      <trkpt lat="48.87613" lon="2.38099">
        <ele>52.400001525879</ele>
        <time>2015-09-14T20:16:38.000Z</time>
      </trkpt>
      <trkpt lat="48.87618" lon="2.38067">
        <ele>53.400001525879</ele>
        <time>2015-09-14T20:16:42.000Z</time>
      </trkpt>
      <trkpt lat="48.8762" lon="2.38059">
        <ele>53</ele>
        <time>2015-09-14T20:16:43.000Z</time>
      </trkpt>
      <trkpt lat="48.87629" lon="2.38024">
        <ele>52.799999237061</ele>
        <time>2015-09-14T20:16:47.000Z</time>
      </trkpt>
      <trkpt lat="48.87635" lon="2.37997">
        <ele>52.599998474121</ele>
        <time>2015-09-14T20:16:50.000Z</time>
      </trkpt>
      <trkpt lat="48.87636" lon="2.37985">
        <ele>54</ele>
        <time>2015-09-14T20:16:51.000Z</time>
      </trkpt>
      <trkpt lat="48.87642" lon="2.37954">
        <ele>58.200000762939</ele>
        <time>2015-09-14T20:16:54.000Z</time>
      </trkpt>
      <trkpt lat="48.87642" lon="2.37944">
        <ele>58</ele>
        <time>2015-09-14T20:16:55.000Z</time>
      </trkpt>
      <trkpt lat="48.87645" lon="2.37917">
        <ele>58.599998474121</ele>
        <time>2015-09-14T20:16:58.000Z</time>
      </trkpt>
      <trkpt lat="48.8765" lon="2.37883">
        <ele>58.799999237061</ele>
        <time>2015-09-14T20:17:02.000Z</time>
      </trkpt>
      <trkpt lat="48.87652" lon="2.37847">
        <ele>60</ele>
        <time>2015-09-14T20:17:06.000Z</time>
      </trkpt>
      <trkpt lat="48.87652" lon="2.37814">
        <ele>60.599998474121</ele>
        <time>2015-09-14T20:17:10.000Z</time>
      </trkpt>
      <trkpt lat="48.8765" lon="2.37784">
        <ele>61.400001525879</ele>
        <time>2015-09-14T20:17:14.000Z</time>
      </trkpt>
      <trkpt lat="48.87646" lon="2.37754">
        <ele>61.799999237061</ele>
        <time>2015-09-14T20:17:18.000Z</time>
      </trkpt>
      <trkpt lat="48.87643" lon="2.37745">
        <ele>62</ele>
        <time>2015-09-14T20:17:19.000Z</time>
      </trkpt>
      <trkpt lat="48.87636" lon="2.3772">
        <ele>62.599998474121</ele>
        <time>2015-09-14T20:17:22.000Z</time>
      </trkpt>
      <trkpt lat="48.87627" lon="2.37687">
        <ele>63.200000762939</ele>
        <time>2015-09-14T20:17:26.000Z</time>
      </trkpt>
      <trkpt lat="48.87627" lon="2.37659">
        <ele>63.799999237061</ele>
        <time>2015-09-14T20:17:29.000Z</time>
      </trkpt>
      <trkpt lat="48.87622" lon="2.37628">
        <ele>65.199996948242</ele>
        <time>2015-09-14T20:17:33.000Z</time>
      </trkpt>
      <trkpt lat="48.87621" lon="2.37612">
        <ele>65.800003051758</ele>
        <time>2015-09-14T20:17:35.000Z</time>
      </trkpt>
      <trkpt lat="48.87624" lon="2.37585">
        <ele>64.800003051758</ele>
        <time>2015-09-14T20:17:38.000Z</time>
      </trkpt>
      <trkpt lat="48.87626" lon="2.37575">
        <ele>63.799999237061</ele>
        <time>2015-09-14T20:17:39.000Z</time>
      </trkpt>
      <trkpt lat="48.87632" lon="2.37548">
        <ele>62</ele>
        <time>2015-09-14T20:17:42.000Z</time>
      </trkpt>
      <trkpt lat="48.87642" lon="2.37523">
        <ele>60</ele>
        <time>2015-09-14T20:17:45.000Z</time>
      </trkpt>
      <trkpt lat="48.87653" lon="2.37498">
        <ele>58.400001525879</ele>
        <time>2015-09-14T20:17:48.000Z</time>
      </trkpt>
      <trkpt lat="48.87657" lon="2.3749">
        <ele>58</ele>
        <time>2015-09-14T20:17:49.000Z</time>
      </trkpt>
      <trkpt lat="48.87672" lon="2.37468">
        <ele>56.599998474121</ele>
        <time>2015-09-14T20:17:52.000Z</time>
      </trkpt>
      <trkpt lat="48.87686" lon="2.37449">
        <ele>55.400001525879</ele>
        <time>2015-09-14T20:17:55.000Z</time>
      </trkpt>
      <trkpt lat="48.87691" lon="2.37444">
        <ele>55</ele>
        <time>2015-09-14T20:17:56.000Z</time>
      </trkpt>
      <trkpt lat="48.87708" lon="2.37433">
        <ele>54.799999237061</ele>
        <time>2015-09-14T20:17:59.000Z</time>
      </trkpt>
      <trkpt lat="48.8773" lon="2.3742">
        <ele>54</ele>
        <time>2015-09-14T20:18:03.000Z</time>
      </trkpt>
      <trkpt lat="48.87744" lon="2.37414">
        <ele>53.400001525879</ele>
        <time>2015-09-14T20:18:06.000Z</time>
      </trkpt>
      <trkpt lat="48.87763" lon="2.37416">
        <ele>52.799999237061</ele>
        <time>2015-09-14T20:18:10.000Z</time>
      </trkpt>
      <trkpt lat="48.87776" lon="2.37415">
        <ele>51</ele>
        <time>2015-09-14T20:18:12.000Z</time>
      </trkpt>
      <trkpt lat="48.8779" lon="2.37416">
        <ele>48.799999237061</ele>
        <time>2015-09-14T20:18:15.000Z</time>
      </trkpt>
      <trkpt lat="48.87811" lon="2.37418">
        <ele>45.599998474121</ele>
        <time>2015-09-14T20:18:19.000Z</time>
      </trkpt>
      <trkpt lat="48.87826" lon="2.37421">
        <ele>42.799999237061</ele>
        <time>2015-09-14T20:18:22.000Z</time>
      </trkpt>
      <trkpt lat="48.87843" lon="2.37428">
        <ele>40.599998474121</ele>
        <time>2015-09-14T20:18:26.000Z</time>
      </trkpt>
      <trkpt lat="48.87861" lon="2.37431">
        <ele>40.200000762939</ele>
        <time>2015-09-14T20:18:30.000Z</time>
      </trkpt>
      <trkpt lat="48.87869" lon="2.37431">
        <ele>40.200000762939</ele>
        <time>2015-09-14T20:18:32.000Z</time>
      </trkpt>
      <trkpt lat="48.87888" lon="2.37439">
        <ele>41.799999237061</ele>
        <time>2015-09-14T20:18:38.000Z</time>
      </trkpt>
      <trkpt lat="48.87911" lon="2.37443">
        <ele>39.200000762939</ele>
        <time>2015-09-14T20:18:42.000Z</time>
      </trkpt>
      <trkpt lat="48.8793" lon="2.37446">
        <ele>37</ele>
        <time>2015-09-14T20:18:46.000Z</time>
      </trkpt>
      <trkpt lat="48.87952" lon="2.37445">
        <ele>35</ele>
        <time>2015-09-14T20:18:50.000Z</time>
      </trkpt>
      <trkpt lat="48.87977" lon="2.37438">
        <ele>34.400001525879</ele>
        <time>2015-09-14T20:18:53.000Z</time>
      </trkpt>
      <trkpt lat="48.87999" lon="2.37431">
        <ele>34.200000762939</ele>
        <time>2015-09-14T20:18:56.000Z</time>
      </trkpt>
      <trkpt lat="48.8802" lon="2.37421">
        <ele>33.400001525879</ele>
        <time>2015-09-14T20:18:59.000Z</time>
      </trkpt>
      <trkpt lat="48.88038" lon="2.37414">
        <ele>32.599998474121</ele>
        <time>2015-09-14T20:19:02.000Z</time>
      </trkpt>
      <trkpt lat="48.88056" lon="2.37405">
        <ele>32.400001525879</ele>
        <time>2015-09-14T20:19:05.000Z</time>
      </trkpt>
      <trkpt lat="48.88072" lon="2.37393">
        <ele>31.39999961853</ele>
        <time>2015-09-14T20:19:08.000Z</time>
      </trkpt>
      <trkpt lat="48.8809" lon="2.37377">
        <ele>30.60000038147</ele>
        <time>2015-09-14T20:19:11.000Z</time>
      </trkpt>
      <trkpt lat="48.88106" lon="2.37359">
        <ele>29.799999237061</ele>
        <time>2015-09-14T20:19:14.000Z</time>
      </trkpt>
      <trkpt lat="48.8812" lon="2.37337">
        <ele>24.60000038147</ele>
        <time>2015-09-14T20:19:17.000Z</time>
      </trkpt>
      <trkpt lat="48.88133" lon="2.37314">
        <ele>22.39999961853</ele>
        <time>2015-09-14T20:19:20.000Z</time>
      </trkpt>
      <trkpt lat="48.88144" lon="2.37291">
        <ele>20.200000762939</ele>
        <time>2015-09-14T20:19:23.000Z</time>
      </trkpt>
      <trkpt lat="48.88156" lon="2.37267">
        <ele>18</ele>
        <time>2015-09-14T20:19:26.000Z</time>
      </trkpt>
      <trkpt lat="48.88167" lon="2.37242">
        <ele>14</ele>
        <time>2015-09-14T20:19:29.000Z</time>
      </trkpt>
      <trkpt lat="48.88173" lon="2.37226">
        <ele>12.60000038147</ele>
        <time>2015-09-14T20:19:31.000Z</time>
      </trkpt>
      <trkpt lat="48.88185" lon="2.37202">
        <ele>11.199999809265</ele>
        <time>2015-09-14T20:19:34.000Z</time>
      </trkpt>
      <trkpt lat="48.88194" lon="2.37187">
        <ele>10.39999961853</ele>
        <time>2015-09-14T20:19:36.000Z</time>
      </trkpt>
      <trkpt lat="48.88206" lon="2.37163">
        <ele>9.8000001907349</ele>
        <time>2015-09-14T20:19:39.000Z</time>
      </trkpt>
      <trkpt lat="48.88209" lon="2.37154">
        <ele>9.3999996185303</ele>
        <time>2015-09-14T20:19:40.000Z</time>
      </trkpt>
      <trkpt lat="48.8822" lon="2.37128">
        <ele>9.6000003814697</ele>
        <time>2015-09-14T20:19:43.000Z</time>
      </trkpt>
      <trkpt lat="48.8823" lon="2.37106">
        <ele>8.3999996185303</ele>
        <time>2015-09-14T20:19:46.000Z</time>
      </trkpt>
      <trkpt lat="48.88242" lon="2.37078">
        <ele>7.8000001907349</ele>
        <time>2015-09-14T20:19:50.000Z</time>
      </trkpt>
      <trkpt lat="48.88253" lon="2.37055">
        <ele>9</ele>
        <time>2015-09-14T20:19:54.000Z</time>
      </trkpt>
      <trkpt lat="48.88271" lon="2.37044">
        <ele>13.800000190735</ele>
        <time>2015-09-14T20:19:59.000Z</time>
      </trkpt>
      <trkpt lat="48.88272" lon="2.37044">
        <ele>14.60000038147</ele>
        <time>2015-09-14T20:20:00.000Z</time>
      </trkpt>
      <trkpt lat="48.88273" lon="2.37039">
        <ele>18.39999961853</ele>
        <time>2015-09-14T20:20:03.000Z</time>
      </trkpt>
      <trkpt lat="48.88274" lon="2.37031">
        <ele>27.39999961853</ele>
        <time>2015-09-14T20:20:21.000Z</time>
      </trkpt>
      <trkpt lat="48.88281" lon="2.37012">
        <ele>28.60000038147</ele>
        <time>2015-09-14T20:20:30.000Z</time>
      </trkpt>
      <trkpt lat="48.88281" lon="2.37003">
        <ele>29</ele>
        <time>2015-09-14T20:20:33.000Z</time>
      </trkpt>
      <trkpt lat="48.88282" lon="2.37001">
        <ele>29.200000762939</ele>
        <time>2015-09-14T20:20:34.000Z</time>
      </trkpt>
      <trkpt lat="48.88273" lon="2.36975">
        <ele>31.39999961853</ele>
        <time>2015-09-14T20:20:45.000Z</time>
      </trkpt>
      <trkpt lat="48.88262" lon="2.3695">
        <ele>33.200000762939</ele>
        <time>2015-09-14T20:20:50.000Z</time>
      </trkpt>
      <trkpt lat="48.88254" lon="2.36925">
        <ele>34.200000762939</ele>
        <time>2015-09-14T20:20:54.000Z</time>
      </trkpt>
      <trkpt lat="48.88246" lon="2.36895">
        <ele>35.599998474121</ele>
        <time>2015-09-14T20:20:58.000Z</time>
      </trkpt>
      <trkpt lat="48.88235" lon="2.36866">
        <ele>38.200000762939</ele>
        <time>2015-09-14T20:21:02.000Z</time>
      </trkpt>
      <trkpt lat="48.88226" lon="2.36845">
        <ele>39</ele>
        <time>2015-09-14T20:21:05.000Z</time>
      </trkpt>
      <trkpt lat="48.88217" lon="2.36819">
        <ele>39.599998474121</ele>
        <time>2015-09-14T20:21:09.000Z</time>
      </trkpt>
      <trkpt lat="48.88204" lon="2.36792">
        <ele>41.200000762939</ele>
        <time>2015-09-14T20:21:13.000Z</time>
      </trkpt>
      <trkpt lat="48.88195" lon="2.36765">
        <ele>42.400001525879</ele>
        <time>2015-09-14T20:21:17.000Z</time>
      </trkpt>
      <trkpt lat="48.88186" lon="2.36737">
        <ele>44.599998474121</ele>
        <time>2015-09-14T20:21:21.000Z</time>
      </trkpt>
      <trkpt lat="48.88178" lon="2.36709">
        <ele>45.599998474121</ele>
        <time>2015-09-14T20:21:25.000Z</time>
      </trkpt>
      <trkpt lat="48.88169" lon="2.36683">
        <ele>47.400001525879</ele>
        <time>2015-09-14T20:21:29.000Z</time>
      </trkpt>
      <trkpt lat="48.88165" lon="2.36662">
        <ele>49.200000762939</ele>
        <time>2015-09-14T20:21:32.000Z</time>
      </trkpt>
      <trkpt lat="48.88164" lon="2.36633">
        <ele>47.799999237061</ele>
        <time>2015-09-14T20:21:36.000Z</time>
      </trkpt>
      <trkpt lat="48.88166" lon="2.36625">
        <ele>47.400001525879</ele>
        <time>2015-09-14T20:21:37.000Z</time>
      </trkpt>
      <trkpt lat="48.88163" lon="2.36597">
        <ele>47.799999237061</ele>
        <time>2015-09-14T20:21:42.000Z</time>
      </trkpt>
      <trkpt lat="48.88155" lon="2.36579">
        <ele>47.799999237061</ele>
        <time>2015-09-14T20:21:47.000Z</time>
      </trkpt>
      <trkpt lat="48.88151" lon="2.3657">
        <ele>47.799999237061</ele>
        <time>2015-09-14T20:21:49.000Z</time>
      </trkpt>
      <trkpt lat="48.88143" lon="2.36557">
        <ele>48.200000762939</ele>
        <time>2015-09-14T20:21:52.000Z</time>
      </trkpt>
      <trkpt lat="48.88125" lon="2.36535">
        <ele>49</ele>
        <time>2015-09-14T20:21:57.000Z</time>
      </trkpt>
      <trkpt lat="48.88109" lon="2.36512">
        <ele>50.200000762939</ele>
        <time>2015-09-14T20:22:02.000Z</time>
      </trkpt>
      <trkpt lat="48.88096" lon="2.36492">
        <ele>50.799999237061</ele>
        <time>2015-09-14T20:22:06.000Z</time>
      </trkpt>
      <trkpt lat="48.8808" lon="2.36474">
        <ele>51.799999237061</ele>
        <time>2015-09-14T20:22:10.000Z</time>
      </trkpt>
      <trkpt lat="48.88063" lon="2.36456">
        <ele>52</ele>
        <time>2015-09-14T20:22:14.000Z</time>
      </trkpt>
      <trkpt lat="48.88046" lon="2.36436">
        <ele>52.400001525879</ele>
        <time>2015-09-14T20:22:18.000Z</time>
      </trkpt>
      <trkpt lat="48.8803" lon="2.36414">
        <ele>53.200000762939</ele>
        <time>2015-09-14T20:22:22.000Z</time>
      </trkpt>
      <trkpt lat="48.88012" lon="2.36393">
        <ele>53.200000762939</ele>
        <time>2015-09-14T20:22:26.000Z</time>
      </trkpt>
      <trkpt lat="48.87994" lon="2.36375">
        <ele>54.599998474121</ele>
        <time>2015-09-14T20:22:30.000Z</time>
      </trkpt>
      <trkpt lat="48.87978" lon="2.36355">
        <ele>56.200000762939</ele>
        <time>2015-09-14T20:22:34.000Z</time>
      </trkpt>
      <trkpt lat="48.87958" lon="2.36335">
        <ele>58.200000762939</ele>
        <time>2015-09-14T20:22:38.000Z</time>
      </trkpt>
      <trkpt lat="48.8794" lon="2.36313">
        <ele>60.400001525879</ele>
        <time>2015-09-14T20:22:42.000Z</time>
      </trkpt>
      <trkpt lat="48.87923" lon="2.36293">
        <ele>61.200000762939</ele>
        <time>2015-09-14T20:22:46.000Z</time>
      </trkpt>
      <trkpt lat="48.87919" lon="2.36287">
        <ele>61.400001525879</ele>
        <time>2015-09-14T20:22:47.000Z</time>
      </trkpt>
      <trkpt lat="48.87912" lon="2.36279">
        <ele>62.400001525879</ele>
        <time>2015-09-14T20:22:49.000Z</time>
      </trkpt>
      <trkpt lat="48.87898" lon="2.36257">
        <ele>62.799999237061</ele>
        <time>2015-09-14T20:22:54.000Z</time>
      </trkpt>
      <trkpt lat="48.87895" lon="2.36248">
        <ele>63</ele>
        <time>2015-09-14T20:22:56.000Z</time>
      </trkpt>
      <trkpt lat="48.87892" lon="2.36245">
        <ele>63.200000762939</ele>
        <time>2015-09-14T20:22:57.000Z</time>
      </trkpt>
      <trkpt lat="48.87877" lon="2.36227">
        <ele>60.599998474121</ele>
        <time>2015-09-14T20:23:03.000Z</time>
      </trkpt>
      <trkpt lat="48.87869" lon="2.36219">
        <ele>57.799999237061</ele>
        <time>2015-09-14T20:23:06.000Z</time>
      </trkpt>
      <trkpt lat="48.87861" lon="2.36213">
        <ele>57.200000762939</ele>
        <time>2015-09-14T20:23:09.000Z</time>
      </trkpt>
      <trkpt lat="48.87841" lon="2.36202">
        <ele>55.400001525879</ele>
        <time>2015-09-14T20:23:14.000Z</time>
      </trkpt>
      <trkpt lat="48.87823" lon="2.36189">
        <ele>50.400001525879</ele>
        <time>2015-09-14T20:23:18.000Z</time>
      </trkpt>
      <trkpt lat="48.87819" lon="2.36186">
        <ele>50</ele>
        <time>2015-09-14T20:23:19.000Z</time>
      </trkpt>
      <trkpt lat="48.87803" lon="2.36165">
        <ele>37.599998474121</ele>
        <time>2015-09-14T20:23:23.000Z</time>
      </trkpt>
      <trkpt lat="48.87782" lon="2.36152">
        <ele>35</ele>
        <time>2015-09-14T20:23:27.000Z</time>
      </trkpt>
      <trkpt lat="48.87761" lon="2.36139">
        <ele>32.599998474121</ele>
        <time>2015-09-14T20:23:31.000Z</time>
      </trkpt>
      <trkpt lat="48.87738" lon="2.36128">
        <ele>30.799999237061</ele>
        <time>2015-09-14T20:23:35.000Z</time>
      </trkpt>
      <trkpt lat="48.87721" lon="2.36117">
        <ele>30.39999961853</ele>
        <time>2015-09-14T20:23:38.000Z</time>
      </trkpt>
      <trkpt lat="48.87703" lon="2.36107">
        <ele>29.39999961853</ele>
        <time>2015-09-14T20:23:41.000Z</time>
      </trkpt>
      <trkpt lat="48.87685" lon="2.36096">
        <ele>28.799999237061</ele>
        <time>2015-09-14T20:23:44.000Z</time>
      </trkpt>
      <trkpt lat="48.87666" lon="2.36086">
        <ele>29.200000762939</ele>
        <time>2015-09-14T20:23:47.000Z</time>
      </trkpt>
      <trkpt lat="48.87647" lon="2.36076">
        <ele>30</ele>
        <time>2015-09-14T20:23:50.000Z</time>
      </trkpt>
      <trkpt lat="48.87629" lon="2.36065">
        <ele>30.39999961853</ele>
        <time>2015-09-14T20:23:53.000Z</time>
      </trkpt>
      <trkpt lat="48.87612" lon="2.36053">
        <ele>32</ele>
        <time>2015-09-14T20:23:56.000Z</time>
      </trkpt>
      <trkpt lat="48.87594" lon="2.36029">
        <ele>27.200000762939</ele>
        <time>2015-09-14T20:24:00.000Z</time>
      </trkpt>
      <trkpt lat="48.87579" lon="2.36006">
        <ele>21.200000762939</ele>
        <time>2015-09-14T20:24:04.000Z</time>
      </trkpt>
      <trkpt lat="48.87562" lon="2.35988">
        <ele>20.60000038147</ele>
        <time>2015-09-14T20:24:08.000Z</time>
      </trkpt>
      <trkpt lat="48.87558" lon="2.35982">
        <ele>20.60000038147</ele>
        <time>2015-09-14T20:24:09.000Z</time>
      </trkpt>
      <trkpt lat="48.87546" lon="2.35961">
        <ele>22.39999961853</ele>
        <time>2015-09-14T20:24:13.000Z</time>
      </trkpt>
      <trkpt lat="48.87538" lon="2.35936">
        <ele>23</ele>
        <time>2015-09-14T20:24:18.000Z</time>
      </trkpt>
      <trkpt lat="48.87531" lon="2.35923">
        <ele>22.60000038147</ele>
        <time>2015-09-14T20:24:21.000Z</time>
      </trkpt>
      <trkpt lat="48.87515" lon="2.35908">
        <ele>24.60000038147</ele>
        <time>2015-09-14T20:24:26.000Z</time>
      </trkpt>
      <trkpt lat="48.87497" lon="2.35894">
        <ele>26.799999237061</ele>
        <time>2015-09-14T20:24:31.000Z</time>
      </trkpt>
      <trkpt lat="48.87479" lon="2.35882">
        <ele>25.799999237061</ele>
        <time>2015-09-14T20:24:35.000Z</time>
      </trkpt>
      <trkpt lat="48.8747" lon="2.35876">
        <ele>25.799999237061</ele>
        <time>2015-09-14T20:24:37.000Z</time>
      </trkpt>
      <trkpt lat="48.87451" lon="2.35866">
        <ele>26.39999961853</ele>
        <time>2015-09-14T20:24:41.000Z</time>
      </trkpt>
      <trkpt lat="48.87431" lon="2.35853">
        <ele>27.200000762939</ele>
        <time>2015-09-14T20:24:46.000Z</time>
      </trkpt>
      <trkpt lat="48.87413" lon="2.35844">
        <ele>26.39999961853</ele>
        <time>2015-09-14T20:24:51.000Z</time>
      </trkpt>
      <trkpt lat="48.87404" lon="2.35839">
        <ele>25.799999237061</ele>
        <time>2015-09-14T20:24:55.000Z</time>
      </trkpt>
      <trkpt lat="48.87396" lon="2.35835">
        <ele>27.39999961853</ele>
        <time>2015-09-14T20:25:00.000Z</time>
      </trkpt>
      <trkpt lat="48.87382" lon="2.35834">
        <ele>28</ele>
        <time>2015-09-14T20:25:06.000Z</time>
      </trkpt>
      <trkpt lat="48.87364" lon="2.35831">
        <ele>27.799999237061</ele>
        <time>2015-09-14T20:25:12.000Z</time>
      </trkpt>
      <trkpt lat="48.87345" lon="2.35817">
        <ele>28</ele>
        <time>2015-09-14T20:25:17.000Z</time>
      </trkpt>
      <trkpt lat="48.87326" lon="2.35807">
        <ele>27.39999961853</ele>
        <time>2015-09-14T20:25:22.000Z</time>
      </trkpt>
      <trkpt lat="48.87308" lon="2.35797">
        <ele>27.60000038147</ele>
        <time>2015-09-14T20:25:26.000Z</time>
      </trkpt>
      <trkpt lat="48.8729" lon="2.35785">
        <ele>27</ele>
        <time>2015-09-14T20:25:31.000Z</time>
      </trkpt>
      <trkpt lat="48.87269" lon="2.35772">
        <ele>26.200000762939</ele>
        <time>2015-09-14T20:25:36.000Z</time>
      </trkpt>
      <trkpt lat="48.87248" lon="2.35759">
        <ele>25.60000038147</ele>
        <time>2015-09-14T20:25:41.000Z</time>
      </trkpt>
      <trkpt lat="48.8723" lon="2.35751">
        <ele>24.39999961853</ele>
        <time>2015-09-14T20:25:45.000Z</time>
      </trkpt>
      <trkpt lat="48.87223" lon="2.35749">
        <ele>23.200000762939</ele>
        <time>2015-09-14T20:25:47.000Z</time>
      </trkpt>
      <trkpt lat="48.87202" lon="2.35737">
        <ele>22</ele>
        <time>2015-09-14T20:25:52.000Z</time>
      </trkpt>
      <trkpt lat="48.8719" lon="2.35734">
        <ele>21.799999237061</ele>
        <time>2015-09-14T20:25:55.000Z</time>
      </trkpt>
      <trkpt lat="48.87183" lon="2.35729">
        <ele>20.799999237061</ele>
        <time>2015-09-14T20:25:57.000Z</time>
      </trkpt>
      <trkpt lat="48.87167" lon="2.35714">
        <ele>18.39999961853</ele>
        <time>2015-09-14T20:26:01.000Z</time>
      </trkpt>
      <trkpt lat="48.87145" lon="2.357">
        <ele>16.60000038147</ele>
        <time>2015-09-14T20:26:05.000Z</time>
      </trkpt>
      <trkpt lat="48.8713" lon="2.3569">
        <ele>15</ele>
        <time>2015-09-14T20:26:08.000Z</time>
      </trkpt>
      <trkpt lat="48.87109" lon="2.35678">
        <ele>12.39999961853</ele>
        <time>2015-09-14T20:26:12.000Z</time>
      </trkpt>
      <trkpt lat="48.87096" lon="2.35669">
        <ele>10.60000038147</ele>
        <time>2015-09-14T20:26:15.000Z</time>
      </trkpt>
      <trkpt lat="48.87076" lon="2.35657">
        <ele>8.6000003814697</ele>
        <time>2015-09-14T20:26:19.000Z</time>
      </trkpt>
      <trkpt lat="48.87058" lon="2.35643">
        <ele>7</ele>
        <time>2015-09-14T20:26:23.000Z</time>
      </trkpt>
      <trkpt lat="48.87039" lon="2.35631">
        <ele>5.5999999046326</ele>
        <time>2015-09-14T20:26:27.000Z</time>
      </trkpt>
      <trkpt lat="48.8702" lon="2.35618">
        <ele>3.7999999523163</ele>
        <time>2015-09-14T20:26:31.000Z</time>
      </trkpt>
      <trkpt lat="48.87001" lon="2.35607">
        <ele>1.7999999523163</ele>
        <time>2015-09-14T20:26:35.000Z</time>
      </trkpt>
      <trkpt lat="48.86982" lon="2.35599">
        <ele>-0.20000000298023</ele>
        <time>2015-09-14T20:26:39.000Z</time>
      </trkpt>
      <trkpt lat="48.86974" lon="2.35596">
        <ele>-1.2000000476837</ele>
        <time>2015-09-14T20:26:41.000Z</time>
      </trkpt>
      <trkpt lat="48.86954" lon="2.35586">
        <ele>-3.4000000953674</ele>
        <time>2015-09-14T20:26:47.000Z</time>
      </trkpt>
      <trkpt lat="48.86945" lon="2.35583">
        <ele>-5.8000001907349</ele>
        <time>2015-09-14T20:26:51.000Z</time>
      </trkpt>
      <trkpt lat="48.8694" lon="2.35584">
        <ele>-6.8000001907349</ele>
        <time>2015-09-14T20:26:55.000Z</time>
      </trkpt>
      <trkpt lat="48.86934" lon="2.35573">
        <ele>-7</ele>
        <time>2015-09-14T20:26:59.000Z</time>
      </trkpt>
      <trkpt lat="48.86933" lon="2.35571">
        <ele>-7.1999998092651</ele>
        <time>2015-09-14T20:27:00.000Z</time>
      </trkpt>
      <trkpt lat="48.86915" lon="2.3556">
        <ele>6.5999999046326</ele>
        <time>2015-09-14T20:27:26.000Z</time>
      </trkpt>
      <trkpt lat="48.86896" lon="2.35544">
        <ele>8.6000003814697</ele>
        <time>2015-09-14T20:27:32.000Z</time>
      </trkpt>
      <trkpt lat="48.86879" lon="2.35534">
        <ele>9.1999998092651</ele>
        <time>2015-09-14T20:27:36.000Z</time>
      </trkpt>
      <trkpt lat="48.86861" lon="2.35524">
        <ele>9</ele>
        <time>2015-09-14T20:27:40.000Z</time>
      </trkpt>
      <trkpt lat="48.86843" lon="2.35513">
        <ele>7.4000000953674</ele>
        <time>2015-09-14T20:27:45.000Z</time>
      </trkpt>
      <trkpt lat="48.86826" lon="2.35501">
        <ele>6</ele>
        <time>2015-09-14T20:27:49.000Z</time>
      </trkpt>
      <trkpt lat="48.86808" lon="2.3549">
        <ele>4.4000000953674</ele>
        <time>2015-09-14T20:27:53.000Z</time>
      </trkpt>
      <trkpt lat="48.8679" lon="2.35481">
        <ele>2.5999999046326</ele>
        <time>2015-09-14T20:27:57.000Z</time>
      </trkpt>
      <trkpt lat="48.86782" lon="2.35475">
        <ele>1.3999999761581</ele>
        <time>2015-09-14T20:27:59.000Z</time>
      </trkpt>
      <trkpt lat="48.86766" lon="2.35461">
        <ele>-0.40000000596046</ele>
        <time>2015-09-14T20:28:03.000Z</time>
      </trkpt>
      <trkpt lat="48.86746" lon="2.3545">
        <ele>-3</ele>
        <time>2015-09-14T20:28:07.000Z</time>
      </trkpt>
      <trkpt lat="48.86735" lon="2.35445">
        <ele>-3.7999999523163</ele>
        <time>2015-09-14T20:28:09.000Z</time>
      </trkpt>
      <trkpt lat="48.86717" lon="2.35436">
        <ele>-4.4000000953674</ele>
        <time>2015-09-14T20:28:12.000Z</time>
      </trkpt>
      <trkpt lat="48.86696" lon="2.35424">
        <ele>-4.5999999046326</ele>
        <time>2015-09-14T20:28:16.000Z</time>
      </trkpt>
      <trkpt lat="48.86686" lon="2.35419">
        <ele>-3.5999999046326</ele>
        <time>2015-09-14T20:28:18.000Z</time>
      </trkpt>
      <trkpt lat="48.86666" lon="2.35408">
        <ele>-2.7999999523163</ele>
        <time>2015-09-14T20:28:22.000Z</time>
      </trkpt>
      <trkpt lat="48.86654" lon="2.35402">
        <ele>-2.4000000953674</ele>
        <time>2015-09-14T20:28:25.000Z</time>
      </trkpt>
      <trkpt lat="48.86638" lon="2.35393">
        <ele>-2.5999999046326</ele>
        <time>2015-09-14T20:28:30.000Z</time>
      </trkpt>
      <trkpt lat="48.86625" lon="2.35385">
        <ele>-2.2000000476837</ele>
        <time>2015-09-14T20:28:34.000Z</time>
      </trkpt>
      <trkpt lat="48.86623" lon="2.35383">
        <ele>-2.2000000476837</ele>
        <time>2015-09-14T20:28:35.000Z</time>
      </trkpt>
      <trkpt lat="48.86621" lon="2.35379">
        <ele>-0.60000002384186</ele>
        <time>2015-09-14T20:28:38.000Z</time>
      </trkpt>
      <trkpt lat="48.86601" lon="2.35366">
        <ele>6.5999999046326</ele>
        <time>2015-09-14T20:29:02.000Z</time>
      </trkpt>
      <trkpt lat="48.86583" lon="2.35355">
        <ele>6.8000001907349</ele>
        <time>2015-09-14T20:29:11.000Z</time>
      </trkpt>
      <trkpt lat="48.86564" lon="2.3535">
        <ele>7.4000000953674</ele>
        <time>2015-09-14T20:29:16.000Z</time>
      </trkpt>
      <trkpt lat="48.86549" lon="2.35346">
        <ele>7.5999999046326</ele>
        <time>2015-09-14T20:29:20.000Z</time>
      </trkpt>
      <trkpt lat="48.86539" lon="2.35361">
        <ele>6</ele>
        <time>2015-09-14T20:29:24.000Z</time>
      </trkpt>
      <trkpt lat="48.86531" lon="2.35389">
        <ele>7.5999999046326</ele>
        <time>2015-09-14T20:29:31.000Z</time>
      </trkpt>
      <trkpt lat="48.86524" lon="2.35414">
        <ele>11.199999809265</ele>
        <time>2015-09-14T20:29:37.000Z</time>
      </trkpt>
      <trkpt lat="48.86524" lon="2.35429">
        <ele>13</ele>
        <time>2015-09-14T20:29:43.000Z</time>
      </trkpt>
      <trkpt lat="48.86522" lon="2.35435">
        <ele>15.199999809265</ele>
        <time>2015-09-14T20:29:48.000Z</time>
      </trkpt>
      <trkpt lat="48.8651" lon="2.35457">
        <ele>14.39999961853</ele>
        <time>2015-09-14T20:29:54.000Z</time>
      </trkpt>
      <trkpt lat="48.865" lon="2.35481">
        <ele>15</ele>
        <time>2015-09-14T20:29:59.000Z</time>
      </trkpt>
      <trkpt lat="48.86494" lon="2.35509">
        <ele>13.800000190735</ele>
        <time>2015-09-14T20:30:06.000Z</time>
      </trkpt>
      <trkpt lat="48.86487" lon="2.35515">
        <ele>12.60000038147</ele>
        <time>2015-09-14T20:30:10.000Z</time>
      </trkpt>
      <trkpt lat="48.86476" lon="2.35514">
        <ele>11</ele>
        <time>2015-09-14T20:30:15.000Z</time>
      </trkpt>
      <trkpt lat="48.86457" lon="2.35506">
        <ele>9</ele>
        <time>2015-09-14T20:30:20.000Z</time>
      </trkpt>
      <trkpt lat="48.86438" lon="2.35496">
        <ele>6.8000001907349</ele>
        <time>2015-09-14T20:30:25.000Z</time>
      </trkpt>
      <trkpt lat="48.86418" lon="2.35486">
        <ele>3.4000000953674</ele>
        <time>2015-09-14T20:30:30.000Z</time>
      </trkpt>
      <trkpt lat="48.86397" lon="2.35478">
        <ele>0.60000002384186</ele>
        <time>2015-09-14T20:30:34.000Z</time>
      </trkpt>
      <trkpt lat="48.86377" lon="2.35466">
        <ele>-0.60000002384186</ele>
        <time>2015-09-14T20:30:38.000Z</time>
      </trkpt>
      <trkpt lat="48.86359" lon="2.35457">
        <ele>-1.3999999761581</ele>
        <time>2015-09-14T20:30:42.000Z</time>
      </trkpt>
      <trkpt lat="48.86341" lon="2.35449">
        <ele>-2.4000000953674</ele>
        <time>2015-09-14T20:30:46.000Z</time>
      </trkpt>
      <trkpt lat="48.86338" lon="2.35446">
        <ele>-2.5999999046326</ele>
        <time>2015-09-14T20:30:47.000Z</time>
      </trkpt>
      <trkpt lat="48.8632" lon="2.35437">
        <ele>-5.1999998092651</ele>
        <time>2015-09-14T20:30:53.000Z</time>
      </trkpt>
      <trkpt lat="48.86306" lon="2.35431">
        <ele>-7</ele>
        <time>2015-09-14T20:30:56.000Z</time>
      </trkpt>
      <trkpt lat="48.86293" lon="2.35423">
        <ele>-8.3999996185303</ele>
        <time>2015-09-14T20:30:59.000Z</time>
      </trkpt>
      <trkpt lat="48.86273" lon="2.35418">
        <ele>-8.8000001907349</ele>
        <time>2015-09-14T20:31:04.000Z</time>
      </trkpt>
      <trkpt lat="48.86268" lon="2.35415">
        <ele>-9</ele>
        <time>2015-09-14T20:31:05.000Z</time>
      </trkpt>
      <trkpt lat="48.8625" lon="2.35407">
        <ele>-9</ele>
        <time>2015-09-14T20:31:09.000Z</time>
      </trkpt>
      <trkpt lat="48.8623" lon="2.354">
        <ele>-9.6000003814697</ele>
        <time>2015-09-14T20:31:14.000Z</time>
      </trkpt>
      <trkpt lat="48.8622" lon="2.35403">
        <ele>-9.3999996185303</ele>
        <time>2015-09-14T20:31:16.000Z</time>
      </trkpt>
      <trkpt lat="48.86212" lon="2.35398">
        <ele>-9.3999996185303</ele>
        <time>2015-09-14T20:31:18.000Z</time>
      </trkpt>
      <trkpt lat="48.86198" lon="2.35394">
        <ele>-9</ele>
        <time>2015-09-14T20:31:21.000Z</time>
      </trkpt>
      <trkpt lat="48.86176" lon="2.35385">
        <ele>-10.60000038147</ele>
        <time>2015-09-14T20:31:26.000Z</time>
      </trkpt>
      <trkpt lat="48.86159" lon="2.35376">
        <ele>-11.39999961853</ele>
        <time>2015-09-14T20:31:30.000Z</time>
      </trkpt>
      <trkpt lat="48.8614" lon="2.35366">
        <ele>-13</ele>
        <time>2015-09-14T20:31:34.000Z</time>
      </trkpt>
      <trkpt lat="48.86137" lon="2.35364">
        <ele>-13</ele>
        <time>2015-09-14T20:31:35.000Z</time>
      </trkpt>
      <trkpt lat="48.86119" lon="2.35359">
        <ele>-14.199999809265</ele>
        <time>2015-09-14T20:31:40.000Z</time>
      </trkpt>
      <trkpt lat="48.86115" lon="2.35359">
        <ele>-14.199999809265</ele>
        <time>2015-09-14T20:31:41.000Z</time>
      </trkpt>
      <trkpt lat="48.861" lon="2.35346">
        <ele>-13</ele>
        <time>2015-09-14T20:31:44.000Z</time>
      </trkpt>
      <trkpt lat="48.86089" lon="2.3534">
        <ele>-12.60000038147</ele>
        <time>2015-09-14T20:31:47.000Z</time>
      </trkpt>
      <trkpt lat="48.86069" lon="2.35331">
        <ele>-11.199999809265</ele>
        <time>2015-09-14T20:31:51.000Z</time>
      </trkpt>
      <trkpt lat="48.86054" lon="2.35327">
        <ele>-11</ele>
        <time>2015-09-14T20:31:55.000Z</time>
      </trkpt>
      <trkpt lat="48.86047" lon="2.35318">
        <ele>-11</ele>
        <time>2015-09-14T20:31:58.000Z</time>
      </trkpt>
      <trkpt lat="48.86035" lon="2.3532">
        <ele>-10.39999961853</ele>
        <time>2015-09-14T20:32:01.000Z</time>
      </trkpt>
      <trkpt lat="48.86021" lon="2.353">
        <ele>-9.3999996185303</ele>
        <time>2015-09-14T20:32:05.000Z</time>
      </trkpt>
      <trkpt lat="48.86006" lon="2.35275">
        <ele>-10</ele>
        <time>2015-09-14T20:32:08.000Z</time>
      </trkpt>
      <trkpt lat="48.85992" lon="2.3527">
        <ele>-10.800000190735</ele>
        <time>2015-09-14T20:32:10.000Z</time>
      </trkpt>
      <trkpt lat="48.85969" lon="2.35264">
        <ele>-11.60000038147</ele>
        <time>2015-09-14T20:32:13.000Z</time>
      </trkpt>
      <trkpt lat="48.85947" lon="2.35253">
        <ele>-11.60000038147</ele>
        <time>2015-09-14T20:32:16.000Z</time>
      </trkpt>
      <trkpt lat="48.85925" lon="2.3524">
        <ele>-11.39999961853</ele>
        <time>2015-09-14T20:32:19.000Z</time>
      </trkpt>
      <trkpt lat="48.85918" lon="2.35234">
        <ele>-11.39999961853</ele>
        <time>2015-09-14T20:32:20.000Z</time>
      </trkpt>
      <trkpt lat="48.85902" lon="2.3522">
        <ele>-10.60000038147</ele>
        <time>2015-09-14T20:32:23.000Z</time>
      </trkpt>
      <trkpt lat="48.85883" lon="2.35212">
        <ele>-10</ele>
        <time>2015-09-14T20:32:27.000Z</time>
      </trkpt>
      <trkpt lat="48.85862" lon="2.35205">
        <ele>-8.8000001907349</ele>
        <time>2015-09-14T20:32:32.000Z</time>
      </trkpt>
      <trkpt lat="48.85852" lon="2.35201">
        <ele>-8.1999998092651</ele>
        <time>2015-09-14T20:32:35.000Z</time>
      </trkpt>
      <trkpt lat="48.85832" lon="2.35188">
        <ele>-6.8000001907349</ele>
        <time>2015-09-14T20:32:41.000Z</time>
      </trkpt>
      <trkpt lat="48.85814" lon="2.3518">
        <ele>-6.8000001907349</ele>
        <time>2015-09-14T20:32:45.000Z</time>
      </trkpt>
      <trkpt lat="48.85809" lon="2.35179">
        <ele>-7</ele>
        <time>2015-09-14T20:32:46.000Z</time>
      </trkpt>
      <trkpt lat="48.85792" lon="2.35171">
        <ele>-7</ele>
        <time>2015-09-14T20:32:50.000Z</time>
      </trkpt>
      <trkpt lat="48.85774" lon="2.35162">
        <ele>-5</ele>
        <time>2015-09-14T20:32:55.000Z</time>
      </trkpt>
      <trkpt lat="48.8577" lon="2.35154">
        <ele>-2.4000000953674</ele>
        <time>2015-09-14T20:32:57.000Z</time>
      </trkpt>
      <trkpt lat="48.85774" lon="2.35121">
        <ele>-0.80000001192093</ele>
        <time>2015-09-14T20:33:17.000Z</time>
      </trkpt>
      <trkpt lat="48.85779" lon="2.35094">
        <ele>-1</ele>
        <time>2015-09-14T20:33:23.000Z</time>
      </trkpt>
      <trkpt lat="48.85783" lon="2.35063">
        <ele>-1.3999999761581</ele>
        <time>2015-09-14T20:33:29.000Z</time>
      </trkpt>
      <trkpt lat="48.85787" lon="2.35035">
        <ele>-0.60000002384186</ele>
        <time>2015-09-14T20:33:34.000Z</time>
      </trkpt>
      <trkpt lat="48.85793" lon="2.35007">
        <ele>0.20000000298023</ele>
        <time>2015-09-14T20:33:39.000Z</time>
      </trkpt>
      <trkpt lat="48.85801" lon="2.3498">
        <ele>2.2000000476837</ele>
        <time>2015-09-14T20:33:45.000Z</time>
      </trkpt>
      <trkpt lat="48.85809" lon="2.34955">
        <ele>4</ele>
        <time>2015-09-14T20:33:50.000Z</time>
      </trkpt>
      <trkpt lat="48.85822" lon="2.34926">
        <ele>5</ele>
        <time>2015-09-14T20:33:55.000Z</time>
      </trkpt>
      <trkpt lat="48.85832" lon="2.34897">
        <ele>0.40000000596046</ele>
        <time>2015-09-14T20:33:59.000Z</time>
      </trkpt>
      <trkpt lat="48.85844" lon="2.34868">
        <ele>-2</ele>
        <time>2015-09-14T20:34:03.000Z</time>
      </trkpt>
      <trkpt lat="48.85855" lon="2.34838">
        <ele>-3.7999999523163</ele>
        <time>2015-09-14T20:34:07.000Z</time>
      </trkpt>
      <trkpt lat="48.85866" lon="2.3481">
        <ele>-5.8000001907349</ele>
        <time>2015-09-14T20:34:11.000Z</time>
      </trkpt>
      <trkpt lat="48.85868" lon="2.34802">
        <ele>-6.4000000953674</ele>
        <time>2015-09-14T20:34:12.000Z</time>
      </trkpt>
      <trkpt lat="48.85872" lon="2.34787">
        <ele>-6.5999999046326</ele>
        <time>2015-09-14T20:34:14.000Z</time>
      </trkpt>
      <trkpt lat="48.85883" lon="2.34757">
        <ele>-7.1999998092651</ele>
        <time>2015-09-14T20:34:18.000Z</time>
      </trkpt>
      <trkpt lat="48.85885" lon="2.3475">
        <ele>-7.1999998092651</ele>
        <time>2015-09-14T20:34:19.000Z</time>
      </trkpt>
      <trkpt lat="48.85891" lon="2.34737">
        <ele>-7</ele>
        <time>2015-09-14T20:34:21.000Z</time>
      </trkpt>
      <trkpt lat="48.85909" lon="2.34725">
        <ele>-6.8000001907349</ele>
        <time>2015-09-14T20:34:26.000Z</time>
      </trkpt>
      <trkpt lat="48.85913" lon="2.34723">
        <ele>-6.1999998092651</ele>
        <time>2015-09-14T20:34:27.000Z</time>
      </trkpt>
      <trkpt lat="48.8593" lon="2.3471">
        <ele>-2.2000000476837</ele>
        <time>2015-09-14T20:34:32.000Z</time>
      </trkpt>
      <trkpt lat="48.85936" lon="2.34703">
        <ele>0.20000000298023</ele>
        <time>2015-09-14T20:34:34.000Z</time>
      </trkpt>
      <trkpt lat="48.85945" lon="2.34696">
        <ele>3.4000000953674</ele>
        <time>2015-09-14T20:34:37.000Z</time>
      </trkpt>
      <trkpt lat="48.85952" lon="2.34698">
        <ele>9.3999996185303</ele>
        <time>2015-09-14T20:34:41.000Z</time>
      </trkpt>
      <trkpt lat="48.85956" lon="2.34703">
        <ele>13.199999809265</ele>
        <time>2015-09-14T20:34:44.000Z</time>
      </trkpt>
      <trkpt lat="48.8596" lon="2.34715">
        <ele>27.60000038147</ele>
        <time>2015-09-14T20:35:00.000Z</time>
      </trkpt>
    </trkseg>
  </trk>
</gpx>